     2              OBSERVATION DATA    GPS                 RINEX VERSION / TYPE
teqc 2000Jul20 Karen Wendt 20030408 21:32:55UTC             PGM / RUN BY / DATE
                                                            COMMENT
L2: 1 -> 1; 150 -> 5; 250 -> 9                              COMMENT
L2: 1 -> 1; 150 -> 5; 250 -> 9                              COMMENT
L2: 1 -> 1; 150 -> 5; 250 -> 9                              COMMENT
L2: 1 -> 1; 150 -> 5; 250 -> 9                              COMMENT
L2: 1 -> 1; 150 -> 5; 250 -> 9                              COMMENT
L2: 1 -> 1; 150 -> 5; 250 -> 9                              COMMENT
L2: 1 -> 1; 150 -> 5; 250 -> 9                              COMMENT
L2: 1 -> 1; 150 -> 5; 250 -> 9                              COMMENT
L2: 1 -> 1; 150 -> 5; 250 -> 9                              COMMENT
L2: 1 -> 1; 150 -> 5; 250 -> 9                              COMMENT
L2: 1 -> 1; 150 -> 5; 250 -> 9                              COMMENT
L2: 1 -> 1; 150 -> 5; 250 -> 9                              COMMENT
L2: 1 -> 1; 150 -> 5; 250 -> 9                              COMMENT
L2: 1 -> 1; 150 -> 5; 250 -> 9                              COMMENT
Original Marker Name: kngr Kenger_DWR                       COMMENT
Campaign Name: USGS 2003                                    COMMENT
4-Character Station Name: KNGR                              COMMENT
6-Character Antenna Code: DMRCHT                            COMMENT
Vertical Measurement Point: BCR                             COMMENT
Vertical Offset to Rinex Ref. Point: 0.0348                 COMMENT
Radial Measurement Point: ECF                               COMMENT
Radial Offset to Rinex Ref. Point: 0.1897                   COMMENT
Antenna Height from Field Measurement: 1.3390 m             COMMENT
Additional Antenna Identification Info.:                    COMMENT
Turborogue and Ashtech Choke Ring                           COMMENT
Original XYZ: -2613278.2579 -4463696.8871 3721020.9381      COMMENT
New XYZ position is based on association with SCEC monument COMMENT
E1F1N3P3+0011. Position of that monument is believed to be  COMMENT
valid to within 1 m horizontally; vertical accuracy         COMMENT
should be no worse than 3-times this value.                 COMMENT
                                                            COMMENT
Revised Rinex header created by UCSD GPS archive for        COMMENT
GSAC on 11-Jul-2003 (2003:192) 16:28:04 GMT                 COMMENT
For assistance contact dagnew@ucsd.edu                      COMMENT
or anderson@python.ucsd.edu                                 COMMENT
                                                            COMMENT
KENGER DWR                                                  MARKER NAME
JMS US GEOLOGICAL SURVEY                                    OBSERVER / AGENCY
LP020000801 ASHTECH Z-XII3 CD00                             REC # / TYPE / VERS
CR14244 DORNE-MARGOL. TYPE T                                ANT # / TYPE
 -2613293.0109 -4463665.9242  3721002.5062                  APPROX POSITION XYZ
        1.2907        0.0000        0.0000                  ANTENNA: DELTA H/E/N
     1     1     0                                          WAVELENGTH FACT L1/2
     5    C1    L1    L2    P1    P2                        # / TYPES OF OBSERV
    30                                                      INTERVAL
  2003     3    29     0     1    0.000000                  TIME OF FIRST OBS
  2003     3    29    23    59   30.000000                  TIME OF LAST OBS
                                                            END OF HEADER
 03  3 29  0  1  0.0000000  0  9G 3G26G14G15G17G 6G16G23G18
  22413522.171   -16942089.69449 -13173529.25446  22413521.981    22413532.215
  23680317.617   -10077195.10849  -7401136.89345  23680317.686    23680329.304
  23147849.913   -14434736.39649 -10949395.93046  23147849.598    23147861.663
  20329024.279   -30341249.93849 -23382796.35948  20329023.690    20329032.078
  21165132.662   -23982043.12549 -18667772.00947  21165132.204    21165141.437
  24261704.878    -7653228.95449  -5947947.01545  24261704.880    24261721.230
  24401192.299    -5766641.69149  -4467935.49845  24401191.986    24401206.479
  21052917.911   -22859820.75249 -17790392.40747  21052917.438    21052925.692
  20436168.732   -27709502.43549 -21575253.58948  20436168.415    20436175.244
 03  3 29  0  1 30.0000000  0  9G 3G26G14G15G17G 6G16G23G18
  22401525.191   -17005133.76649 -13222654.43246  22401524.997    22401535.228
  23699152.629    -9978216.89449  -7324011.08745  23699152.658    23699164.264
  23127374.414   -14542334.97849 -11033238.69846  23127374.032    23127386.050
  20325779.722   -30358300.32149 -23396082.34948  20325779.106    20325787.483
  21171499.811   -23948583.76449 -18641699.79547  21171499.326    21171508.578
  24282900.785    -7541845.55949  -5861155.07945  24282900.607    24282917.042
  24413989.602    -5699391.67549  -4415533.09845  24413989.277    24414003.850
  21059975.116   -22822734.98049 -17761494.40347  21059974.623    21059982.882
  20439299.558   -27693049.81649 -21562433.36448  20439299.238    20439306.049
 03  3 29  0  2  0.0000000  0  9G 3G26G14G15G17G 6G16G23G18
  22389612.578   -17067734.56049 -13271434.18546  22389612.414    22389622.587
  23718049.044    -9878915.57049  -7246633.50245  23718049.096    23718060.739
  23106933.099   -14649753.40649 -11116941.08546  23106932.774    23106944.716
  20322590.202   -30375061.15249 -23409142.71048  20322589.604    20322597.956
  21177920.771   -23914841.36749 -18615407.03247  21177920.291    21177929.532
  24304111.057    -7430386.55949  -5774304.24745  24304110.733    24304127.337
  24426820.325    -5631966.67949  -4362994.35645  24426819.784    24426834.465
  21067073.622   -22785432.10249 -17732427.22247  21067073.119    21067081.377
  20442491.819   -27676274.40349 -21549361.60748  20442491.478    20442498.275
 03  3 29  0  2 30.0000000  0  9G 3G26G14G15G17G 6G16G23G18
  22377784.803   -17129889.79349 -13319866.76946  22377784.602    22377794.740
  23737006.436    -9779293.93949  -7169006.31345  23737006.542    23737018.044
  23086526.693   -14756988.93749 -11200500.96046  23086526.321    23086538.281
  20319456.064   -30391531.31049 -23421976.57248  20319455.434    20319463.783
  21184395.765   -23880815.21549 -18588893.15847  21184395.298    21184404.523
  24325335.189    -7318854.08649  -5687396.14845  24325334.941    24325351.450
  24439683.729    -5564369.61949  -4310321.53045  24439683.329    24439698.157
  21074213.137   -22747913.60949 -17703192.02847  21074212.646    21074220.889
  20445745.238   -27659177.54649 -21536039.37748  20445744.905    20445751.719
 03  3 29  0  3  0.0000000  0  9G 3G26G14G15G17G 6G16G23G18
  22366042.114   -17191597.76049 -13367950.82746  22366041.901    22366051.996
  23756024.143    -9679355.50849  -7091132.31645  23756024.237    23756035.847
  23066155.501   -14864039.13449 -11283916.41946  23066155.143    23066167.019
  20316377.294   -30407710.24849 -23434583.50748  20316376.655    20316385.001
  21190924.778   -23846504.98749 -18562157.92747  21190924.308    21190933.534
  24346572.648    -7207251.02749  -5600433.04245  24346572.557    24346589.105
  24452579.323    -5496603.76449  -4257517.17445  24452578.882    24452593.881
  21081393.310   -22710181.47349 -17673790.35547  21081392.845    21081401.084
  20449059.530   -27641760.85949 -21522467.92348  20449059.181    20449066.015
 03  3 29  0  3 30.0000000  0  9G 3G26G14G15G17G 6G16G23G18
  22354384.860   -17252856.53549 -13415684.86146  22354384.682    22354394.726
  23775101.665    -9579103.28549  -7013013.74345  23775101.739    23775113.162
  23045820.067   -14970901.25749 -11367185.33546  23045819.732    23045831.500
  20313354.192   -30423596.53849 -23446962.40148  20313353.578    20313361.908
  21197508.008   -23811909.84249 -18535200.68547  21197507.541    21197516.777
  24367823.079    -7095579.64649  -5513416.69245  24367823.008    24367839.734
  24465506.422    -5428672.20849  -4204583.69445  24465506.052    24465521.019
  21088613.882   -22672237.14949 -17644223.33947  21088613.407    21088621.648
  20452434.380   -27624025.84749 -21508648.41948  20452434.065    20452440.877
 03  3 29  0  4  0.0000000  0  9G 3G26G14G15G17G 6G16G23G18
  22342813.542   -17313663.74949 -13463067.03446  22342813.392    22342823.425
  23794238.258    -9478540.04949  -6934652.86345  23794238.292    23794249.783
  23025520.992   -15077572.48149 -11450305.49746  23025520.664    23025532.388
  20310387.007   -30439189.10249 -23459112.41948  20310386.412    20310394.751
  21204145.452   -23777029.78149 -18508021.42347  21204145.006    21204154.218
  24389086.209    -6983842.33149  -5426348.97145  24389086.017    24389103.031
  24478464.517    -5360577.52049  -4151523.11645  24478464.122    24478479.267
  21095874.547   -22634082.13449 -17614492.15247  21095874.070    21095882.327
  20455869.597   -27605973.55149 -21494581.68248  20455869.276    20455876.111
 03  3 29  0  4 30.0000000  0  9G 3G26G14G15G17G 6G16G23G18
  22331328.485   -17374017.96349 -13510096.22146  22331328.353    22331338.378
  23813433.349    -9377669.53149  -6856052.53545  23813433.562    23813445.009
  23005258.706   -15184050.17149 -11533274.86346  23005258.421    23005270.116
  20307475.833   -30454487.19549 -23471032.97348  20307475.248    20307483.579
  21210837.264   -23741864.25749 -18480619.73047  21210836.813    21210846.005
  24410361.445    -6872041.83149  -5339232.01745  24410361.108    24410378.245
  24491452.927    -5292323.49249  -4098338.37145  24491452.560    24491467.884
  21103174.952   -22595718.23749 -17584598.19247  21103174.456    21103182.714
  20459364.911   -27587605.39649 -21480268.81548  20459364.627    20459371.438
 03  3 29  0  5  0.0000000  0  9G 3G26G14G15G17G 6G16G23G18
  22319930.119   -17433916.47349 -13556770.31446  22319929.954    22319939.963
  23832686.522    -9276493.86349  -6777214.41445  23832686.624    23832698.057
  22985033.921   -15290331.23649 -11616091.01846  22985033.573    22985045.256
  20304621.065   -30469489.10049 -23482722.73348  20304620.454    20304628.767
  21217583.657   -23706411.91449 -18452994.53747  21217583.183    21217592.381
  24431648.405    -6760179.85649  -5252067.16845  24431648.041    24431665.237
  24504471.293    -5223912.31849  -4045031.16745  24504470.819    24504486.338
  21110514.921   -22557146.47149 -17554542.26247  21110514.425    21110522.653
  20462920.182   -27568922.31549 -21465710.54748  20462919.865    20462926.675
 03  3 29  0  5 30.0000000  0 10G 3G26G14G15G17G 6G16G23G18G31
  22308618.247   -17493360.41449 -13603090.19346  22308618.115    22308628.073
  23851996.591    -9175019.53449  -6698143.56645  23851996.716    23852008.185
  22964846.473   -15396416.17149 -11698754.34046  22964846.098    22964857.670
  20301822.220   -30484196.93549 -23494183.35048  20301821.621    20301829.925
  21224384.157   -23670675.26249 -18425147.81047  21224383.675    21224392.838
  24452945.718    -6648261.95849  -5164858.71645  24452945.628    24452962.663
  24517518.437    -5155350.15249  -3991606.31345  24517517.806    24517533.370
  21117893.574   -22518371.45249 -17524327.95647  21117893.047    21117901.312
  20466534.572   -27549928.54249 -21450910.18348  20466534.253    20466541.080
  24401120.827    -3491959.04649  -2439815.40045  24401120.696    24401134.376
 03  3 29  0  6  0.0000000  0 11G 3G26G14G15G17G 9G 6G16G23G18G31
  22297393.740   -17552345.17149 -13649052.26646  22297393.616    22297403.548
  23871363.331    -9073246.86249  -6618840.24845  23871363.438    23871375.009
  22944697.299   -15502299.58149 -11781260.64846  22944696.977    22944708.448
  20299080.034   -30498607.22149 -23505412.11548  20299079.430    20299087.729
  21231239.271   -23634651.53249 -18397077.39147  21231238.759    21231247.942
  24431800.881    -6011694.63749  -4667460.82145  24431800.797    24431816.173
  24474253.949    -6536287.98549  -5077606.57045  24474253.745    24474270.824
  24530594.178    -5086637.53249  -3938064.23145  24530593.423    24530609.078
  21125311.075   -22479392.17749 -17493954.49747  21125310.562    21125318.806
  20470208.280   -27530622.98749 -21435866.87948  20470207.980    20470214.781
  24383096.647    -3586675.61049  -2513620.30545  24383096.354    24383110.290
 03  3 29  0  6 30.0000000  0 11G 3G26G14G15G17G 9G 6G16G23G18G31
  22286257.456   -17610866.59849 -13694653.29546  22286257.305    22286267.228
  23890786.595    -8971177.00049  -6539305.34245  23890786.822    23890798.518
  22924587.437   -15607976.76549 -11863606.25046  22924587.090    22924598.502
  20296395.077   -30512716.75949 -23516406.53348  20296394.468    20296402.738
  21238149.471   -23598338.04649 -18368781.17447  21238148.975    21238158.182
  24419556.300    -6076040.18149  -4717599.97045  24419556.113    24419571.426
  24495572.792    -6424258.35049  -4990311.04345  24495572.707    24495589.693
  24543698.291    -5017775.52049  -3884405.72645  24543697.431    24543713.237
  21132767.512   -22440208.21349 -17463421.53647  21132767.010    21132775.256
  20473941.411   -27511005.17249 -21420580.25048  20473941.125    20473947.922
  24365124.094    -3681122.26749  -2587214.94945  24365123.746    24365137.535
 03  3 29  0  7  0.0000000  0 11G 3G26G14G15G17G 9G 6G16G23G18G31
  22275209.394   -17668924.23149 -13739892.92946  22275209.234    22275219.131
  23910265.633    -8868814.08749  -6459542.10345  23910265.807    23910277.577
  22904517.000   -15713446.30049 -11945790.05446  22904516.674    22904528.038
  20293767.329   -30526525.31349 -23527166.41648  20293766.768    20293775.026
  21245114.762   -23561735.02549 -18340259.35347  21245114.303    21245123.534
  24407360.977    -6140125.65249  -4767536.45045  24407360.716    24407376.275
  24516901.723    -6312176.56949  -4902974.89845  24516901.472    24516918.436
  24556830.062    -4948768.15849  -3830633.96145  24556829.451    24556844.948
  21140262.423   -22400822.24449 -17432731.17247  21140261.931    21140270.168
  20477733.561   -27491077.30049 -21405052.02348  20477733.270    20477740.063
  24347203.090    -3775297.50949  -2660598.09745  24347202.703    24347216.289
 03  3 29  0  7 30.0000000  0 11G 3G26G14G15G17G 9G 6G16G23G18G31
  22264249.971   -17726515.96449 -13784769.52046  22264249.831    22264259.714
  23929799.867    -8766161.16449  -6379552.86345  23929800.093    23929811.897
  22884486.702   -15818705.36249 -12027809.87346  22884486.400    22884497.682
  20291197.092   -30540031.92949 -23537691.03048  20291196.507    20291204.763
  21252135.243   -23524842.14749 -18311511.67447  21252134.783    21252144.021
  24395215.924    -6203947.77949  -4817267.77745  24395215.584    24395230.938
  24538239.916    -6200044.99249  -4815599.93245  24538239.570    24538256.682
  24569989.025    -4879618.67949  -3776751.46845  24569988.430    24570003.835
  21147795.485   -22361235.81749 -17401884.60747  21147794.976    21147803.206
  20481584.419   -27470840.77049 -21389283.28648  20481584.104    20481590.888
  24329334.167    -3869198.86849  -2733767.82945  24329333.683    24329347.168
 03  3 29  0  8  0.0000000  0 10G 3G26G14G15G17G 9G16G23G18G31
  22253379.913   -17783638.19049 -13829280.26646  22253379.746    22253389.618
  23949389.066    -8663219.89149  -6299338.94845  23949389.143    23949401.018
  22864497.263   -15923749.70549 -12109662.37846  22864496.919    22864508.134
  20288684.777   -30553234.14449 -23547978.44448  20288684.186    20288692.451
  21259211.213   -23487657.74449 -18282536.82847  21259210.735    21259220.020
  24383121.870    -6267501.82849  -4866790.18145  24383121.556    24383136.779
  24583174.673    -4810328.44949  -3722759.30245  24583174.122    24583189.513
  21155366.694   -22321448.84349 -17370881.76947  21155366.195    21155374.427
  20485494.111   -27450295.26249 -21373273.78648  20485493.798    20485500.564
  24311518.220    -3962821.94349  -2806720.72245  24311517.846    24311531.003
 03  3 29  0  8 30.0000000  0 10G 3G26G14G15G17G 9G16G23G18G31
  22242599.128   -17840291.22249 -13873425.40346  22242598.990    22242608.852
  23969031.943    -8559995.34049  -6218904.30445  23969032.094    23969044.077
  22844548.771   -16028578.74749 -12191347.11646  22844548.449    22844559.592
  20286230.190   -30566132.97849 -23558029.46248  20286229.605    20286237.844
  21266342.490   -23450182.72949 -18253335.53147  21266342.008    21266351.286
  24371078.835    -6330786.81549  -4916102.94945  24371078.614    24371093.778
  24596386.182    -4740902.39449  -3668661.30545  24596385.646    24596400.912
  21162975.336   -22281464.95249 -17339725.49447  21162974.867    21162983.101
  20489461.915   -27429444.25949 -21357026.24348  20489461.621    20489468.381
  24293755.175    -4056166.27349  -2879456.47445  24293754.844    24293767.335
 03  3 29  0  9  0.0000000  0 10G 3G26G14G15G17G 9G16G23G18G31
  22231907.849   -17896473.90949 -13917204.04046  22231907.710    22231917.557
  23988728.300    -8456491.10749  -6138251.70745  23988728.440    23988740.306
  22824641.674   -16133190.26749 -12272862.36246  22824641.370    22824652.460
  20283833.465   -30578727.75549 -23567843.54948  20283832.885    20283841.119
  21273529.000   -23412417.25549 -18223907.89947  21273528.543    21273537.831
  24359087.680    -6393800.09549  -4965203.99845  24359087.535    24359102.521
  24609622.849    -4671344.08649  -3614460.24945  24609622.412    24609637.500
  21170621.106   -22241286.26849 -17308417.42647  21170620.634    21170628.869
  20493487.477   -27408289.74949 -21340542.19948  20493487.184    20493493.945
  24276045.576    -4149229.85949  -2951973.46745  24276045.344    24276058.029
 03  3 29  0  9 30.0000000  0 10G 3G26G14G15G17G 9G16G23G18G31
  22221306.616   -17952183.62649 -13960614.13147  22221306.440    22221316.309
  24008477.129    -8352709.82149  -6057383.23245  24008477.288    24008489.361
  22804776.626   -16237581.25749 -12354205.76246  22804776.262    22804787.293
  20281494.893   -30591016.89649 -23577419.48148  20281494.304    20281502.547
  21280770.984   -23374360.70649 -18194253.45547  21280770.499    21280779.745
  24347148.685    -6456538.21749  -5014090.59045  24347148.589    24347163.678
  24622884.147    -4601656.39149  -3560158.38545  24622883.713    24622898.851
  21178303.726   -22200913.86549 -17276958.41047  21178303.246    21178311.473
  20497570.603   -27386832.69249 -21323822.40548  20497570.317    20497577.071
  24258390.138    -4242009.61849  -3024269.26145  24258389.797    24258402.604
 03  3 29  0 10  0.0000000  0 10G 3G26G14G15G17G 9G16G23G18G31
  22210795.593   -18007419.05049 -14003654.63747  22210795.416    22210805.265
  24028278.281    -8248654.96049  -5976301.56245  24028278.410    24028290.290
  22784953.916   -16341749.37449 -12435375.49946  22784953.565    22784964.525
  20279214.639   -30602999.56849 -23586756.60248  20279214.042    20279222.287
  21288068.292   -23336013.13049 -18164372.23847  21288067.837    21288077.084
  24335262.797    -6518998.40349  -5062760.66645  24335262.729    24335277.719
  24636169.483    -4531842.70149  -3505758.33445  24636169.124    24636184.433
  21186022.902   -22160349.60049 -17245349.88947  21186022.382    21186030.618
  20501711.062   -27365074.56549 -21306868.00848  20501710.741    20501717.494
  24240789.190    -4334503.30449  -3096342.19045  24240788.881    24240801.577
 03  3 29  0 10 30.0000000  0 10G 3G26G14G15G17G 9G16G23G18G31
  22200375.224   -18062178.12349 -14046323.96547  22200375.040    22200384.890
  24048130.750    -8144329.29849  -5895008.91845  24048130.955    24048142.945
  22765174.163   -16445691.65749 -12516369.25346  22765173.839    22765184.718
  20276992.916   -30614674.62749 -23595854.02448  20276992.320    20277000.556
  21295421.225   -23297373.39249 -18134263.36247  21295420.747    21295429.958
  24323430.583    -6581177.25749  -5111211.52645  24323430.530    24323445.245
  24649478.296    -4461905.68049  -3451262.18245  24649477.961    24649493.311
  21193778.298   -22119594.79349 -17213592.89147  21193777.783    21193786.000
  20505908.567   -27343016.41449 -21289679.82548  20505908.255    20505915.007
  24223243.127    -4426708.03249  -3168189.92545  24223242.838    24223255.419
 03  3 29  0 11  0.0000000  0 10G 3G26G14G15G17G 9G16G23G18G31
  22190046.006   -18116458.25849 -14088620.09447  22190045.801    22190055.662
  24068034.543    -8039735.14249  -5813507.02345  24068034.497    24068046.657
  22745438.022   -16549404.64049 -12597184.34546  22745437.711    22745448.556
  20274830.083   -30626040.25449 -23604710.33248  20274829.508    20274837.746
  21302829.924   -23258440.68249 -18103926.20847  21302829.408    21302838.618
  24311652.319    -6643070.99549  -5159440.19445  24311652.154    24311667.121
  24662810.083    -4391847.74149  -3396671.82345  24662809.732    24662825.184
  21201569.795   -22078650.07249 -17181687.91447  21201569.289    21201577.501
  20510163.083   -27320658.68549 -21272258.21248  20510162.780    20510169.529
  24205752.496    -4518620.38249  -3239809.81345  24205752.287    24205764.962
 03  3 29  0 11 30.0000000  0 10G 3G26G14G15G17G 9G16G23G18G31
  22179808.170   -18170257.96449 -14130541.86547  22179807.998    22179817.841
  24087988.359    -7934876.01849  -5731798.64045  24087988.402    24088000.563
  22725745.981   -16652886.24149 -12677819.14246  22725745.694    22725756.443
  20272726.304   -30637095.71649 -23613324.94948  20272725.714    20272733.951
  21310294.400   -23219214.73549 -18073360.54747  21310293.891    21310303.110
  24299929.007    -6704676.96449  -5207444.66745  24299928.811    24299943.557
  24676164.301    -4321672.01149  -3341989.66045  24676163.857    24676179.313
  21209397.070   -22037517.40449 -17149636.48347  21209396.560    21209404.765
  20514474.215   -27298003.50449 -21254604.81248  20514473.915    20514480.652
  24188318.288    -4610238.31849  -3311200.31545  24188317.866    24188330.570
 03  3 29  0 12  0.0000000  0  9G 3G26G14G15G17G 9G23G18G31
  22169662.332   -18223574.43349 -14172087.07747  22169662.162    22169671.988
  24107992.555    -7829754.00449  -5649885.39345  24107992.654    24108004.518
  22706098.636   -16756132.72549 -12758270.71946  22706098.396    22706109.063
  20270681.944   -30647838.80549 -23621696.15748  20270681.349    20270689.582
  21317814.955   -23179693.67849 -18042564.92847  21317814.464    21317823.715
  24288261.184    -6765990.84449  -5255221.50345  24288261.046    24288275.878
  21217260.038   -21996197.23649 -17117438.94347  21217259.537    21217267.732
  20518841.846   -27275051.21249 -21236719.89448  20518841.592    20518848.322
  24170940.500    -4701558.17349  -3382358.54745  24170940.216    24170953.069
 03  3 29  0 12 30.0000000  0  9G 3G26G14G15G17G 9G23G18G31
  22159609.375   -18276402.87949 -14213252.01147  22159609.212    22159618.996
  24128046.648    -7724369.07249  -5567767.26645  24128046.811    24128058.726
  22686497.179   -16859138.19449 -12838534.49846  22686496.915    22686507.533
  20268697.751   -30658265.57949 -23629820.88548  20268697.173    20268705.391
  21325392.339   -23139874.07649 -18011536.68047  21325391.888    21325401.141
  24276650.170    -6827006.56649  -5302766.01645  24276650.016    24276664.805
  21225158.972   -21954688.12649 -17085094.17847  21225158.459    21225166.657
  20523266.419   -27251799.88449 -21218601.96348  20523266.149    20523272.910
  24153620.787    -4792574.17749  -3453279.96845  24153620.357    24153633.237
 03  3 29  0 13  0.0000000  0  9G 3G26G14G15G17G 9G23G18G31
  22149648.510   -18328747.18949 -14254039.69647  22149648.358    22149658.172
  24148149.076    -7618730.04849  -5485451.15745  24148149.154    24148161.253
  22666940.937   -16961905.92449 -12918613.03446  22666940.674    22666951.265
  20266772.877   -30668380.77049 -23637702.82148  20266772.276    20266780.502
  21333025.569   -23099761.46149 -17980280.10947  21333025.104    21333034.346
  24265095.465    -6887726.95349  -5350080.39745  24265095.304    24265109.845
  21233092.453   -21912997.44449 -17052607.93747  21233091.946    21233100.140
  20527746.584   -27228256.55049 -21200256.49148  20527746.297    20527753.063
  24136357.792    -4883289.69949  -3523967.23545  24136357.468    24136370.591
 03  3 29  0 13 30.0000000  0  9G 3G26G14G15G17G 9G23G18G31
  22139780.102   -18380605.52249 -14294448.68947  22139779.959    22139789.797
  24168299.364    -7512839.74149  -5402939.20445  24168299.434    24168311.392
  22647430.550   -17064432.94549 -12998504.00646  22647430.251    22647440.787
  20264907.561   -30678182.95949 -23645340.86148  20264906.967    20264915.182
  21340714.727   -23059354.93949 -17948794.51947  21340714.241    21340723.486
  24253597.278    -6948148.46149  -5397161.81845  24253597.195    24253611.967
  21241060.290   -21871126.11349 -17019980.92547  21241059.770    21241067.958
  20532282.059   -27204422.37749 -21181684.39448  20532281.757    20532288.533
  24119152.658    -4973701.69649  -3594417.98045  24119152.497    24119165.624
 03  3 29  0 14  0.0000000  0  9G 3G26G14G15G17G 9G23G18G31
  22130004.764   -18431975.12049 -14334476.85547  22130004.607    22130014.427
  24188497.037    -7406700.31649  -5320233.16545  24188496.962    24188509.142
  22627966.636   -17166715.63649 -13078204.58346  22627966.365    22627976.821
  20263102.163   -30687670.30049 -23652733.56048  20263101.577    20263109.784
  21348460.006   -23018653.28049 -17917078.95947  21348459.519    21348468.744
  24242157.209    -7008267.21249  -5444007.41145  24242157.044    24242171.283
  21249062.361   -21829074.95449 -16987213.78847  21249061.851    21249070.030
  20536872.767   -27180298.15349 -21162886.27948  20536872.459    20536879.214
  24102006.465    -5063806.72749  -3664629.55145  24102006.089    24102018.946
 03  3 29  0 14 30.0000000  0  9G 3G26G14G15G17G 9G23G18G31
  22120322.706   -18482854.28149 -14374122.86547  22120322.560    22120332.364
  24208741.565    -7300314.61649  -5237335.16745  24208741.567    24208753.328
  22608549.749   -17268751.51349 -13157712.84546  22608549.427    22608559.837
  20261356.899   -30696841.61949 -23659880.01748  20261356.325    20261364.500
  21356261.468   -22977655.91349 -17885132.97647  21356261.018    21356270.297
  24230774.798    -7068079.99749  -5490614.49545  24230774.644    24230789.367
  21257098.415   -21786845.29149 -16954307.56247  21257097.887    21257106.069
  20541518.427   -27155884.95949 -21143863.00048  20541518.133    20541524.866
  24084918.720    -5153602.09349  -3734599.78545  24084918.368    24084931.532
 03  3 29  0 15  0.0000000  0  9G 3G26G14G15G17G 9G23G18G31
  22110734.428   -18533240.75049 -14413384.95347  22110734.277    22110744.061
  24229032.540    -7193685.37449  -5154247.37545  24229032.709    24229043.961
  22589180.373   -17370537.28749 -13237026.22846  22589180.096    22589190.403
  20259672.077   -30705695.16949 -23666778.86048  20259671.531    20259679.690
  21364119.459   -22936361.82049 -17852955.78647  21364119.008    21364128.293
  24219451.833    -7127583.04049  -5536980.28245  24219451.664    24219465.842
  21265168.205   -21744438.08949 -16921262.99147  21265167.691    21265175.911
  20546218.922   -27131183.42249 -21124615.03548  20546218.669    20546225.395
  24067890.546    -5243084.69649  -3804326.31245  24067890.207    24067903.366
 03  3 29  0 15 30.0000000  0  9G 3G26G14G15G17G 9G23G18G31
  22101240.163   -18583133.05949 -14452261.97447  22101240.000    22101249.768
  24249369.127    -7086815.88049  -5070972.40345  24249369.172    24249380.781
  22569859.100   -17472070.60449 -13316142.88546  22569858.783    22569869.060
  20258047.925   -30714230.19149 -23673429.49848  20258047.346    20258055.518
  21372033.997   -22894770.92749 -17820547.31747  21372033.519    21372042.830
  24208187.748    -7186773.81449  -5583102.69745  24208187.611    24208201.719
  21273271.451   -21701855.16849 -16888081.49347  21273270.971    21273279.168
  20550974.000   -27106195.20049 -21105143.68548  20550973.767    20550980.475
  24050922.526    -5332252.39449  -3873807.46545  24050922.153    24050935.220
 03  3 29  0 16  0.0000000  0  9G 3G26G14G15G17G 9G23G18G31
  22091840.292   -18632529.24649 -14490752.42747  22091840.147    22091849.885
  24269750.855    -6979708.98549  -4987512.49045  24269751.022    24269762.928
  22550586.335   -17573348.59749 -13395060.59046  22550586.044    22550596.274
  20256484.602   -30722445.33549 -23679830.88948  20256484.018    20256492.196
  21380005.097   -22852882.46249 -17787906.97647  21380004.631    21380013.960
  24196984.256    -7245648.89949  -5628979.15645  24196984.097    24196998.355
  21281407.952   -21659097.65049 -16854763.95047  21281407.448    21281415.665
  20555783.434   -27080921.51649 -21085449.90148  20555783.197    20555789.897
  24034014.964    -5421102.20849  -3943040.90145  24034014.568    24034027.602
 03  3 29  0 16 30.0000000  0  9G 3G26G14G15G17G 9G23G18G31
  22082535.273   -18681427.18149 -14528854.62247  22082535.129    22082544.827
  24290177.424    -6872367.08949  -4903869.44245  24290177.530    24290189.447
  22531362.780   -17674368.28949 -13473777.02946  22531362.493    22531372.651
  20254982.438   -30730339.19749 -23685981.92648  20254981.848    20254990.026
  21388033.105   -22810695.20149 -17755033.80747  21388032.603    21388041.976
  24185841.154    -7304204.80649  -5674606.87945  24185840.892    24185855.098
  21289577.424   -21616166.54149 -16821311.13047  21289576.943    21289585.172
  20560647.011   -27055363.13449 -21065534.26948  20560646.770    20560653.472
  24017168.404    -5509631.03949  -4012024.21445  24017167.970    24017180.951
 03  3 29  0 17  0.0000000  0  9G 3G26G14G15G17G 9G23G18G31
  22073325.315   -18729825.59549 -14566567.58547  22073325.165    22073334.854
  24310647.876    -6764793.73549  -4820046.03345  24310648.089    24310659.935
  22512188.799   -17775127.27249 -13552290.31446  22512188.497    22512198.642
  20253541.581   -30737910.96749 -23691881.98048  20253540.995    20253549.149
  21396117.831   -22768209.82349 -17721928.33947  21396117.336    21396126.684
  24174759.437    -7362438.92949  -5719983.87745  24174759.283    24174773.370
  21297779.668   -21573063.68249 -16787724.48147  21297779.184    21297787.393
  20565564.444   -27029521.89949 -21045398.23048  20565564.186    20565570.878
  24000383.326    -5597836.86949  -4080755.86545  24000382.871    24000395.707
 03  3 29  0 17 30.0000000  0  9G 3G26G14G15G17G 9G23G18G31
  22064210.706   -18777722.80649 -14603890.01147  22064210.535    22064220.202
  24331161.954    -6656991.87849  -4736044.56545  24331162.087    24331173.908
  22493065.042   -17875622.69149 -13630598.23546  22493064.725    22493074.799
  20252162.159   -30745159.68449 -23697530.30848  20252161.580    20252169.751
  21404259.475   -22725425.27149 -17688589.74747  21404258.980    21404268.321
  24163739.454    -7420348.21749  -5765107.76045  24163739.252    24163753.594
  21306014.314   -21529790.43949 -16754005.06147  21306013.804    21306022.005
  20570535.489   -27003398.93649 -21025042.66248  20570535.245    20570541.926
  23983660.167    -5685716.97049  -4149233.66245  23983659.698    23983672.527
 03  3 29  0 18  0.0000000  0  9G 3G26G14G15G17G 9G23G18G31
  22055191.779   -18825117.24549 -14640820.67747  22055191.599    22055201.237
  24351718.775    -6548964.41349  -4651867.29645  24351718.995    24351730.819
  22473991.840   -17975852.11349 -13708698.89246  22473991.520    22474001.559
  20250844.451   -30752084.11949 -23702925.94748  20250843.873    20250852.029
  21412458.114   -22682341.28849 -17655017.83447  21412457.614    21412466.960
  24152781.930    -7477929.65849  -5809976.19945  24152781.847    24152795.734
  21314281.047   -21486348.22049 -16720153.97647  21314280.551    21314288.773
  20575559.882   -26976995.60149 -21004468.62348  20575559.596    20575566.297
  23966999.553    -5773268.72049  -4217455.63745  23966999.142    23967011.809
 03  3 29  0 18 30.0000000  0  9G 3G26G14G15G17G 9G23G18G31
  22046268.851   -18872007.38449 -14677358.38047  22046268.646    22046278.256
  24372318.107    -6440714.38449  -4567516.64145  24372318.276    24372329.926
  22454969.791   -18075812.95549 -13786590.26346  22454969.469    22454979.466
  20249588.726   -30758683.08149 -23708067.97048  20249588.122    20249596.249
  21420713.766   -22638957.60849 -17621212.39347  21420713.269    21420722.629
  24141887.373    -7535180.22049  -5854586.78545  24141887.249    24141901.110
  21322579.756   -21442738.40849 -16686172.29747  21322579.236    21322587.446
  20580637.352   -26950313.31649 -20983677.22448  20580637.081    20580643.743
  23950401.804    -5860489.67249  -4285419.86545  23950401.313    23950414.076
 03  3 29  0 19  0.0000000  0  9G 3G26G14G15G17G 9G23G18G31
  22037442.264   -18918391.01449 -14713501.40447  22037442.077    22037451.654
  24392959.308    -6332244.40349  -4482994.61745  24392959.485    24392971.228
  22435999.414   -18175502.09349 -13864269.91846  22435999.111    22436009.038
  20248395.206   -30764955.01249 -23712955.16548  20248394.618    20248402.739
  21429026.673   -22595273.00149 -17587172.47347  21429026.194    21429035.532
  24131056.445    -7592096.21149  -5898936.70145  24131056.427    24131070.054
  21330910.093   -21398961.87549 -16652060.70847  21330909.639    21330917.844
  20585767.783   -26923352.83149 -20962669.04248  20585767.480    20585774.147
  23933867.655    -5947376.65649  -4353123.83845  23933867.198    23933879.751
 03  3 29  0 19 30.0000000  0  9G 3G26G14G15G17G 9G23G18G31
  22028712.270   -18964267.20949 -14749249.02047  22028712.070    22028721.632
  24413641.530    -6223558.20049  -4398304.10445  24413641.808    24413653.470
  22417081.131   -18274917.60049 -13941736.36046  22417080.828    22417090.713
  20247263.927   -30770899.88649 -23717587.50648  20247263.321    20247271.430
  21437396.798   -22551287.84349 -17552898.33847  21437396.309    21437405.635
  24120289.585    -7648675.52849  -5943024.27645  24120289.402    24120303.053
  21339271.833   -21355020.74749 -16617820.86947  21339271.320    21339279.536
  20590950.749   -26896116.02449 -20941445.54248  20590950.482    20590957.143
  23917397.516    -6033927.87649  -4420566.21145  23917397.031    23917409.308
 03  3 29  0 20  0.0000000  0  8G 3G14G15G17G 9G23G18G31
  22020079.355   -19009633.34349 -14784599.18447  22020079.146    22020088.695
  22398215.629   -18374055.91449 -14018986.80646  22398215.279    22398225.116
  20246195.314   -30776515.44149 -23721963.23448  20246194.721    20246202.813
  21445824.357   -22507000.85349 -17518389.02247  21445823.855    21445833.174
  24109587.410    -7704914.13949  -5986846.33845  24109587.310    24109601.213
  21347664.748   -21310915.53449 -16583453.17247  21347664.269    21347672.456
  20596186.193   -26868603.50249 -20920007.19848  20596185.927    20596192.579
  23900991.667    -6120139.81049  -4487744.17945  23900991.228    23901003.659
 03  3 29  0 20 30.0000000  0  8G 3G14G15G17G 9G23G18G31
  22011543.670   -19054488.33149 -14819551.06247  22011543.486    22011552.970
  22379403.286   -18472914.63749 -14096019.38746  22379402.962    22379412.752
  20245189.480   -30781800.98049 -23726081.81548  20245188.887    20245196.976
  21454309.381   -22462411.67549 -17483644.23747  21454308.921    21454318.269
  24098950.823    -7760809.40249  -6030400.89745  24098950.625    24098964.174
  21356088.607   -21266647.93749 -16548958.94847  21356088.118    21356096.305
  20601473.809   -26840816.83449 -20898355.24448  20601473.537    20601480.191
  23884651.210    -6206010.07649  -4554655.96045  23884650.730    23884662.714
 03  3 29  0 21  0.0000000  0  8G 3G14G15G17G 9G23G18G31
  22003105.455   -19098831.37649 -14854104.01647  22003105.248    22003114.718
  22360644.472   -18571492.09849 -14172832.81446  22360644.189    22360653.913
  20244246.519   -30786756.16249 -23729942.97148  20244245.920    20244254.011
  21462851.792   -22417521.36049 -17448664.80047  21462851.307    21462860.659
  24088379.959    -7816358.81449  -6073685.95245  24088379.922    24088393.335
  21364542.967   -21222219.89649 -16514339.70047  21364542.495    21364550.700
  20606813.223   -26812758.02849 -20876491.23448  20606812.960    20606819.610
  23868375.788    -6291536.91949  -4621300.10045  23868375.358    23868387.298
 03  3 29  0 21 30.0000000  0  8G 3G14G15G17G 9G23G18G31
  21994764.936   -19142660.78549 -14888256.73647  21994764.761    21994774.194
  22341939.803   -18669785.14449 -14249424.62346  22341939.498    22341949.213
  20243366.700   -30791379.57049 -23733545.61548  20243366.099    20243374.168
  21471451.734   -22372328.63249 -17413449.71847  21471451.224    21471460.568
  24077875.381    -7871559.32249  -6116699.12945  24077875.343    24077888.652
  21373027.647   -21177632.76949 -16479596.49247  21373027.121    21373035.326
  20612204.224   -26784428.05649 -20854415.93748  20612203.948    20612210.615
  23852166.146    -6376717.58749  -4687674.50245  23852165.720    23852177.732
 03  3 29  0 22  0.0000000  0  8G 3G14G15G17G 9G23G18G31
  21986522.526   -19185974.51249 -14922007.62947  21986522.357    21986531.769
  22323289.763   -18767790.87549 -14325792.54746  22323289.468    22323299.126
  20242550.323   -30795669.67749 -23736888.53848  20242549.714    20242557.788
  21480109.277   -22326832.89449 -17377998.51847  21480108.780    21480118.142
  24067438.106    -7926407.52749  -6159437.80845  24067438.030    24067451.262
  21381542.378   -21132887.53749 -16444730.08347  21381541.866    21381550.098
  20617646.651   -26755827.98149 -20832130.16748  20617646.360    20617653.007
  23836023.043    -6461548.90849  -4753776.69945  23836022.804    23836034.678
 03  3 29  0 22 30.0000000  0  8G 3G14G15G17G 9G23G18G31
  21978378.475   -19228771.50249 -14955355.87347  21978378.325    21978387.700
  22304694.784   -18865507.43549 -14401935.14946  22304694.442    22304704.104
  20241797.435   -30799625.93949 -23739971.32648  20241796.836    20241804.890
  21488824.479   -22281034.45649 -17342311.44547  21488823.977    21488833.348
  24057068.116    -7980900.83649  -6201899.96745  24057068.138    24057081.106
  21390086.923   -21087985.91749 -16409741.81347  21390086.371    21390094.626
  20623140.144   -26726959.55049 -20809635.29148  20623139.837    20623146.497
  23819946.926    -6546029.07549  -4819605.23545  23819946.694    23819958.703
 03  3 29  0 23  0.0000000  0  8G 3G14G15G17G 9G23G18G31
  21970332.978   -19271050.72749 -14988300.66147  21970332.825    21970342.179
  22286155.250   -18962932.51449 -14477850.61046  22286154.916    22286164.557
  20241108.278   -30803247.60949 -23742793.38848  20241107.673    20241115.725
  21497597.360   -22234932.86449 -17306388.14347  21497596.843    21497606.197
  24046766.377    -8035036.83349  -6244083.65445  24046766.162    24046779.450
  21398660.822   -21042929.55349 -16374632.95347  21398660.286    21398668.537
  20628684.429   -26697824.34449 -20786932.53248  20628684.109    20628690.747
  23803938.042    -6630155.72749  -4885158.34245  23803937.757    23803949.815
 03  3 29  0 23 30.0000000  0  8G 3G14G15G17G 9G23G18G31
  21962386.398   -19312809.98349 -15020840.28347  21962386.247    21962395.597
  22267671.881   -19060062.58949 -14553536.21346  22267671.502    22267681.112
  20240483.083   -30806532.86549 -23745353.31348  20240482.486    20240490.521
  21506428.106   -22188527.09649 -17270227.82347  21506427.580    21506436.949
  24036533.153    -8088811.68849  -6285986.01045  24036533.095    24036545.926
  21407264.081   -20997719.11149 -16339404.03947  21407263.580    21407271.815
  20634279.344   -26668422.85149 -20764022.27748  20634279.026    20634285.672
  23787997.127    -6713925.58949  -4950433.38645  23787996.633    23788008.729
 03  3 29  0 24  0.0000000  0  8G 3G14G15G17G 9G23G18G31
  21954539.008   -19354047.87149 -15052973.64647  21954538.849    21954548.195
  22249245.126   -19156895.22749 -14628990.04246  22249244.769    22249254.283
  20239922.129   -30809480.79549 -23747650.38748  20239921.524    20239929.544
  21515316.714   -22141817.15249 -17233830.48347  21515316.207    21515325.580
  24026369.110    -8142222.58749  -6327604.69945  24026369.001    24026382.205
  21415896.362   -20952356.16849 -16304056.29647  21415895.854    21415904.105
  20639924.613   -26638756.65749 -20740905.76748  20639924.318    20639930.964
  23772124.500    -6797336.30549  -5015428.59945  23772123.912    23772136.066
 03  3 29  0 24 30.0000000  0  8G 3G14G15G17G 9G23G18G31
  21946791.090   -19394763.29149 -15084699.89947  21946790.933    21946800.242
  22230875.429   -19253427.99349 -14704210.20946  22230875.086    22230884.567
  20239425.503   -30812090.36149 -23749683.79348  20239424.908    20239432.925
  21524263.402   -22094802.06849 -17197195.36447  21524262.913    21524272.252
  24016275.017    -8195266.55849  -6368937.49545  24016274.770    24016287.978
  21424557.430   -20906841.96049 -16268590.67547  21424556.938    21424565.166
  20645620.052   -26608826.89249 -20717583.86748  20645619.755    20645626.404
  23756320.462    -6880385.29949  -5080141.92145  23756320.042    23756332.195
 03  3 29  0 25  0.0000000  0  8G 3G14G15G17G 9G23G18G31
  21939142.875   -19434954.77349 -15116017.88047  21939142.718    21939152.016
  22212563.237   -19349658.63149 -14779194.94446  22212562.863    22212572.272
  20238993.373   -30814361.05749 -23751453.14948  20238992.807    20239000.832
  21533268.134   -22047482.16649 -17160322.72847  21533267.629    21533276.965
  24006251.283    -8247941.18449  -6409982.48345  24006250.999    24006264.260
  21433246.972   -20861178.21349 -16233008.54047  21433246.452    21433254.694
  20651365.329   -26578635.19949 -20694057.86648  20651365.037    20651371.682
  23740586.009    -6963070.40849  -5144571.72545  23740585.625    23740597.626
 03  3 29  0 25 30.0000000  0  8G 3G14G15G17G 9G23G18G31
  21931594.571   -19474621.06949 -15146926.63147  21931594.403    21931603.677
  22194309.028   -19445584.43049 -14853942.15546  22194308.700    22194318.033
  20238626.006   -30816291.49649 -23752957.36748  20238625.431    20238633.461
  21542330.885   -21999857.14649 -17123212.33847  21542330.385    21542339.752
  23996298.370    -8300243.28649  -6450737.17545  23996298.089    23996311.197
  21441964.727   -20815365.98649 -16197310.70847  21441964.207    21441972.462
  20657160.204   -26548182.91049 -20670328.79848  20657159.926    20657166.559
  23724921.103    -7045389.08449  -5208715.97545  23724920.680    23724932.891
 03  3 29  0 26  0.0000000  0  8G 3G14G15G17G 9G23G18G31
  21924146.449   -19513760.95549 -15177425.19647  21924146.290    21924155.556
  22176113.244   -19541203.19949 -14928450.11046  22176112.917    22176122.211
  20238323.564   -30817880.84649 -23754195.79948  20238322.981    20238330.992
  21551451.628   -21951927.08049 -17085864.24547  21551451.171    21551460.535
  23986416.830    -8352170.24349  -6491199.56845  23986416.730    23986429.694
  21450710.470   -20769406.75849 -16161498.33147  21450709.983    21450718.226
  20663004.431   -26517471.35149 -20646397.70548  20663004.130    20663010.784
  23709326.523    -7127338.88449  -5272572.79045  23709326.095    23709338.191
 03  3 29  0 26 30.0000000  0  8G 3G14G15G17G 9G23G18G31
  21916798.880   -19552372.57249 -15207512.11747  21916798.706    21916807.981
  22157976.506   -19636511.79849 -15002716.37446  22157976.142    22157985.415
  20238086.315   -30819127.51149 -23755167.20148  20238085.725    20238093.732
  21560630.721   -21903690.88849 -17048277.62747  21560630.246    21560639.585
  23976607.455    -8403718.34449  -6531366.74945  23976607.361    23976620.124
  21459484.061   -20723301.25349 -16125571.97147  21459483.579    21459491.823
  20668897.849   -26486501.20049 -20622265.10848  20668897.560    20668904.210
  23693802.617    -7208916.80649  -5336139.84545  23693802.222    23693814.271
 03  3 29  0 27  0.0000000  0  8G 3G14G15G17G 9G23G18G31
  21909551.892   -19590455.33949 -15237186.94947  21909551.723    21909560.991
  22139899.170   -19731508.10149 -15076739.28946  22139898.847    22139908.048
  20237914.400   -30820031.00149 -23755871.19348  20237913.804    20237921.806
  21569868.056   -21855148.59649 -17010452.48647  21569867.532    21569876.896
  23966870.501    -8454885.53949  -6571237.09045  23966870.371    23966883.247
  21468285.069   -20677051.40549 -16089533.13847  21468284.626    21468292.858
  20674840.048   -26455274.39649 -20597932.52848  20674839.796    20674846.430
  23678350.017    -7290120.92949  -5399415.64145  23678349.520    23678361.539
 03  3 29  0 27 30.0000000  0  8G 3G14G15G17G 9G23G18G31
  21902405.936   -19628007.43149 -15266448.26347  21902405.770    21902415.054
  22121881.794   -19826189.34149 -15150516.70846  22121881.470    22121890.639
  20237807.991   -30820590.03749 -23756306.78148  20237807.407    20237815.389
  21579163.630   -21806299.92749 -16972388.60447  21579163.156    21579172.536
  23957206.550    -8505668.90849  -6610808.35645  23957206.410    23957219.368
  21477113.370   -20630658.28749 -16053382.66347  21477112.924    21477121.181
  20680830.950   -26423792.08549 -20573400.84848  20680830.689    20680837.317
  23662968.874    -7370948.45649  -5462397.98445  23662968.428    23662980.358
 03  3 29  0 28  0.0000000  0  8G 3G14G15G17G 9G23G18G31
  21895361.198   -19665027.54149 -15295295.04947  21895361.047    21895370.311
  22103924.852   -19920552.92549 -15224046.60546  22103924.542    22103933.670
  20237767.360   -30820803.44849 -23756473.05548  20237766.776    20237774.753
  21588517.625   -21757144.22249 -16934085.47347  21588517.171    21588526.567
  23947616.420    -8556065.02449  -6650077.86045  23947616.241    23947629.250
  21485968.750   -20584123.00649 -16017121.41347  21485968.314    21485976.590
  20686870.278   -26392055.30549 -20548670.88948  20686869.978    20686876.646
  23647660.020    -7451396.68149  -5525084.78145  23647659.596    23647671.535
 03  3 29  0 28 30.0000000  0  8G 3G14G15G17G 9G23G18G31
  21888417.941   -19701514.45049 -15323726.35747  21888417.784    21888427.048
  22086028.769   -20014596.67249 -15297327.28246  22086028.501    22086037.542
  20237792.674   -30820670.47249 -23756369.42248  20237792.078    20237800.073
  21597930.139   -21707681.32549 -16895542.98447  21597929.674    21597939.070
  23938100.398    -8606071.27349  -6689043.58945  23938100.288    23938113.081
  21494850.937   -20537447.16949 -15980750.64047  21494850.445    21494858.712
  20692957.680   -26360065.74649 -20523743.96048  20692957.394    20692964.023
  23632423.669    -7531463.59549  -5587474.45645  23632423.244    23632435.130
 03  3 29  0 29  0.0000000  0  8G 3G14G15G17G 9G23G18G31
  21881576.304   -19737467.19249 -15351741.42747  21881576.120    21881585.376
  22068194.092   -20108317.97649 -15370356.70647  22068193.828    22068202.803
  20237884.041   -30820190.16649 -23755995.14148  20237883.455    20237891.415
  21607401.127   -21657911.31049 -16856761.17447  21607400.648    21607410.010
  23928658.944    -8655685.12749  -6727703.52745  23928658.874    23928671.616
  21503759.622   -20490631.96649 -15944271.26247  21503759.117    21503767.351
  20699093.019   -26327824.48549 -20498620.89648  20699092.706    20699099.361
  23617260.352    -7611146.66249  -5649565.02046  23617259.971    23617271.822
 03  3 29  0 29 30.0000000  0  8G 3G14G15G17G 9G23G18G31
  21874836.352   -19772885.61149 -15379340.13647  21874836.196    21874845.426
  22050420.993   -20201715.53149 -15443133.86147  22050420.732    22050429.684
  20238041.552   -30819362.31849 -23755350.05048  20238040.976    20238048.938
  21616930.402   -21607834.66949 -16817740.43147  21616929.931    21616939.309
  23919292.604    -8704904.85149  -6766056.33445  23919292.459    23919305.318
  21512694.286   -20443679.78149 -15907685.14447  21512693.812    21512702.039
  20705275.725   -26295334.09549 -20473303.70748  20705275.416    20705282.076
  23602170.354    -7690444.48249  -5711355.40345  23602170.018    23602181.814
 03  3 29  0 30  0.0000000  0  8G 3G14G15G17G 9G23G18G31
  21868198.676   -19807766.59049 -15406520.07347  21868198.512    21868207.749
  22032710.350   -20294785.11949 -15515655.46347  22032710.063    22032718.997
  20238265.722   -30818184.36349 -23754432.14548  20238265.141    20238273.093
  21626518.399   -21557449.39749 -16778479.19947  21626517.953    21626527.322
  23910002.187    -8753725.92849  -6804098.55345  23910002.050    23910014.669
  21521655.146   -20396590.16449 -15870991.93747  21521654.659    21521662.911
  20711505.954   -26262593.95549 -20447791.91048  20711505.663    20711512.313
  23587154.480    -7769352.94849  -5772842.38545  23587154.044    23587165.889
 03  3 29  0 30 30.0000000  0  8G 3G14G15G17G 9G23G18G31
  21861663.418   -19842109.48549 -15433280.71547  21861663.236    21861672.483
  22015062.550   -20387524.48349 -15587919.75147  22015062.260    22015071.146
  20238556.594   -30816655.73249 -23753240.99248  20238556.009    20238563.957
  21636165.099   -21506755.59349 -16738977.55447  21636164.655    21636174.026
  23900788.084    -8802145.82549  -6841828.15245  23900787.919    23900800.508
  21530641.866   -20349364.65549 -15834192.83847  21530641.377    21530649.647
  20717783.409   -26229605.63149 -20422086.71948  20717783.127    20717789.792
  23572213.085    -7847869.80749  -5834024.23145  23572212.637    23572224.525
 03  3 29  0 31  0.0000000  0  8G 3G14G15G17G 9G23G18G31
  21855230.677   -19875913.49049 -15459621.44947  21855230.499    21855239.747
  21997477.971   -20479931.33849 -15659924.94847  21997477.673    21997486.543
  20238914.395   -30814775.44549 -23751775.81948  20238913.802    20238921.727
  21645870.531   -21455753.18149 -16699235.43947  21645870.086    21645879.504
  23891650.812    -8850161.97449  -6879243.11645  23891650.685    23891663.395
  21539654.130   -20302004.74149 -15797289.01147  21539653.668    21539661.952
  20724107.825   -26196370.56649 -20396189.26448  20724107.529    20724114.186
  23557346.631    -7925992.89349  -5894899.23545  23557346.199    23557358.069
 03  3 29  0 31 30.0000000  0  8G 3G14G15G17G 9G23G18G31
  21848900.812   -19909177.03749 -15485541.04247  21848900.641    21848909.870
  21979957.149   -20572003.42649 -15731669.28347  21979956.833    21979965.675
  20239339.279   -30812542.45549 -23750035.81048  20239338.697    20239346.640
  21655634.682   -21404442.35549 -16659252.98947  21655634.216    21655643.621
  23882590.912    -8897771.34749  -6916341.13645  23882590.757    23882603.355
  21548691.856   -20254511.67849 -15760281.42547  21548691.361    21548699.619
  20730478.953   -26162890.12949 -20370100.60348  20730478.648    20730485.292
  23542555.588    -8003719.77849  -5955465.51945  23542555.139    23542567.003
 03  3 29  0 32  0.0000000  0  8G 3G14G15G17G 9G23G18G31
  21842673.933   -19941899.16749 -15511038.76147  21842673.781    21842682.989
  21962500.461   -20663738.17849 -15803150.76447  21962500.148    21962508.951
  20239831.509   -30809955.82049 -23748020.23048  20239830.917    20239838.847
  21665457.626   -21352822.40249 -16619029.66747  21665457.166    21665466.598
  23873608.812    -8944971.37549  -6953120.20245  23873608.734    23873621.289
  21557754.592   -20206886.64149 -15723171.00947  21557754.087    21557762.359
  20736896.568   -26129165.54349 -20343821.69948  20736896.245    20736902.906
  23527840.443    -8081047.91049  -6015721.07945  23527840.016    23527851.816
 03  3 29  0 32 30.0000000  0  8G 3G14G15G17G 9G23G18G31
  21836550.291   -19974079.13849 -15536114.01147  21836550.121    21836559.304
  21945108.448   -20755133.31149 -15874367.60347  21945108.108    21945116.906
  20240391.140   -30807014.79349 -23745728.50248  20240390.569    20240398.489
  21675339.440   -21300893.28849 -16578565.44547  21675338.975    21675348.397
  23864705.222    -8991759.66049  -6989578.39945  23864705.148    23864717.617
  21566842.137   -20159131.17649 -15685958.95947  21566841.676    21566849.900
  20743360.303   -26095198.18349 -20317353.61648  20743359.991    20743366.640
  23513201.563    -8157975.22249  -6075664.30545  23513201.140    23513212.860
 03  3 29  0 33  0.0000000  0  8G 3G14G15G17G 9G23G18G31
  21830530.004   -20005715.86549 -15560765.95347  21830529.829    21830538.989
  21927781.540   -20846186.23349 -15945317.79547  21927781.203    21927789.944
  20241018.429   -30803718.33949 -23743159.82248  20241017.845    20241025.772
  21685280.169   -21248654.54649 -16537859.96147  21685279.693    21685289.113
  23855880.562    -9038133.39149  -7025713.57045  23855880.338    23855892.829
  21575954.319   -20111246.21749 -15648646.00947  21575953.858    21575962.057
  20749870.045   -26060989.38849 -20290697.40948  20749869.734    20749876.390
  23498639.362    -8234499.22149  -6135293.24245  23498638.941    23498650.629
 03  3 29  0 33 30.0000000  0  8G 3G14G15G17G 9G23G18G31
  21824613.291   -20036808.11449 -15584993.62647  21824613.105    21824622.279
  21910520.156   -20936894.80049 -16015999.65347  21910519.853    21910528.547
  20241713.498   -30800065.59649 -23740313.51248  20241712.924    20241720.833
  21695279.797   -21196106.19949 -16496913.22247  21695279.331    21695288.739
  23847135.124    -9084089.85849  -7061523.61545  23847134.962    23847147.457
  21585090.956   -20063233.03549 -15611233.14747  21585090.493    21585098.680
  20756425.436   -26026540.47549 -20263854.09748  20756425.106    20756431.776
  23484154.454    -8310617.63149  -6194606.16245  23484154.070    23484165.583
 03  3 29  0 34  0.0000000  0  8G 3G14G15G17G 9G23G18G31
  21818800.432   -20067354.73849 -15608796.12947  21818800.259    21818809.393
  21893324.788   -21027256.33349 -16086411.09747  21893324.487    21893333.153
  20242476.643   -30796055.10849 -23737188.43648  20242476.065    20242483.973
  21705338.475   -21143247.66449 -16455724.77947  21705338.017    21705347.427
  23838469.615    -9129626.11449  -7097006.22445  23838469.471    23838481.977
  21594251.681   -20015092.78349 -15573721.25947  21594251.251    21594259.448
  20763026.313   -25991852.37649 -20236824.40248  20763026.046    20763032.684
  23469747.158    -8386327.73949  -6253600.90745  23469746.842    23469758.322
 03  3 29  0 34 30.0000000  0  8G 3G14G15G17G 9G23G18G31
  21813091.573   -20097354.81849 -15632172.76147  21813091.411    21813100.499
  21876195.872   -21117268.73249 -16156550.49347  21876195.585    21876204.225
  20243308.043   -30791686.07549 -23733783.97848  20243307.470    20243315.396
  21715456.109   -21090079.04449 -16414294.71947  21715455.653    21715465.080
  23829884.710    -9174739.49649  -7132159.32945  23829884.595    23829897.073
  21603436.425   -19966826.79449 -15536111.40047  21603435.972    21603444.154
  20769672.486   -25956926.38949 -20209609.34448  20769672.235    20769678.872
  23455417.977    -8461627.36149  -6312275.80645  23455417.652    23455429.034
 03  3 29  0 35  0.0000000  0  8G 3G14G15G17G 9G23G18G31
  21807486.867   -20126807.70549 -15655122.99847  21807486.691    21807495.764
  21859133.925   -21206929.49549 -16226415.88347  21859133.617    21859142.235
  20244207.777   -30786957.91649 -23730099.68048  20244207.197    20244215.095
  21725632.761   -21036600.49949 -16372623.15747  21725632.288    21725641.769
  23821380.686    -9219427.36949  -7166980.86745  23821380.592    23821393.031
  21612644.804   -19918436.31749 -15498404.53347  21612644.358    21612652.594
  20776363.667   -25921763.97049 -20182210.05648  20776363.413    20776370.044
  23441167.367    -8536514.27649  -6370629.09845  23441166.998    23441178.329
 03  3 29  0 35 30.0000000  0  8G 3G14G15G17G 9G23G18G31
  21801986.471   -20155712.32049 -15677646.00647  21801986.309    21801995.352
  21842139.310   -21296236.24349 -16296005.41947  21842139.002    21842147.560
  20245176.063   -30781869.60449 -23726134.73648  20245175.457    20245183.378
  21735868.512   -20982811.39749 -16330709.60747  21735868.032    21735877.508
  23812958.225    -9263687.41649  -7201469.05245  23812958.033    23812970.392
  21621876.664   -19869922.50749 -15460601.56547  21621876.236    21621884.477
  20783099.604   -25886366.58049 -20154627.66548  20783099.340    20783105.955
  23426995.723    -8610986.10849  -6428658.97245  23426995.369    23427006.703
 03  3 29  0 36  0.0000000  0  8G 3G14G15G17G 9G23G18G31
  21796590.587   -20184067.50849 -15699740.89547  21796590.415    21796599.453
  21825212.577   -21385186.41849 -16365317.10947  21825212.260    21825220.758
  20246213.089   -30776419.92749 -23721888.21948  20246212.489    20246220.390
  21746163.344   -20928711.69049 -16288554.03047  21746162.865    21746172.374
  23804617.592    -9307516.78949  -7235621.65745  23804617.446    23804629.778
  21631131.823   -19821286.45049 -15422703.35547  21631131.359    21631139.624
  20789880.064   -25850735.03549 -20126862.82748  20789879.776    20789886.401
  23412903.526    -8685040.53049  -6486363.58145  23412903.145    23412914.488
 03  3 29  0 36 30.0000000  0  8G 3G14G15G17G 9G23G18G31
  21791299.376   -20211872.74549 -15721407.24547  21791299.217    21791308.243
  21808354.018   -21473777.96449 -16434349.34747  21808353.721    21808362.188
  20247318.986   -30770608.33849 -23717359.68648  20247318.373    20247326.276
  21756517.321   -20874301.43049 -16246156.45847  21756516.827    21756526.364
  23796359.532    -9350912.93749  -7269436.69745  23796359.323    23796371.559
  21640409.954   -19772529.56849 -15384710.97847  21640409.496    21640417.761
  20796704.711   -25814871.11049 -20098916.90548  20796704.451    20796711.059
  23398891.190    -8758675.30949  -6543741.19845  23398890.795    23398902.107
 03  3 29  0 37  0.0000000  0  8G 3G14G15G17G 9G23G18G31
  21786113.020   -20239126.89149 -15742644.18947  21786112.848    21786121.887
  21791564.216   -21562008.57649 -16503100.34547  21791563.924    21791572.354
  20248493.981   -30764433.62949 -23712548.20548  20248493.370    20248501.276
  21766930.419   -20819580.37649 -16203516.71747  21766929.928    21766939.446
  23788184.387    -9393873.31549  -7302912.15745  23788184.143    23788196.335
  21649710.906   -19723652.76849 -15346625.17747  21649710.427    21649718.723
  20803573.464   -25778775.66749 -20070790.58848  20803573.186    20803579.793
  23384959.240    -8831888.02749  -6600789.95045  23384958.811    23384970.038
 03  3 29  0 37 30.0000000  0  8G 3G14G15G17G 9G23G18G31
  21781031.746   -20265828.98749 -15763450.95647  21781031.576    21781040.579
  21774843.578   -21649875.69849 -16571568.09347  21774843.280    21774851.679
  20249738.218   -30757894.87749 -23707453.05248  20249737.628    20249745.534
  21777402.665   -20764548.50349 -16160634.76447  21777402.188    21777411.705
  23780092.526    -9436395.26149  -7336046.00245  23780092.364    23780104.620
  21659034.399   -19674657.28149 -15308446.87747  21659033.963    21659042.264
  20810486.019   -25742450.01549 -20042484.88248  20810485.721    20810492.332
  23371107.995    -8904676.33049  -6657507.98945  23371107.609    23371118.806
 03  3 29  0 38  0.0000000  0  8G 3G14G15G17G 9G23G18G31
  21776055.660   -20291978.27249 -15783826.97247  21776055.481    21776064.483
  21758192.426   -21737377.35849 -16639751.08147  21758192.137    21758200.505
  20251051.915   -30750991.25949 -23702073.59648  20251051.319    20251059.215
  21787934.079   -20709205.76149 -16117510.58747  21787933.577    21787943.133
  23772084.735    -9478476.22649  -7368836.20645  23772084.488    23772096.740
  21668380.269   -19625544.34149 -15270177.05847  21668379.843    21668388.115
  20817442.109   -25705895.44149 -20014000.80148  20817441.815    20817448.420
  23357337.930    -8977038.06349  -6713893.64145  23357337.492    23357348.690
 03  3 29  0 38 30.0000000  0  8G 3G14G15G17G 9G23G18G31
  21771184.983   -20317573.64049 -15803771.36347  21771184.822    21771193.809
  21741611.420   -21824510.70249 -16707647.06447  21741611.116    21741619.467
  20252435.245   -30743721.66349 -23696408.96048  20252434.681    20252442.551
  21798524.767   -20653551.59149 -16074143.73847  21798524.226    21798533.783
  23764161.210    -9520113.70949  -7401280.87045  23764161.034    23764173.226
  21677748.329   -19576314.90449 -15231816.46347  21677747.908    21677756.197
  20824441.646   -25669112.73849 -19985338.95048  20824441.349    20824447.954
  23343649.622    -9048970.73449  -6769944.96545  23343649.128    23343660.198
 03  3 29  0 39  0.0000000  0  8G 3G14G15G17G 9G23G18G31
  21766419.830   -20342614.48249 -15823283.66747  21766419.661    21766428.621
  21725100.852   -21911273.76049 -16775254.51147  21725100.566    21725108.841
  20253888.384   -30736085.30749 -23690458.53848  20253887.825    20253895.695
  21809174.676   -20597585.90849 -16030534.15347  21809174.163    21809183.732
  23756322.934    -9561305.10949  -7433377.91545  23756322.591    23756334.628
  21687138.282   -19526970.24049 -15193366.08647  21687137.917    21687146.176
  20831484.279   -25632103.58149 -19956500.64548  20831483.954    20831490.559
  23330043.287    -9120472.18849  -6825660.28745  23330042.817    23330053.842
 03  3 29  0 39 30.0000000  0  8G 3G14G15G17G 9G23G18G31
  21761760.353   -20367099.95049 -15842363.21247  21761760.197    21761769.130
  21708661.215   -21997664.10949 -16842571.54247  21708660.927    21708669.170
  20255411.470   -30728081.36049 -23684221.68248  20255410.921    20255418.800
  21819883.868   -20541308.91849 -15986681.98147  21819883.349    21819892.971
  23748569.659    -9602047.71549  -7465125.24745  23748569.448    23748581.231
  21696549.978   -19477511.40649 -15154826.74647  21696549.611    21696557.836
  20838569.767   -25594868.99549 -19927486.68448  20838569.469    20838576.089
  23316519.426    -9191540.03249  -6881037.72046  23316519.029    23316529.985
 03  3 29  0 40  0.0000000  0  8G 3G14G15G17G 9G23G18G31
  21757206.661   -20391029.59449 -15861009.65847  21757206.479    21757215.411
  21692292.925   -22083679.68249 -16909596.54047  21692292.619    21692300.838
  20257004.668   -30719708.91149 -23677697.68348  20257004.118    20257011.997
  21830652.338   -20484720.35749 -15942587.03447  21830651.834    21830661.443
  23740902.253    -9642339.39649  -7496521.23145  23740902.096    23740913.889
  21705983.169   -19427939.82449 -15116199.54547  21705982.791    21705991.036
  20845697.833   -25557410.45249 -19898298.21448  20845697.574    20845704.188
  23303078.509    -9262172.34049  -6936075.79246  23303078.125    23303089.065
 03  3 29  0 40 30.0000000  0  8G 3G14G15G17G 9G23G18G31
  21752758.985   -20414402.14549 -15879222.00147  21752758.829    21752767.723
  21675996.454   -22169317.75749 -16976327.38147  21675996.150    21676004.320
  20258668.301   -30710966.47549 -23670885.37748  20258667.746    20258675.611
  21841480.218   -20427819.55649 -15898248.77347  21841479.718    21841489.321
  23733321.224    -9682177.15449  -7527563.51445  23733321.094    23733332.946
  21715437.713   -19378255.83449 -15077484.75347  21715437.326    21715445.604
  20852868.472   -25519728.73549 -19868935.83248  20852868.210    20852874.796
  23289720.960    -9332366.29149  -6990772.28646  23289720.582    23289731.475
 03  3 29  0 41  0.0000000  0  8G 3G14G15G17G 9G23G18G31
  21748417.350   -20437217.44049 -15897000.12547  21748417.184    21748426.086
  21659772.139   -22254576.52149 -17042762.66047  21659771.842    21659779.991
  20260402.372   -30701853.84549 -23663784.61148  20260401.806    20260409.666
  21852367.416   -20370606.86249 -15853667.47747  21852366.941    21852376.588
  23725827.186    -9721559.03149  -7558250.54145  23725826.922    23725838.622
  21724913.379   -19328461.07549 -15038683.64947  21724912.976    21724921.237
  20860081.180   -25481825.53449 -19839400.86848  20860080.907    20860087.517
  23276447.079    -9402120.24349  -7045125.91846  23276446.701    23276457.624
 03  3 29  0 41 30.0000000  0  8G 3G14G15G17G 9G23G18G31
  21744181.937   -20459474.59649 -15914343.33847  21744181.766    21744190.662
  21643620.525   -22339453.30149 -17108900.29147  21643620.234    21643628.345
  20262207.136   -30692369.62649 -23656394.30048  20262206.566    20262214.435
  21863314.026   -20313082.31149 -15808843.18547  21863313.533    21863323.196
  23718420.190    -9760482.24849  -7588580.19745  23718419.960    23718431.569
  21734409.870   -19278556.61349 -14999797.06247  21734409.491    21734417.715
  20867335.931   -25443701.69549 -19809693.97648  20867335.634    20867342.256
  23263257.536    -9471431.67649  -7099134.71846  23263257.123    23263268.104
 03  3 29  0 42  0.0000000  0  8G 3G14G15G17G 9G23G18G31
  21740052.920   -20481172.56549 -15931250.82047  21740052.755    21740061.635
  21627542.070   -22423945.65449 -17174738.36747  21627541.775    21627549.866
  20264082.818   -30682512.76649 -23648713.61748  20264082.258    20264090.124
  21874320.037   -20255245.44849 -15763775.52746  21874319.544    21874329.240
  23711100.706    -9798944.00049  -7618550.27245  23711100.737    23711112.401
  21743927.214   -19228543.04849 -14960825.44747  21743926.783    21743935.009
  20874632.490   -25405357.86549 -19779815.65548  20874632.213    20874638.839
  23250152.612    -9540297.97949  -7152796.66146  23250152.195    23250163.151
 03  3 29  0 42 30.0000000  0  8G 3G14G15G17G 9G23G18G31
  21736030.380   -20502310.99649 -15947722.29647  21736030.199    21736039.092
  21611537.096   -22508051.74649 -17240275.46847  21611536.805    21611544.860
  20266029.491   -30672282.98349 -23640742.34648  20266028.900    20266036.776
  21885385.448   -20197096.41249 -15718464.62546  21885384.953    21885394.653
  23703869.880    -9836942.38749  -7648159.27145  23703869.842    23703881.474
  21753464.940   -19178421.87749 -14921769.98447  21753464.510    21753472.712
  20881970.585   -25366796.03349 -19749767.46548  20881970.293    20881976.928
  23237132.763    -9608717.35749  -7206110.36846  23237132.328    23237143.309
 03  3 29  0 43  0.0000000  0  8G 3G14G15G17G 9G23G18G31
  21732114.347   -20522889.76049 -15963757.66647  21732114.170    21732123.051
  21595605.931   -22591770.02949 -17305510.38247  21595605.633    21595613.665
  20268047.226   -30661679.66549 -23632480.00748  20268046.653    20268054.532
  21896510.204   -20138635.64649 -15672910.81646  21896509.712    21896519.432
  23696727.805    -9874475.28249  -7677405.53745  23696727.497    23696739.068
  21763022.908   -19128194.62049 -14882631.86247  21763022.443    21763030.637
  20889349.887   -25328017.52449 -19719550.44148  20889349.604    20889356.232
  23224198.301    -9676688.13849  -7259074.48546  23224197.873    23224208.841
 03  3 29  0 43 30.0000000  0  8G 3G14G15G17G 9G23G18G31
  21728304.944   -20542908.15049 -15979356.37747  21728304.768    21728313.631
  21579749.071   -22675097.97349 -17370441.12947  21579748.761    21579756.776
  20270136.239   -30650701.83849 -23623925.84248  20270135.647    20270143.527
  21907694.329   -20079862.69849 -15627113.75446  21907693.839    21907703.563
  23689674.483    -9911540.19149  -7706287.13845  23689674.150    23689685.719
  21772600.867   -19077862.11449 -14843411.72347  21772600.422    21772608.582
  20896770.108   -25289023.72949 -19689165.65448  20896769.837    20896776.462
  23211349.548    -9744208.05349  -7311687.27046  23211349.157    23211360.123
 03  3 29  0 44  0.0000000  0  8G 3G14G15G17G 9G23G18G31
  21724602.406   -20562364.98949 -15994517.53147  21724602.241    21724611.089
  21563967.012   -22758032.90049 -17435065.63347  21563966.687    21563974.681
  20272296.741   -30639348.29949 -23615078.91948  20272296.131    20272304.012
  21918937.884   -20020777.63349 -15581073.48246  21918937.405    21918947.101
  23682710.788    -9948134.33249  -7734801.95545  23682710.521    23682721.976
  21782198.715   -19027424.98549 -14804110.05947  21782198.268    21782206.440
  20904231.254   -25249815.24049 -19658613.57548  20904231.002    20904237.595
  23198587.155    -9811274.51349  -7363946.72646  23198586.753    23198597.680
 03  3 29  0 44 30.0000000  0  8G 3G14G15G17G 9G23G18G31
  21721006.811   -20581259.74249 -16009240.68747  21721006.650    21721015.502
  21548260.107   -22840572.74349 -17499382.28947  21548259.780    21548267.769
  20274528.923   -30627618.09149 -23605938.48248  20274528.326    20274536.210
  21930240.806   -19961380.33649 -15534789.90746  21930240.340    21930250.004
  23675836.982    -9984255.30549  -7762948.02445  23675836.779    23675848.228
  21791816.292   -18976884.44849 -14764727.82147  21791815.830    21791823.987
  20911733.040   -25210393.06549 -19627894.98847  20911732.749    20911739.375
  23185911.482    -9877885.20449  -7415851.03846  23185911.098    23185921.998
 03  3 29  0 45  0.0000000  0  8G 3G14G15G17G 9G23G18G31
  21717518.284   -20599592.12049 -16023525.63347  21717518.125    21717526.970
  21532628.809   -22922715.32749 -17563389.38847  21532628.521    21532636.458
  20276832.913   -30615510.33349 -23596503.85348  20276832.331    20276840.219
  21941603.208   -19901670.70249 -15488262.96246  21941602.725    21941612.440
  23669053.865   -10019900.90449  -7790723.71545  23669053.585    23669064.945
  21801453.329   -18926241.53749 -14725265.81147  21801452.858    21801461.000
  20919275.254   -25170758.29549 -19597010.74147  20919274.977    20919281.615
  23173322.878    -9944038.27049  -7467398.74546  23173322.483    23173333.374
 03  3 29  0 45 30.0000000  0  8G 3G14G15G17G 9G23G18G31
  21714136.788   -20617361.73649 -16037372.06247  21714136.626    21714145.476
  21517073.491   -23004458.57849 -17627085.32247  21517073.190    21517081.135
  20279208.887   -30603024.45549 -23586774.58648  20279208.306    20279216.180
  21953025.096   -19841648.44749 -15441492.41646  21953024.647    21953034.318
  23662361.407   -10055069.12549  -7818127.36545  23662361.149    23662372.583
  21811109.576   -18875497.50949 -14685725.00747  21811109.093    21811117.246
  20926857.609   -25130912.67549 -19565962.19747  20926857.338    20926863.976
  23160821.740   -10009731.62449  -7518588.25146  23160821.367    23160832.186
 03  3 29  0 46  0.0000000  0  8G 3G14G15G17G 9G23G18G31
  21710862.653   -20634567.45949 -16050779.08547  21710862.493    21710871.301
  21501594.581   -23085800.26549 -17690468.34147  21501594.286    21501602.197
  20281657.052   -30590159.38349 -23576749.84348  20281656.471    20281664.343
  21964506.315   -19781314.07349 -15394478.66046  21964505.889    21964515.589
  23655760.308   -10089757.16649  -7845156.90545  23655760.138    23655771.564
  21820784.955   -18824653.13649 -14646106.01147  21820784.455    21820792.634
  20934480.000   -25090856.94449 -19534749.93247  20934479.721    20934486.365
  23148408.517   -10074962.94649  -7569417.72546  23148408.121    23148419.021
 03  3 29  0 46 30.0000000  0  8G 3G14G15G17G 9G23G18G31
  21707695.820   -20651209.27349 -16063746.69947  21707695.645    21707704.466
  21486192.521   -23166738.21749 -17753536.76747  21486192.229    21486200.131
  20284177.436   -30576914.49349 -23566429.13848  20284176.847    20284184.730
  21976046.991   -19720667.62849 -15347221.72046  21976046.540    21976056.283
  23649250.899   -10123963.15349  -7871810.78345  23649250.875    23649262.222
  21830479.206   -18773709.48149 -14606409.65947  21830478.714    21830486.877
  20942142.073   -25050592.49249 -19503375.02847  20942141.777    20942148.414
  23136083.563   -10139730.37149  -7619885.72746  23136083.203    23136094.020
 03  3 29  0 47  0.0000000  0  8G 3G14G15G17G 9G23G18G31
  21704636.375   -20667286.56549 -16076274.42547  21704636.183    21704644.996
  21470867.730   -23247270.22249 -17816288.87247  21470867.418    21470875.307
  20286770.287   -30563288.81549 -23555811.71448  20286769.732    20286777.606
  21987647.216   -19659708.28449 -15299720.97746  21987646.759    21987656.500
  23642833.859   -10157684.51949  -7898087.03345  23642833.867    23642845.041
  21840192.189   -18722667.39149 -14566636.59847  21840191.710    21840199.893
  20949843.668   -25010120.32349 -19471838.26247  20949843.365    20949849.989
  23123847.413   -10204031.46749  -7669990.35546  23123847.034    23123857.781
 03  3 29  0 47 30.0000000  0  8G 3G14G15G17G 9G23G18G31
  21701684.349   -20682799.50549 -16088362.39547  21701684.167    21701692.956
  21455620.459   -23327394.87149 -17878723.55547  21455620.134    21455628.002
  20289435.639   -30549282.44849 -23544897.65148  20289435.056    20289442.922
  21999306.833   -19598436.81349 -15251977.02046  21999306.357    21999316.116
  23636509.388   -10190919.43249  -7923984.24045  23636509.315    23636520.558
  21849923.619   -18671528.43649 -14526788.06447  21849923.143    21849931.341
  20957584.450   -24969442.04149 -19440140.89747  20957584.157    20957590.784
  23111700.187   -10267864.91249  -7719730.57746  23111699.863    23111710.572
 03  3 29  0 48  0.0000000  0  8G 3G14G15G17G 9G23G18G31
  21698839.787   -20697747.47449 -16100010.12747  21698839.626    21698848.415
  21440451.131   -23407109.75549 -17940838.94547  21440450.825    21440458.643
  20292173.602   -30534894.11649 -23533685.95348  20292173.031    20292180.900
  22011025.738   -19536853.69549 -15203990.21346  22011025.264    22011035.032
  23630277.752   -10223665.64049  -7949500.62745  23630277.719    23630288.978
  21859673.278   -18620293.52049 -14486864.75747  21859672.833    21859681.065
  20965364.280   -24928558.57849 -19408283.64647  20965364.021    20965370.644
  23099642.442   -10331228.51149  -7769104.69346  23099642.052    23099652.732
 03  3 29  0 48 30.0000000  0  8G 3G14G15G17G 9G23G18G31
  21696102.819   -20712130.20149 -16111217.41247  21696102.641    21696111.447
  21425360.166   -23486412.94849 -18002633.53747  21425359.852    21425367.632
  20294984.473   -30520123.01449 -23522175.99448  20294983.905    20294991.743
  22022804.015   -19474958.63349 -15155760.34346  22022803.530    22022813.297
  23624139.847   -10255921.00749  -7974634.55245  23624139.718    23624150.922
  21869441.086   -18568963.66449 -14446867.47447  21869440.601    21869448.839
  20973182.950   -24887471.18149 -19376267.49147  20973182.698    20973189.333
  23087674.444   -10394120.26049  -7818111.13246  23087674.046    23087684.692
 03  3 29  0 49  0.0000000  0  8G 3G14G15G17G 9G23G18G31
  21693473.516   -20725947.09149 -16121983.78447  21693473.331    21693482.135
  21410347.989   -23565302.01149 -18064105.43147  21410347.685    21410355.433
  20297868.308   -30504968.13449 -23510366.98948  20297867.759    20297875.586
  22034641.711   -19412751.29849 -15107287.14546  22034641.235    22034651.033
  23618095.500   -10287683.16449  -7999384.14845  23618095.363    23618106.681
  21879226.778   -18517539.54349 -14406796.74647  21879226.287    21879234.506
  20981040.321   -24846180.63349 -19344093.03847  20981040.038    20981046.667
  23075796.653   -10456537.85249  -7866748.10246  23075796.288    23075806.877
 03  3 29  0 49 30.0000000  0  8G 3G14G15G17G 9G23G18G31
  21690951.994   -20739197.64449 -16132308.84947  21690951.817    21690960.599
  21395415.000   -23643774.92249 -18125253.05347  21395414.693    21395422.422
  20300825.426   -30489428.43349 -23498258.12448  20300824.871    20300832.716
  22046538.764   -19350231.84249 -15058570.72646  22046538.299    22046548.111
  23612145.552   -10318949.67849  -8023747.53445  23612145.452    23612156.673
  21889030.187   -18466022.07449 -14366653.28147  21889029.720    21889037.944
  20988936.068   -24804688.08249 -19311761.18447  20988935.792    20988942.437
  23064009.518   -10518479.09549  -7915013.85846  23064009.129    23064019.787
 03  3 29  0 50  0.0000000  0  8G 3G14G15G17G 9G23G18G31
  21688538.245   -20751881.82149 -16142192.57947  21688538.068    21688546.863
  21380561.577   -23721829.85949 -18186074.97747  21380561.266    21380568.953
  20303855.786   -30473503.71449 -23485849.24248  20303855.234    20303863.062
  22058495.188   -19287400.57949 -15009611.35146  22058494.702    22058504.554
  23606290.368   -10349718.58749  -8047723.18345  23606290.234    23606301.474
  21898851.212   -18414412.33949 -14326437.91247  21898850.731    21898858.952
  20996870.037   -24762994.91849 -19279273.00147  20996869.760    20996876.386
  23052313.414   -10579942.22949  -7962907.10046  23052313.016    23052323.551
 03  3 29  0 50 30.0000000  0  8G 3G14G15G17G 9G23G18G31
  21686232.295   -20763999.50149 -16151634.88747  21686232.104    21686240.900
  21365788.059   -23799464.77049 -18246569.61147  21365787.743    21365795.400
  20306959.584   -30457193.19249 -23473139.73148  20306959.015    20306966.852
  22070510.841   -19224258.07549 -14960409.44146  22070510.383    22070520.201
  23600530.162   -10379987.96249  -8071309.59545  23600530.073    23600541.200
  21908689.637   -18362711.38549 -14286151.47747  21908689.120    21908697.342
  21004841.944   -24721102.28349 -19246629.39847  21004841.681    21004848.281
  23040708.544   -10640925.47349  -8010426.37046  23040708.229    23040718.693
 03  3 29  0 51  0.0000000  0  8G 3G14G15G17G 9G23G18G31
  21684034.271   -20775550.04249 -16160635.28347  21684034.096    21684042.858
  21351094.955   -23876677.34949 -18306735.16047  21351094.635    21351102.262
  20310137.003   -30440495.74649 -23460128.73048  20310136.455    20310144.255
  22082585.961   -19160803.36349 -14910964.26946  22082585.444    22082595.246
  23594865.483   -10409755.50649  -8094504.96545  23594865.425    23594876.524
  21918545.230   -18310919.92949 -14245794.51747  21918544.707    21918552.915
  21012851.632   -24679011.13449 -19213831.10047  21012851.356    21012857.966
  23029195.508   -10701426.58749  -8057569.97346  23029195.180    23029205.621
 03  3 29  0 51 30.0000000  0  8G 3G14G15G17G 9G23G18G31
  21681944.144   -20786533.77349 -16169193.99947  21681943.953    21681952.701
  21336482.446   -23953466.09149 -18366570.44147  21336482.121    21336489.735
  20313388.122   -30423411.04149 -23446815.95948  20313387.544    20313395.355
  22094720.310   -19097037.05149 -14861276.27346  22094719.833    22094729.646
  23589296.692   -10439019.63249  -8117308.07545  23589296.520    23589307.712
  21928417.783   -18259039.23549 -14205368.00747  21928417.293    21928425.484
  21020898.786   -24636722.92149 -19180879.24947  21020898.525    21020905.177
  23017774.480   -10761444.08649  -8104336.71246  23017774.107    23017784.509
 03  3 29  0 52  0.0000000  0  8G 3G14G15G17G 9G23G18G31
  21679961.982   -20796949.89249 -16177310.42147  21679961.815    21679970.555
  21321951.085   -24029828.60049 -18426073.59847  21321950.781    21321958.332
  20316713.134   -30405937.92049 -23433200.53048  20316712.573    20316720.374
  22106913.950   -19032959.20449 -14811345.54946  22106913.472    22106923.298
  23583824.025   -10467777.63649  -8139716.78445  23583823.909    23583835.086
  21938307.229   -18207069.87849 -14164872.42247  21938306.746    21938314.940
  21028983.402   -24594237.99249 -19147774.11847  21028983.118    21028989.763
  23006445.928   -10820975.51249  -8150724.69846  23006445.530    23006455.959
 03  3 29  0 52 30.0000000  0  8G 3G14G15G17G 9G23G18G31
  21678087.899   -20806798.17449 -16184984.36247  21678087.712    21678096.448
  21307501.202   -24105762.91349 -18485243.09447  21307500.894    21307508.423
  20320112.202   -30388075.78949 -23419281.97548  20320111.629    20320119.432
  22119166.830   -18968570.13349 -14761172.29546  22119166.390    22119176.162
  23578448.195   -10496027.57349  -8161729.60845  23578448.090    23578459.207
  21948213.313   -18155012.73849 -14124308.42347  21948212.848    21948221.073
  21037105.171   -24551557.64049 -19114516.70247  21037104.925    21037111.544
  22995210.296   -10880018.93249  -8196732.42046  22995209.917    22995220.230
 03  3 29  0 53  0.0000000  0  8G 3G14G15G17G 9G23G18G31
  21676321.767   -20816079.14149 -16192216.25247  21676321.595    21676330.313
  21293133.027   -24181267.67249 -18544077.86947  21293132.711    21293140.209
  20323585.285   -30369824.54149 -23405060.20748  20323584.705    20323592.497
  22131478.958   -18903869.75049 -14710756.45946  22131478.496    22131488.310
  23573169.292   -10523767.84149  -8183345.31245  23573169.124    23573180.298
  21958135.879   -18102869.39749 -14083677.26347  21958135.419    21958143.666
  21045263.806   -24508683.68649 -19081108.43247  21045263.537    21045270.170
  22984067.686   -10938573.06149  -8242358.89846  22984067.312    22984077.593
 03  3 29  0 53 30.0000000  0  8G 3G14G15G17G 9G23G18G31
  21674663.737   -20824791.96249 -16199005.42947  21674663.573    21674672.290
  21278847.139   -24256340.17849 -18602575.83447  21278846.831    21278854.294
  20327132.712   -30351182.70949 -23390534.09848  20327132.139    20327139.922
  22143850.256   -18838858.28949 -14660098.22646  22143849.792    22143859.622
  23567987.836   -10550996.03749  -8204561.98345  23567987.762    23567998.779
  21968074.814   -18050640.08549 -14042979.11847  21968074.319    21968082.597
  21053459.206   -24465616.39949 -19047549.52047  21053458.984    21053465.607
  22973018.722   -10996635.52149  -8287602.26246  22973018.290    22973028.486
 03  3 29  0 54  0.0000000  0  8G 3G14G15G17G 9G23G18G31
  21673113.809   -20832936.75949 -16205351.99347  21673113.656    21673122.347
  21264643.790   -24330978.80649 -18660735.70047  21264643.464    21264650.921
  20330754.541   -30332149.76649 -23375703.21548  20330753.982    20330761.746
  22156280.720   -18773535.78149 -14609197.63046  22156280.276    22156290.155
  23562904.274   -10577710.28249  -8225378.16945  23562904.171    23562915.185
  21978029.912   -17998325.89549 -14002214.82247  21978029.397    21978037.678
  21061691.184   -24422357.22049 -19013841.06947  21061690.915    21061697.561
  22962063.572   -11054204.48649  -8332461.06646  22962063.175    22962073.390
 03  3 29  0 54 30.0000000  0  8G 3G14G15G17G 9G23G18G31
  21671671.938   -20840513.61749 -16211256.01147  21671671.774    21671680.461
  21250523.409   -24405181.44349 -18718555.84547  21250523.089    21250530.522
  20334450.930   -30312724.97349 -23360567.00148  20334450.353    20334458.128
  22168770.416   -18707902.21149 -14558054.64446  22168769.959    22168779.851
  23557918.814   -10603908.43949  -8245792.24445  23557918.712    23557929.664
  21988000.948   -17945927.50449 -13961384.92647  21988000.484    21988008.764
  21069959.513   -24378907.00449 -18979983.76147  21069959.241    21069965.891
  22951202.752   -11111277.96649  -8376933.80546  22951202.384    22951212.562
 03  3 29  0 55  0.0000000  0  8G 3G14G15G17G 9G23G18G31
  21670338.204   -20847522.33749 -16216717.31747  21670338.027    21670346.698
  21236486.318   -24478946.51949 -18776035.02647  21236486.017    21236493.424
  20338221.996   -30292907.79249 -23345125.03048  20338221.432    20338229.194
  22181319.178   -18641958.27849 -14506669.81746  22181318.673    22181328.617
  23553031.949   -10629588.81249  -8265802.81445  23553031.756    23553042.705
  21997987.865   -17893446.02949 -13920490.27847  21997987.380    21997995.620
  21078263.995   -24335266.84049 -18945978.43947  21078263.702    21078270.328
  22940436.518   -11167854.37949  -8421019.21646  22940436.166    22940446.269
 03  3 29  0 55 30.0000000  0  8G 3G14G15G17G 9G23G18G31
  21669112.554   -20853963.03749 -16221736.02047  21669112.376    21669121.039
  21222532.879   -24552272.00049 -18833171.66947  21222532.557    21222539.951
  20342067.897   -30272697.46849 -23329376.71648  20342067.330    20342075.091
  22193926.989   -18575704.19349 -14455043.31846  22193926.514    22193936.402
  23548243.853   -10654749.48749  -8285408.44745  23548243.770    23548254.724
  22007990.456   -17840882.16649 -13879531.43047  22007989.976    22007998.223
  21086604.340   -24291437.93449 -18911826.05147  21086604.068    21086610.705
  22929765.269   -11223931.82249  -8464715.82946  22929764.904    22929775.029
 03  3 29  0 56  0.0000000  0  8G 3G14G15G17G 9G23G18G31
  21667995.102   -20859835.27549 -16226311.76247  21667994.929    21668003.560
  21208663.480   -24625155.70749 -18889964.06847  21208663.178    21208670.546
  20345988.768   -30252093.29249 -23313321.50648  20345988.195    20345995.949
  22206593.947   -18509139.06149 -14403174.43946  22206593.476    22206603.389
  23543555.137   -10679388.31049  -8304607.44745  23543555.046    23543565.988
  22018008.591   -17788236.69149 -13838508.99647  22018008.080    22018016.316
  21094980.486   -24247421.10849 -18877527.21647  21094980.199    21094986.810
  22919189.358   -11279508.32849  -8508022.10346  22919189.006    22919199.074
 03  3 29  0 56 30.0000000  0  8G 3G14G15G17G 9G23G18G31
  21666985.725   -20865139.38249 -16230444.80847  21666985.558    21666994.174
  21194878.473   -24697595.99549 -18946410.94747  21194878.161    21194885.522
  20349984.623   -30231094.89749 -23296959.11148  20349984.039    20349991.798
  22219319.974   -18442263.86349 -14351063.95446  22219319.495    22219329.388
  23538966.031   -10703503.62949  -8323398.51745  23538965.953    23538976.841
  22028042.093   -17735510.67949 -13797423.80547  22028041.554    22028049.786
  21103392.172   -24203217.57549 -18843082.91147  21103391.886    21103398.478
  22908709.094   -11334582.26149  -8550936.76646  22908708.712    22908718.780
 03  3 29  0 57  0.0000000  0  8G 3G14G15G17G 9G23G18G31
  21666084.272   -20869876.46949 -16234136.02047  21666084.132    21666092.747
  21181178.000   -24769592.06049 -19002511.68447  21181177.696    21181185.045
  20354055.495   -30209702.39849 -23280289.62448  20354054.891    20354062.649
  22232104.745   -18375079.49149 -14298712.55446  22232104.264    22232114.202
  23534476.847   -10727094.43949  -8341780.89345  23534476.700    23534487.564
  22038090.490   -17682705.89149 -13756277.23547  22038089.978    22038098.224
  21111838.950   -24158829.39949 -18808494.72547  21111838.668    21111845.257
  22898324.522   -11389152.88849  -8593459.24446  22898324.151    22898334.219
 03  3 29  0 57 30.0000000  0  8G 3G14G15G17G 9G23G18G31
  21665290.985   -20874045.07849 -16237384.26447  21665290.821    21665299.424
  21167562.605   -24841140.88249 -19058263.91447  21167562.312    21167569.652
  20358201.706   -30187913.87149 -23263311.54348  20358201.101    20358208.860
  22244948.527   -18307585.14749 -14246119.62146  22244948.083    22244958.004
  23530088.062   -10750157.60649  -8359752.11045  23530087.919    23530098.727
  22048154.013   -17629821.83949 -13715068.89447  22048153.491    22048161.764
  21120320.934   -24114256.39749 -18773762.51447  21120320.646    21120327.209
  22888036.359   -11443217.13649  -8635587.14646  22888035.993    22888046.027
 03  3 29  0 58  0.0000000  0  8G 3G14G15G17G 9G23G18G31
  21664605.753   -20877646.03849 -16240190.18747  21664605.596    21664614.174
  21154032.607   -24912241.22649 -19113666.69147  21154032.308    21154039.618
  20362423.225   -30165729.49049 -23246025.01148  20362422.638    20362430.401
  22257851.135   -18239781.86549 -14193285.96346  22257850.661    22257860.610
  23525799.820   -10772692.09649  -8377311.37345  23525799.768    23525810.490
  22058232.275   -17576860.05949 -13673799.99047  22058231.774    22058240.062
  21128837.744   -24069500.41149 -18738887.72647  21128837.430    21128844.002
  22877844.708   -11496773.99749  -8677319.66646  22877844.358    22877854.395
 03  3 29  0 58 30.0000000  0  8G 3G14G15G17G 9G23G18G31
  21664028.540   -20880679.24149 -16242553.70447  21664028.365    21664036.940
  21140588.342   -24982890.94349 -19168718.32647  21140588.026    21140595.314
  20366720.252   -30143148.37049 -23228429.32248  20366719.683    20366727.452
  22270812.538   -18171669.37349 -14140211.36346  22270812.108    22270822.088
  23521612.586   -10794696.11849  -8394457.26745  23521612.537    23521623.167
  22068325.313   -17523821.12149 -13632470.96447  22068324.777    22068333.084
  21137389.188   -24024561.83149 -18703870.65247  21137388.920    21137395.517
  22867750.066   -11549821.44449  -8718655.25546  22867749.707    22867759.717
 03  3 29  0 59  0.0000000  0  8G 3G14G15G17G 9G23G18G31
  21663559.332   -20883144.81149 -16244474.90947  21663559.160    21663567.717
  21127230.140   -25053088.52949 -19223417.65147  21127229.833    21127237.075
  20371092.915   -30120169.70949 -23210523.86348  20371092.346    20371100.111
  22283832.728   -18103247.85249 -14086895.93646  22283832.304    22283842.266
  23517526.561   -10816167.81849  -8411188.40545  23517526.555    23517537.130
  22078432.826   -17470705.88149 -13591082.47547  22078432.279    22078440.578
  21145975.282   -23979441.92149 -18668712.27947  21145974.996    21145981.586
  22857752.644   -11602357.86449  -8759592.64346  22857752.297    22857762.271
 03  3 29  0 59 30.0000000  0  8G 3G14G15G17G 9G23G18G31
  21663198.137   -20885042.88049 -16245953.90447  21663197.960    21663206.526
  21113958.257   -25122832.40249 -19277763.43547  21113957.951    21113965.167
  20375541.298   -30096793.17749 -23192308.38448  20375540.737    20375548.526
  22296911.652   -18034517.86849 -14033340.17546  22296911.240    22296921.218
  23513542.338   -10837105.39649  -8427503.32345  23513542.213    23513552.784
  22088554.659   -17417515.20849 -13549635.21147  22088554.152    22088562.427
  21154595.663   -23934141.68049 -18633413.39847  21154595.348    21154601.918
  22847852.826   -11654381.54249  -8800130.50046  22847852.471    22847862.467
 03  3 29  1  0  0.0000000  0  8G 3G14G15G17G 9G23G18G31
  21662944.961   -20886373.28949 -16246990.56947  21662944.785    21662953.355
  21100773.162   -25192120.14349 -19331753.79347  21100772.849    21100780.053
  20380065.571   -30073017.85249 -23173782.15348  20380065.025    20380072.815
  22310049.257   -17965479.39649 -13979544.03646  22310048.844    22310058.833
  23509659.952   -10857506.79949  -8443400.43645  23509659.871    23509670.427
  22098690.723   -17364249.52649 -13508129.49947  22098690.275    22098698.555
  21163250.247   -23888661.74049 -18597974.48847  21163249.917    21163256.477
  22838050.915   -11705890.58049  -8840267.33146  22838050.537    22838060.542
 03  3 29  1  0 30.0000000  0  8G 3G14G15G17G 9G23G18G31
  21662799.672   -20887136.70149 -16247585.42147  21662799.486    21662808.045
  21087675.114   -25260950.49249 -19385387.74147  21087674.797    21087681.985
  20384665.788   -30048843.64649 -23154945.10448  20384665.240    20384673.019
  22323245.473   -17896133.26649 -13925508.16246  22323245.039    22323255.068
  23505880.004   -10877370.79449  -8458878.80745  23505879.768    23505890.337
  22108840.946   -17310909.98449 -13466566.24147  22108840.488    22108848.733
  21171938.676   -23843003.66249 -18562396.76647  21171938.352    21171944.886
  22828347.162   -11756883.64449  -8880002.12346  22828346.774    22828356.775
 03  3 29  1  1  0.0000000  0  8G 3G14G15G17G 9G23G18G31
  21662762.318   -20887333.00249 -16247738.36247  21662762.162    21662770.690
  21074664.523   -25329321.30049 -19438663.60847  21074664.204    21074671.354
  20389342.085   -30024269.39449 -23135796.32948  20389341.523    20389349.326
  22336500.277   -17826479.05349 -13871232.22646  22336499.852    22336509.869
  23502202.464   -10896695.28349  -8473936.76645  23502202.345    23502212.815
  22119005.197   -17257496.78849 -13424945.58447  22119004.732    22119012.944
  21180660.987   -23797167.81949 -18526680.52847  21180660.634    21180667.180
  22818741.993   -11807358.65949  -8919333.21946  22818741.644    22818751.622
 03  3 29  1  1 30.0000000  0  8G 3G14G15G17G 9G23G18G31
  21662832.770   -20886962.73049 -16247449.82847  21662832.593    21662841.112
  21061741.575   -25397231.42649 -19491580.50847  21061741.260    21061748.386
  20394094.556   -29999295.06849 -23116335.81148  20394093.993    20394101.785
  22349813.608   -17756517.21449 -13816716.58346  22349813.166    22349823.239
  23498628.046   -10915478.89549  -8488573.30745  23498627.938    23498638.402
  22129183.198   -17204011.25349 -13383268.56047  22129182.706    22129190.901
  21189416.750   -23751155.99049 -18490827.16347  21189416.392    21189422.947
  22809235.680   -11857314.55449  -8958259.82646  22809235.285    22809245.256
 03  3 29  1  2  0.0000000  0  8G 3G14G15G17G 9G23G18G31
  21663010.894   -20886026.50349 -16246720.28847  21663010.700    21663019.233
  21048906.570   -25464679.40049 -19544137.28747  21048906.276    21048913.375
  20398923.183   -29973920.40549 -23096563.33648  20398922.620    20398930.427
  22363185.347   -17686248.45849 -13761961.77946  22363184.909    22363195.019
  23495156.850   -10933720.27849  -8502787.26845  23495156.623    23495167.090
  22139374.753   -17150454.45949 -13341536.00847  22139374.240    22139382.412
  21198205.823   -23704969.15249 -18454837.42447  21198205.488    21198212.008
  22799828.430   -11906749.91249  -8996780.81146  22799827.997    22799837.933
 03  3 29  1  2 30.0000000  0  8G 3G14G15G17G 9G23G18G31
  21663296.683   -20884524.53649 -16245549.90947  21663296.512    21663305.023
  21036159.948   -25531663.13149 -19596332.31747  21036159.640    21036166.734
  20403828.190   -29948144.45749 -23076478.17548  20403827.624    20403835.432
  22376615.456   -17615673.29849 -13706968.21346  22376614.992    22376625.110
  23491788.960   -10951417.58649  -8516577.33745  23491788.883    23491799.300
  22149579.679   -17096827.09749 -13299748.46847  22149579.175    22149587.368
  21207028.090   -23658607.98149 -18418711.84047  21207027.740    21207034.234
  22790520.527   -11955663.04649  -9034894.86846  22790520.082    22790530.028
 03  3 29  1  3  0.0000000  0  8G 3G14G15G17G 9G23G18G31
  21663690.216   -20882456.48349 -16243938.42647  21663690.040    21663698.563
  21023502.011   -25598180.64949 -19648164.06847  21023501.703    21023508.775
  20408809.662   -29921966.38649 -23056079.67148  20408809.115    20408816.912
  22390103.894   -17544791.17149 -13651735.45846  22390103.435    22390113.608
  23488525.009   -10968568.91549  -8529941.94745  23488524.953    23488535.483
  22159798.068   -17043129.13649 -13257905.92347  22159797.552    22159805.794
  21215883.430   -23612072.84349 -18382450.70147  21215883.080    21215889.586
  22781312.381   -12004051.80849  -9072600.33046  22781311.947    22781321.847
 03  3 29  1  3 30.0000000  0  8G 3G14G15G17G 9G23G18G31
  21664191.326   -20879823.07249 -16241886.40747  21664191.153    21664199.664
  21010932.942   -25664231.16049 -19699631.91347  21010932.644    21010939.696
  20413867.739   -29895386.07249 -23035367.72948  20413867.164    20413874.970
  22403650.644   -17473602.84049 -13596264.10046  22403650.205    22403660.344
  23485365.288   -10985173.16249  -8542880.25045  23485365.231    23485375.701
  22170029.624   -16989361.80149 -13216009.31447  22170029.158    22170037.385
  21224771.486   -23565365.63849 -18346055.48747  21224771.187    21224777.697
  22772204.248   -12051915.17649  -9109896.38446  22772203.812    22772213.746
 03  3 29  1  4  0.0000000  0  8G 3G14G15G17G 9G23G18G31
  21664799.899   -20876624.83449 -16239394.26047  21664799.721    21664808.265
  20998453.119   -25729812.75549 -19750734.37847  20998452.824    20998459.855
  20419002.427   -29868403.15249 -23014342.06748  20419001.859    20419009.667
  22417255.627   -17402108.65249 -13540554.42146  22417255.107    22417265.345
  23482309.815   -11001229.05449  -8555391.28545  23482309.785    23482320.329
  22180274.192   -16935526.05749 -13174059.39647  22180273.756    22180282.020
  21233692.213   -23518487.01349 -18309526.69847  21233691.901    21233698.427
  22763196.344   -12099251.67749  -9146781.89046  22763195.947    22763205.816
 03  3 29  1  4 30.0000000  0  8G 3G14G15G17G 9G23G18G31
  21665515.871   -20872862.36949 -16236462.45547  21665515.696    21665524.266
  20986062.877   -25794923.69049 -19801470.09147  20986062.571    20986069.583
  20424213.783   -29841017.21749 -22993002.37448  20424213.221    20424220.993
  22430918.617   -17330309.29849 -13484606.92846  22430918.059    22430928.386
  23479359.247   -11016735.05649  -8567473.81545  23479359.148    23479369.529
  22190531.723   -16881622.69749 -13132056.79647  22190531.225    22190539.475
  21242645.348   -23471437.92249 -18272865.07447  21242645.023    21242651.555
  22754288.960   -12146060.03249  -9183255.85346  22754288.524    22754298.403
 03  3 29  1  5  0.0000000  0  8G 3G14G15G17G 9G23G18G31
  21666339.123   -20868536.11849 -16233091.33747  21666338.946    21666347.523
  20973762.498   -25859562.39249 -19851837.82747  20973762.187    20973769.187
  20429501.994   -29813227.43649 -22971347.99148  20429501.430    20429509.220
  22444639.624   -17258205.14449 -13428421.95146  22444639.070    22444649.437
  23476513.466   -11031689.48649  -8579126.56645  23476513.458    23476523.815
  22200801.965   -16827652.20449 -13090001.87647  22200801.485    22200809.713
  21251630.751   -23424219.23849 -18236071.29947  21251630.432    21251636.984
  22745482.408   -12192338.46649  -9219316.86946  22745481.981    22745491.799
 03  3 29  1  5 30.0000000  0  8G 3G14G15G17G 9G23G18G31
  21667269.662   -20863645.97049 -16229280.82147  21667269.501    21667278.045
  20961552.332   -25923726.86449 -19901836.04047  20961552.010    20961558.988
  20434867.214   -29785033.21649 -22949378.46448  20434866.616    20434874.398
  22458418.706   -17185795.92149 -13371999.24146  22458418.161    22458428.594
  23473773.014   -11046090.65949  -8590348.20545  23473772.905    23473783.261
  22211084.903   -16773614.89849 -13047894.90247  22211084.456    22211092.691
  21260648.308   -23376831.63549 -18199145.89947  21260648.030    21260654.562
  22736777.010   -12238085.24849  -9254963.62646  22736776.627    22736786.383
 03  3 29  1  6  0.0000000  0  8G 3G14G15G17G 9G23G18G31
  21668307.448   -20858192.28749 -16225031.18447  21668307.283    21668315.810
  20949432.683   -25987415.71149 -19951463.63547  20949432.380    20949439.330
  20440309.494   -29756433.88449 -22927093.26748  20440308.899    20440316.686
  22472255.704   -17113082.12949 -13315339.21146  22472255.162    22472265.583
  23471137.998   -11059936.99749  -8601137.50545  23471137.919    23471148.291
  22221380.526   -16719511.29249 -13005736.26047  22221380.059    22221388.283
  21269697.883   -23329275.95149 -18162089.52647  21269697.565    21269704.110
  22728173.054   -12283298.88249  -9290194.93146  22728172.663    22728182.413
 03  3 29  1  6 30.0000000  0  8G 3G14G15G17G 9G23G18G31
  21669452.315   -20852175.99249 -16220343.15447  21669452.160    21669460.673
  20937403.761   -26050627.96449 -20000719.85747  20937403.437    20937410.367
  20445828.860   -29727429.42149 -22904492.38848  20445828.248    20445836.028
  22486150.565   -17040064.52649 -13258442.45246  22486150.042    22486160.427
  23468608.989   -11073227.48549  -8611493.67545  23468608.840    23468619.128
  22231688.526   -16665342.57449 -12963526.89247  22231688.013    22231696.240
  21278779.140   -23281553.73949 -18124903.39747  21278778.828    21278785.377
  22719670.847   -12327978.28249  -9325009.94846  22719670.430    22719680.161
 03  3 29  1  7  0.0000000  0  8G 3G14G15G17G 9G23G18G31
  21670704.073   -20845597.91549 -16215217.36547  21670703.924    21670712.427
  20925465.788   -26113362.16549 -20049603.57247  20925465.462    20925472.372
  20451425.349   -29698019.48549 -22881575.55348  20451424.773    20451432.557
  22500103.093   -16966743.49549 -13201309.25846  22500102.593    22500112.963
  23466185.729   -11085960.92549  -8621415.79045  23466185.588    23466196.109
  22242008.702   -16611109.62949 -12921267.48147  22242008.208    22242016.463
  21287891.849   -23233665.95949 -18087588.25347  21287891.569    21287898.130
  22711270.427   -12372122.40449  -9359407.86946  22711270.005    22711279.710
 03  3 29  1  7 30.0000000  0  8G 3G14G15G17G 9G23G18G31
  21672062.711   -20838458.18149 -16209653.92247  21672062.553    21672071.066
  20913619.081   -26175616.63149 -20098113.46947  20913618.763    20913625.651
  20457099.168   -29668203.44149 -22858342.26848  20457098.585    20457106.354
  22514113.311   -16893119.55549 -13143940.03346  22514112.824    22514123.179
  23463869.034   -11098135.61849  -8630902.51045  23463868.881    23463879.240
  22252341.043   -16556812.97349 -12878958.42047  22252340.565    22252348.812
  21297035.889   -23185613.42549 -18050144.72847  21297035.619    21297042.205
  22702972.181   -12415729.52849  -9393387.34546  22702971.760    22702981.453
 03  3 29  1  8  0.0000000  0  8G 3G14G15G17G 9G23G18G31
  21673528.186   -20830757.03149 -16203653.01647  21673528.009    21673536.539
  20901864.029   -26237389.55549 -20146248.13847  20901863.701    20901870.587
  20462850.379   -29637980.67849 -22834792.06648  20462849.794    20462857.564
  22528181.200   -16819192.70349 -13086334.75946  22528180.705    22528191.051
  23461658.731   -11109750.20949  -8639952.80545  23461658.562    23461668.995
  22262685.459   -16502452.97849 -12836600.01447  22262684.944    22262693.187
  21306211.197   -23137396.88649 -18012573.41047  21306210.937    21306217.533
  22694776.435   -12458798.17549  -9426947.23646  22694776.034    22694785.630
 03  3 29  1  8 30.0000000  0  8G 3G14G15G17G 9G23G18G31
  21675100.343   -20822495.24149 -16197215.24747  21675100.160    21675108.664
  20890200.892   -26298679.45349 -20194006.42647  20890200.565    20890207.424
  20468679.078   -29607350.72749 -22810924.57548  20468678.489    20468686.232
  22542306.569   -16744963.70549 -13028494.06746  22542306.106    22542316.448
  23459555.391   -11120803.26049  -8648565.52045  23459555.248    23459565.635
  22273041.768   -16448030.21649 -12794192.69247  22273041.254    22273049.531
  21315417.613   -23089016.93749 -17974874.76447  21315417.334    21315423.935
  22686683.391   -12501326.95249  -9460086.45846  22686683.016    22686692.542
 03  3 29  1  9  0.0000000  0  8G 3G14G15G17G 9G23G18G31
  21676779.020   -20813673.84549 -16190341.41947  21676778.838    21676787.313
  20878629.832   -26359485.48349 -20241387.67547  20878629.506    20878636.346
  20474585.184   -29576313.89749 -22786740.03148  20474584.600    20474592.357
  22556489.297   -16670433.12949 -12970418.36146  22556488.887    22556499.182
  23457559.105   -11131293.91549  -8656740.04145  23457558.870    23457569.365
  22283409.785   -16393545.85049 -12751737.36447  22283409.297    22283417.616
  21324654.824   -23040475.19849 -17937050.04247  21324654.569    21324661.137
  22678693.260   -12543315.14149  -9492804.43946  22678692.888    22678702.377
 03  3 29  1  9 30.0000000  0  8G 3G14G15G17G 9G23G18G31
  21678564.091   -20804293.08849 -16183031.72947  21678563.922    21678572.390
  20867151.188   -26419805.87449 -20288390.50447  20867150.852    20867157.675
  20480568.817   -29544869.54349 -22762237.93848  20480568.258    20480576.008
  22570729.414   -16595601.24349 -12912107.88746  22570729.009    22570739.300
  23455670.021   -11141220.76449  -8664475.20745  23455669.807    23455680.211
  22293789.478   -16339000.14749 -12709234.24647  22293789.031    22293797.333
  21333922.661   -22991772.23949 -17899099.69747  21333922.413    21333929.011
  22670806.317   -12584761.03949  -9525099.86946  22670805.927    22670815.369
 03  3 29  1 10  0.0000000  0  8G 3G14G15G17G 9G23G18G31
  21680455.364   -20794354.43749 -16175287.31547  21680455.173    21680463.653
  20855765.130   -26479639.71749 -20335014.20147  20855764.794    20855771.593
  20486630.046   -29513017.70149 -22737418.32148  20486629.462    20486637.204
  22585026.622   -16520469.35249 -12853563.63446  22585026.172    22585036.501
  23453888.474   -11150582.93549  -8671770.38045  23453888.182    23453898.664
  22304180.596   -16284394.38549 -12666684.32647  22304180.167    22304188.460
  21343220.997   -22942909.24849 -17861024.64747  21343220.756    21343227.359
  22663022.753   -12625663.84849  -9556972.09946  22663022.317    22663031.746
 03  3 29  1 10 30.0000000  0  8G 3G14G15G17G 9G23G18G31
  21682452.826   -20783857.67749 -16167108.00847  21682452.631    21682461.109
  20844472.022   -26538985.02749 -20381257.22547  20844471.683    20844478.469
  20492769.013   -29480757.38549 -22712280.40648  20492768.412    20492776.149
  22599381.129   -16445036.36949 -12794784.76246  22599380.684    22599391.035
  23452214.542   -11159378.82949  -8678624.30245  23452214.370    23452224.809
  22314583.254   -16229728.51549 -12624087.56947  22314582.776    22314591.061
  21352549.744   -22893886.78149 -17822825.32647  21352549.428    21352556.003
  22655342.830   -12666021.73849  -9588419.72446  22655342.393    22655351.772
 03  3 29  1 11  0.0000000  0  8G 3G14G15G17G 9G23G18G31
  21684556.259   -20772803.94049 -16158494.70347  21684556.074    21684564.549
  20833272.083   -26597840.79149 -20427118.78847  20833271.746    20833278.519
  20498985.713   -29448088.50349 -22686824.14248  20498985.118    20498992.828
  22613792.642   -16369303.52349 -12735772.24046  22613792.167    22613802.559
  23450648.826   -11167607.49949  -8685036.21145  23450648.535    23450658.912
  22324997.116   -16175003.45249 -12581444.69447  22324996.606    22325004.891
  21361908.558   -22844705.84449 -17784502.53447  21361908.269    21361914.853
  22647766.740   -12705833.90949  -9619442.11846  22647766.338    22647775.677
 03  3 29  1 11 30.0000000  0  8G 3G14G15G17G 9G23G18G31
  21686765.541   -20761194.12449 -16149448.08247  21686765.345    21686773.795
  20822165.532   -26656205.76749 -20472597.91547  20822165.195    20822171.944
  20505280.181   -29415010.89349 -22661049.37948  20505279.560    20505287.277
  22628261.160   -16293271.55149 -12676526.63146  22628260.661    22628271.087
  23449190.905   -11175267.93649  -8691005.38045  23449190.783    23449201.185
  22335422.072   -16120219.89749 -12538756.23247  22335421.609    22335429.920
  21371297.300   -22795367.50349 -17746057.07747  21371297.019    21371303.629
  22640294.745   -12745099.11049  -9650038.28746  22640294.331    22640303.678
 03  3 29  1 12  0.0000000  0  8G 3G14G15G17G 9G23G18G31
  21689080.420   -20749029.28549 -16139968.98147  21689080.222    21689088.683
  20811152.574   -26714078.96349 -20517693.84247  20811152.249    20811158.980
  20511652.439   -29381524.34749 -22634955.96648  20511651.849    20511659.579
  22642786.397   -16216941.33449 -12617048.63046  22642785.845    22642796.291
  23447841.595   -11182359.10949  -8696530.95045  23447841.408    23447851.617
  22345858.069   -16065378.69049 -12496022.85647  22345857.565    22345865.879
  21380715.865   -22745872.65249 -17707489.66547  21380715.588    21380722.195
  22632927.020   -12783816.47649  -9680207.58346  22632926.591    22632935.959
 03  3 29  1 12 30.0000000  0  8G 3G14G15G17G 9G23G18G31
  21691500.977   -20736309.24749 -16130057.25647  21691500.777    21691509.224
  20800233.675   -26771457.85949 -20562404.59748  20800233.358    20800240.076
  20518102.760   -29347627.67049 -22608542.97748  20518102.163    20518109.891
  22657368.331   -16140312.87249 -12557338.21746  22657367.841    22657378.295
  23446600.825   -11188878.89949  -8701611.29345  23446600.766    23446610.954
  22356305.013   -16010479.40649 -12453244.22447  22356304.523    22356312.920
  21390164.264   -22696221.32149 -17668800.32247  21390163.938    21390170.535
  22625663.969   -12821983.84549  -9709948.31946  22625663.519    22625672.871
 03  3 29  1 13  0.0000000  0  8G 3G14G15G17G 9G23G18G31
  21694026.916   -20723035.36449 -16119713.96047  21694026.708    21694035.134
  20789408.938   -26828341.86549 -20606729.72948  20789408.622    20789415.334
  20524631.097   -29313321.06349 -22581810.55748  20524630.514    20524638.228
  22672006.945   -16063386.81749 -12497395.91446  22672006.446    22672016.920
  23445468.893   -11194827.07049  -8706246.20245  23445468.830    23445479.074
  22366762.778   -15955523.34349 -12410421.35647  22366762.342    22366770.709
  21399642.069   -22646414.98449 -17629990.18947  21399641.776    21399648.361
  22618505.667   -12859600.73149  -9739260.10346  22618505.215    22618514.513
 03  3 29  1 13 30.0000000  0  8G 3G14G15G17G 9G23G18G31
  21696658.149   -20709208.06449 -16108939.43947  21696657.966    21696666.364
  20778678.617   -26884729.72949 -20650668.25548  20778678.300    20778684.991
  20531237.484   -29278604.21649 -22554758.47348  20531236.890    20531244.612
  22686702.064   -15986163.48849 -12437221.97346  22686701.653    22686712.123
  23444446.020   -11200202.43149  -8710434.79145  23444445.968    23444456.212
  22377231.328   -15900511.00549 -12367554.63247  22377230.866    22377239.219
  21409149.333   -22596454.23349 -17591059.74247  21409148.995    21409155.558
  22611452.370   -12896665.89849  -9768141.96346  22611451.908    22611461.183
 03  3 29  1 14  0.0000000  0  8G 3G14G15G17G 9G23G18G31
  21699394.504   -20694828.46949 -16097734.54947  21699394.292    21699402.712
  20768042.972   -26940620.17149 -20694219.17448  20768042.643    20768049.327
  20537922.057   -29243476.74449 -22527386.41648  20537921.453    20537929.158
  22701453.787   -15908643.28049 -12376816.69346  22701453.321    22701463.872
  23443532.273   -11205004.08349  -8714176.28545  23443532.230    23443542.343
  22387710.469   -15845442.90449 -12324644.44647  22387710.021    22387718.407
  21418685.734   -22546340.13649 -17552009.80547  21418685.373    21418691.956
  22604504.244   -12933178.29449  -9796593.10546  22604503.778    22604512.998
 03  3 29  1 14 30.0000000  0  8G 3G14G15G17G 9G23G18G31
  21702235.744   -20679897.50049 -16086100.02347  21702235.535    21702243.969
  20757502.197   -26996012.07349 -20737381.62748  20757501.871    20757508.551
  20544684.713   -29207938.57249 -22499694.33348  20544684.121    20544691.849
  22716261.730   -15830827.37249 -12316181.00646  22716261.250    22716271.823
  23442727.805   -11209231.00549  -8717470.00045  23442727.827    23442738.047
  22398200.116   -15790319.60849 -12281691.26647  22398199.669    22398208.050
  21428251.139   -22496073.55449 -17512841.05347  21428250.791    21428257.361
  22597661.488   -12969136.92049  -9824612.75246  22597661.035    22597670.209
 03  3 29  1 15  0.0000000  0  8G 3G14G15G17G 9G23G18G31
  21705181.790   -20664415.98349 -16074036.49547  21705181.585    21705190.019
  20747056.550   -27050904.03749 -20780154.51848  20747056.222    20747062.878
  20551525.617   -29171989.37649 -22471681.97748  20551525.045    20551532.755
  22731125.914   -15752715.81549 -12255314.94646  22731125.479    22731136.008
  23442033.058   -11212882.23149  -8720315.09245  23442032.938    23442043.114
  22408700.210   -15735141.39649 -12238695.28847  22408699.760    22408708.174
  21437845.445   -22445654.94749 -17473553.83947  21437845.139    21437851.743
  22590924.336   -13004540.48049  -9852199.87346  22590923.919    22590933.081
 03  3 29  1 15 30.0000000  0  8G 3G14G15G17G 9G23G18G31
  21708232.377   -20648385.08549 -16061544.87847  21708232.174    21708240.583
  20736706.218   -27105295.06449 -20822537.06748  20736705.887    20736712.525
  20558444.797   -29135629.18649 -22443349.36348  20558444.165    20558451.874
  22746046.233   -15674309.34249 -12194219.08646  22746045.771    22746056.312
  23441447.914   -11215956.93449  -8722710.94445  23441447.903    23441458.047
  22419210.549   -15679909.13849 -12195657.19647  22419210.094    22419218.548
  21447468.517   -22395085.55649 -17434149.13747  21447468.187    21447474.764
  22584292.911   -13039388.36549  -9879353.99746  22584292.500    22584301.665
 03  3 29  1 16  0.0000000  0  8G 3G14G15G17G 9G23G18G31
  21711387.297   -20631805.69049 -16048625.85847  21711387.109    21711395.516
  20726451.472   -27159183.99849 -20864528.37348  20726451.147    20726457.758
  20565442.199   -29098857.44849 -22414696.05448  20565441.591    20565449.309
  22761022.578   -15595608.53249 -12132893.86346  22761022.112    22761032.680
  23440972.746   -11218453.85449  -8724656.57945  23440972.772    23440982.885
  22429731.137   -15624623.29149 -12152577.35547  22429730.680    22429739.118
  21457120.144   -22344366.16549 -17394627.55147  21457119.795    21457126.357
  22577767.505   -13073679.25649  -9906074.10146  22577767.107    22577776.240
 03  3 29  1 16 30.0000000  0  8G 3G14G15G17G 9G23G18G31
  21714646.384   -20614678.98349 -16035280.36247  21714646.203    21714654.607
  20716292.490   -27212569.53949 -20906127.43848  20716292.159    20716298.750
  20572517.950   -29061674.10949 -22385722.03148  20572517.333    20572525.053
  22776054.711   -15516614.09649 -12071339.85346  22776054.276    22776064.902
  23440607.592   -11220372.28649  -8726151.44645  23440607.625    23440617.801
  22440261.781   -15569284.43449 -12109456.19847  22440261.320    22440269.752
  21466800.135   -22293497.45349 -17354989.61647  21466799.834    21466806.386
  22571348.279   -13107412.30949  -9932359.53746  22571347.881    22571356.999
 03  3 29  1 17  0.0000000  0  8G 3G14G15G17G 9G23G18G31
  21718009.465   -20597005.66049 -16021508.93147  21718009.295    21718017.716
  20706229.488   -27265450.74649 -20947333.50248  20706229.166    20706235.736
  20579672.004   -29024079.17649 -22356427.27248  20579671.380    20579679.095
  22791142.674   -15437326.57649 -12009557.47346  22791142.230    22791152.886
  23440352.878   -11221711.54349  -8727194.99545  23440352.752    23440362.969
  22450802.447   -15513893.25449 -12066294.26347  22450801.973    22450810.411
  21476508.332   -22242480.58049 -17315236.23447  21476508.003    21476514.562
  22565035.335   -13140586.76449  -9958209.69846  22565034.912    22565044.039
 03  3 29  1 17 30.0000000  0  8G 3G14G15G17G 9G23G18G31
  21721476.342   -20578787.10549 -16007312.64247  21721476.175    21721484.590
  20696262.567   -27317826.82349 -20988145.96048  20696262.246    20696268.789
  20586904.431   -28986072.54849 -22326811.71848  20586903.823    20586911.522
  22806286.247   -15357746.97449 -11947547.49246  22806285.787    22806296.451
  23440208.253   -11222471.19149  -8727786.92345  23440208.261    23440218.379
  22461352.923   -15458450.51649 -12023092.15447  22461352.429    22461360.833
  21486244.628   -22191316.21549 -17275367.92147  21486244.293    21486250.853
  22558828.856   -13173201.88349  -9983624.00146  22558828.418    22558837.542
 03  3 29  1 18  0.0000000  0  8G 3G14G15G17G 9G23G18G31
  21725046.843   -20560023.92749 -15992691.97447  21725046.683    21725055.101
  20686392.137   -27369696.19249 -21028563.58748  20686391.809    20686398.325
  20594215.350   -28947653.45749 -22296874.76548  20594214.742    20594222.461
  22821485.366   -15277875.62549 -11885310.16946  22821484.864    22821495.555
  23440174.152   -11222649.83749  -8727926.12345  23440174.225    23440184.369
  22471913.133   -15402956.08349 -11979849.77047  22471912.678    22471921.141
  21496008.848   -22140004.94249 -17235385.13447  21496008.483    21496015.074
  22552729.051   -13205256.25049 -10008601.36146  22552728.641    22552737.702
 03  3 29  1 18 30.0000000  0  8G 3G14G15G17G 9G23G18G31
  21728720.761   -20540717.48349 -15977647.97747  21728720.590    21728728.990
  20676618.305   -27421057.88949 -21068585.62248  20676617.955    20676624.435
  20601604.688   -28908822.10749 -22266616.57348  20601604.066    20601611.790
  22836739.798   -15197713.27349 -11822846.09846  22836739.314    22836750.014
  23440250.930   -11222246.97649  -8727612.19545  23440250.902    23440261.128
  22482483.175   -15347410.66249 -11936567.65146  22482482.661    22482491.119
  21505800.892   -22088547.53549 -17195288.47047  21505800.544    21505807.127
  22546736.097   -13236749.20649 -10033141.25746  22546735.700    22546744.727
 03  3 29  1 19  0.0000000  0  8G 3G14G15G17G 9G23G18G31
  21732497.873   -20520868.62249 -15962181.31847  21732497.685    21732506.099
  20666941.262   -27471910.75649 -21108211.16648  20666940.925    20666947.386
  20609072.588   -28869578.06349 -22236036.80048  20609071.956    20609079.689
  22852049.620   -15117260.20849 -11760155.49446  22852049.085    22852059.849
  23440438.371   -11221261.45549  -8726844.22645  23440438.372    23440448.559
  22493062.775   -15291814.56149 -11893246.03246  22493062.277    22493070.728
  21515620.544   -22036944.72949 -17155078.50847  21515620.236    21515626.867
  22540850.178   -13267679.59349 -10057242.79846  22540849.804    22540858.821
 03  3 29  1 19 30.0000000  0  8G 3G14G15G17G 9G23G18G31
  21736377.850   -20500479.03749 -15946293.31647  21736377.649    21736386.057
  20657361.110   -27522254.48549 -21147439.97848  20657360.777    20657367.217
  20616618.931   -28829921.67749 -22205135.72148  20616618.322    20616626.061
  22867414.445   -15036517.97649 -11697239.56646  22867413.819    22867424.707
  23440736.855   -11219693.30249  -8725622.29045  23440736.806    23440746.945
  22503651.796   -15236168.95049 -11849885.84246  22503651.286    22503659.748
  21525467.655   -21985197.99149 -17114756.39947  21525467.319    21525473.970
  22535071.331   -13298047.28549 -10080905.85946  22535070.945    22535079.955
 03  3 29  1 20  0.0000000  0  8G 3G14G15G17G 9G23G18G31
  21740360.728   -20479548.89449 -15929984.09647  21740360.522    21740368.934
  20647878.303   -27572086.86449 -21186270.34048  20647877.962    20647884.387
  20624243.923   -28789852.15949 -22173912.73047  20624243.294    20624251.024
  22882834.307   -14955486.16449 -11634097.99146  22882833.764    22882844.658
  23441146.488   -11217540.87949  -8723945.06245  23441146.372    23441156.491
  22514250.330   -15180473.36649 -11806486.70846  22514249.799    22514258.293
  21535342.179   -21933307.02849 -17074321.90747  21535341.853    21535348.471
  22529399.947   -13327850.49249 -10104129.06846  22529399.502    22529408.525
 03  3 29  1 20 30.0000000  0  8G 3G14G15G17G 9G23G18G31
  21744446.096   -20458080.18549 -15913255.21647  21744445.873    21744454.282
  20638492.765   -27621407.95349 -21224702.29648  20638492.429    20638498.826
  20631947.421   -28749370.11249 -22142368.28747  20631946.780    20631954.504
  22898309.059   -14874166.22949 -11570731.92846  22898308.551    22898319.351
  23441667.333   -11214804.19549  -8721812.56545  23441667.162    23441677.264
  22524858.167   -15124728.94249 -11763049.52146  22524857.665    22524866.120
  21545243.856   -21881273.46249 -17033776.29347  21545243.528    21545250.129
  22523835.990   -13357089.13949 -10126912.36546  22523835.533    22523844.565
 03  3 29  1 21  0.0000000  0  8G 3G14G15G17G 9G23G18G31
  21748633.753   -20436073.81549 -15896107.37947  21748633.534    21748641.942
  20629204.756   -27670216.37049 -21262734.76848  20629204.429    20629210.815
  20639729.439   -28708475.25249 -22110502.17647  20639728.813    20639736.533
  22913838.441   -14792559.15549 -11507142.09646  22913837.930    22913848.767
  23442299.509   -11211482.64449  -8719224.31345  23442299.234    23442309.289
  22535475.303   -15068936.00949 -11719574.54446  22535474.725    22535483.156
  21555172.634   -21829097.45449 -16993119.68047  21555172.315    21555178.959
  22518379.553   -13385762.41249 -10149255.11146  22518379.130    22518388.125
 03  3 29  1 21 30.0000000  0  8G 3G14G15G17G 9G23G18G31
  21752923.641   -20413530.26449 -15878540.95547  21752923.444    21752931.827
  20620014.606   -27718510.68449 -21300366.63648  20620014.261    20620020.637
  20647590.212   -28667166.67149 -22078313.68447  20647589.561    20647597.284
  22929422.538   -14710664.68949 -11443328.32846  22929422.011    22929432.871
  23443043.065   -11207574.83749  -8716179.24745  23443042.809    23443052.864
  22546101.621   -15013094.37449 -11676061.59446  22546101.069    22546109.463
  21565128.414   -21776779.45449 -16952352.42647  21565128.073    21565134.753
  22513031.020   -13413868.88649 -10171156.20246  22513030.564    22513039.550
 03  3 29  1 22  0.0000000  0  8G 3G14G15G17G 9G23G18G31
  21757315.345   -20390451.57049 -15860557.53847  21757315.154    21757323.545
  20610922.404   -27766290.28449 -21337597.43048  20610922.066    20610928.428
  20655529.638   -28625444.84849 -22045803.18247  20655528.995    20655536.705
  22945061.156   -14628484.04149 -11379291.56246  22945060.555    22945071.438
  23443898.190   -11203080.87249  -8712677.44745  23443898.028    23443908.075
  22556737.013   -14957204.98049 -11632511.44246  22556736.456    22556744.881
  21575111.010   -21724320.60849 -16911475.41947  21575110.672    21575117.318
  22507790.438   -13441408.33649 -10192615.44546  22507789.961    22507798.923
 03  3 29  1 22 30.0000000  0  8G 3G14G15G17G 9G23G18G31
  21761808.708   -20366838.76149 -15842157.93247  21761808.514    21761816.884
  20601928.235   -27813554.62749 -21374426.73048  20601927.892    20601934.243
  20663547.675   -28583309.77549 -22012970.67247  20663547.014    20663554.724
  22960754.083   -14546017.49449 -11315032.00946  22960753.521    22960764.436
  23444865.008   -11198000.07849  -8708718.35445  23444864.828    23444874.884
  22567381.443   -14901268.28449 -11588924.42546  22567380.907    22567389.255
  21585120.278   -21671721.79649 -16870489.34547  21585119.942    21585126.570
  22502657.793   -13468380.14049 -10213632.38446  22502657.345    22502666.307
 03  3 29  1 23  0.0000000  0  8G 3G14G15G17G 9G23G18G31
  21766403.379   -20342693.48949 -15823343.41947  21766403.183    21766411.532
  20593032.353   -27860302.67149 -21410853.71448  20593032.021    20593038.339
  20671644.327   -28540761.48249 -21979816.17147  20671643.679    20671651.406
  22976501.187   -14463266.47749 -11250550.80746  22976500.599    22976511.478
  23445943.517   -11192332.14049  -8704301.76645  23445943.362    23445953.440
  22578034.734   -14845284.76749 -11545300.92146  22578034.213    22578042.618
  21595155.966   -21618983.84949 -16829394.85647  21595155.635    21595162.256
  22497633.304   -13494783.66749 -10234206.50446  22497632.873    22497641.814
 03  3 29  1 23 30.0000000  0  8G 3G14G15G17G 9G23G18G31
  21771099.235   -20318016.50549 -15804114.59047  21771099.042    21771107.396
  20584234.861   -27906533.48649 -21446877.66548  20584234.531    20584240.822
  20679819.681   -28497799.81849 -21946339.56147  20679819.049    20679826.770
  22992302.397   -14380231.06349 -11185847.98146  22992301.840    22992312.643
  23447133.826   -11186076.38649  -8699427.12145  23447133.757    23447143.903
  22588696.809   -14789254.74949 -11501641.18946  22588696.341    22588704.799
  21605218.005   -21566107.15949 -16788192.25547  21605217.729    21605224.395
  22492717.092   -13520618.11449 -10254337.18546  22492716.686    22492725.612
 03  3 29  1 24  0.0000000  0  8G 3G14G15G17G 9G23G18G31
  21775896.083   -20292808.95049 -15784472.32147  21775895.881    21775904.260
  20575536.050   -27952245.93649 -21482497.69648  20575535.713    20575541.983
  20688073.743   -28454424.38849 -21912540.53247  20688073.125    20688080.843
  23008157.459   -14296912.29249 -11120924.36345  23008156.914    23008167.790
  23448436.273   -11179231.80949  -8694093.66445  23448436.196    23448446.339
  22599367.792   -14733178.37149 -11457945.34046  22599367.333    22599375.820
  21615306.463   -21513092.37349 -16746882.04447  21615306.125    21615312.794
  22487909.419   -13545882.47449 -10274023.64246  22487908.985    22487917.906
 03  3 29  1 24 30.0000000  0  8G 3G14G15G17G 9G23G18G31
  21780793.513   -20267072.65449 -15764418.05547  21780793.321    21780801.666
  20566935.961   -27997439.45249 -21517713.36848  20566935.617    20566941.879
  20696406.491   -28410635.61749 -21878419.42547  20696405.856    20696413.569
  23024066.225   -14213311.47549 -11055780.98145  23024065.701    23024076.564
  23449850.812   -11171798.59249  -8688301.51045  23449850.626    23449860.833
  22610047.458   -14677056.33549 -11414213.90846  22610047.000    22610055.473
  21625420.954   -21459940.39049 -16705464.92547  21625420.603    21625427.296
  22483210.239   -13570576.57749 -10293265.74846  22483209.788    22483218.725
 03  3 29  1 25  0.0000000  0  8G 3G14G15G17G 9G23G18G31
  21785791.320   -20240809.10749 -15743952.94147  21785791.111    21785799.484
  20558434.776   -28042113.32049 -21552524.11448  20558434.422    20558440.652
  20704817.896   -28366433.48749 -21843976.21647  20704817.263    20704824.973
  23040028.628   -14129428.84049 -10990417.98645  23040028.130    23040039.059
  23451377.464   -11163776.20149  -8682050.26645  23451377.259    23451387.393
  22620735.743   -14620889.11549 -11370447.27246  22620735.261    22620743.784
  21635561.356   -21406651.89349 -16663941.43147  21635561.063    21635567.740
  22478619.656   -13594699.79849 -10312063.00546  22478619.236    22478628.161
 03  3 29  1 25 30.0000000  0  8G 3G14G15G17G 9G23G18G31
  21790889.207   -20214019.51049 -15723077.92147  21790888.991    21790897.367
  20550032.631   -28086266.64449 -21586929.24748  20550032.289    20550038.484
  20713307.944   -28321817.87249 -21809210.81047  20713307.336    20713315.043
  23056044.496   -14045265.20549 -10924836.03345  23056043.993    23056054.947
  23453016.270   -11155164.18149  -8675339.57845  23453016.025    23453026.196
  22631432.599   -14564676.96049 -11326645.63046  22631432.105    22631440.634
  21645727.669   -21353227.71649 -16622312.21147  21645727.355    21645734.032
  22474137.863   -13618251.62249 -10330415.01346  22474137.458    22474146.331
 03  3 29  1 26  0.0000000  0  8G 3G14G15G17G 9G23G18G31
  21796086.924   -20186705.16849 -15701794.01547  21796086.713    21796095.071
  20541729.690   -28129898.79149 -21620928.26848  20541729.327    20541735.504
  20721876.677   -28276788.88349 -21774123.29447  20721876.064    20721883.772
  23072113.682   -13960821.38149 -10859035.75545  23072113.218    23072124.163
  23454767.334   -11145962.02649  -8668169.04545  23454767.143    23454777.287
  22642137.979   -14508420.26249 -11282809.27546  22642137.405    22642145.993
  21655919.741   -21299668.44949 -16580577.73247  21655919.379    21655926.007
  22469764.910   -13641231.42049 -10348321.28946  22469764.506    22469773.346
 03  3 29  1 26 30.0000000  0  8G 3G14G15G17G 9G23G18G31
  21801384.167   -20158867.87249 -15680102.61147  21801383.946    21801392.310
  20533526.015   -28173009.10149 -21654520.66648  20533525.656    20533531.805
  20730524.013   -28231346.91949 -21738713.98147  20730523.387    20730531.102
  23088236.047   -13876098.46449 -10793017.99645  23088235.507    23088246.448
  23456630.701   -11136169.81849  -8660538.73445  23456630.533    23456640.720
  22652851.649   -14452119.60049 -11238938.65846  22652851.127    22652859.670
  21666137.255   -21245975.00049 -16538738.69647  21666136.916    21666143.559
  22465500.825   -13663639.08849 -10365781.74546  22465500.408    22465509.243
 03  3 29  1 27  0.0000000  0  8G 3G14G15G17G 9G23G18G31
  21806780.715   -20130508.88849 -15658004.69847  21806780.520    21806788.837
  20525421.807   -28215596.77349 -21687705.81048  20525421.437    20525427.583
  20739249.941   -28185491.89149 -21702982.79447  20739249.336    20739257.064
  23104411.312   -13791097.37949 -10726783.49345  23104410.719    23104421.705
  23458606.490   -11125787.04549  -8652448.26246  23458606.295    23458616.502
  22663573.647   -14395775.23649 -11195033.99346  22663573.125    22663581.648
  21676380.238   -21192147.75149 -16496795.40947  21676379.914    21676386.554
  22461345.744   -13685473.94549 -10382795.84446  22461345.324    22461354.185
 03  3 29  1 27 30.0000000  0  8G 3G14G15G17G 9G23G18G31
  21812276.245   -20101629.66549 -15635501.41047  21812276.026    21812284.339
  20517417.167   -28257661.30549 -21720483.31648  20517416.798    20517422.913
  20748054.513   -28139223.61949 -21666929.61047  20748053.901    20748061.598
  23120639.422   -13705818.72249 -10660332.69545  23120638.775    23120649.743
  23460694.723   -11114813.49449  -8643897.41145  23460694.579    23460704.595
  22674303.920   -14339387.60449 -11151095.61346  22674303.386    22674311.932
  21686648.599   -21138187.44149 -16454748.43247  21686648.246    21686654.847
  22457299.767   -13706735.57349 -10399363.28646  22457299.335    22457308.168
 03  3 29  1 28  0.0000000  0  8G 3G14G15G17G 9G23G18G31
  21817870.548   -20072231.43549 -15612593.69747  21817870.333    21817878.642
  20509512.286   -28299201.52649 -21752852.26848  20509511.921    20509518.018
  20756937.734   -28092541.95049 -21630554.29847  20756937.121    20756944.845
  23136920.166   -13620262.95549 -10593665.97545  23136919.564    23136930.577
  23462895.424   -11103248.52549  -8634885.73245  23462895.256    23462905.329
  22685042.432   -14282956.71049 -11107123.52746  22685041.862    22685050.372
  21696942.129   -21084094.59549 -16412598.19047  21696941.790    21696948.424
  22453362.991   -13727423.18949 -10415483.43246  22453362.570    22453371.375
 03  3 29  1 28 30.0000000  0  8G 3G14G15G17G 9G23G18G31
  21823563.306   -20042315.78649 -15589282.79947  21823563.092    21823571.419
  20501707.235   -28340217.01149 -21784812.33748  20501706.884    20501712.966
  20765899.607   -28045447.20449 -21593857.10447  20765898.987    20765906.717
  23153253.510   -13534431.32849 -10526784.30845  23153252.876    23153263.988
  23465208.651   -11091092.25449  -8625413.29545  23465208.474    23465218.525
  22695789.017   -14226483.06449 -11063118.12346  22695788.472    22695796.960
  21707260.739   -21029869.95749 -16370345.24847  21707260.396    21707267.016
  22449535.508   -13747536.50049 -10431156.08346  22449535.051    22449543.866
 03  3 29  1 29  0.0000000  0  8G 3G14G15G17G 9G23G18G31
  21829354.220   -20011884.30549 -15565569.96547  21829353.983    21829362.318
  20494002.214   -28380707.06249 -21816362.97848  20494001.858    20494007.925
  20774940.014   -27997939.62749 -21556838.23347  20774939.389    20774947.113
  23169639.170   -13448324.25549 -10459688.01745  23169638.603    23169649.702
  23467634.553   -11078344.54449  -8615480.00046  23467634.365    23467644.309
  22706543.690   -14169967.01949 -11019079.69146  22706543.118    22706551.676
  21717604.331   -20975514.15549 -16327990.10547  21717603.976    21717610.570
  22445817.355   -13767075.26949 -10446381.03646  22445816.904    22445825.711
 03  3 29  1 29 30.0000000  0  8G 3G14G15G17G 9G23G18G31
  21835242.894   -19980938.99849 -15541456.73947  21835242.666    21835251.016
  20486397.160   -28420671.63249 -21847504.15348  20486396.813    20486402.875
  20784058.911   -27950019.57249 -21519497.94547  20784058.286    20784065.996
  23186076.923   -13361943.69949 -10392378.62245  23186076.373    23186087.519
  23470172.914   -11065005.52649  -8605085.94646  23470172.728    23470182.700
  22717306.173   -14113409.30449 -10975008.78046  22717305.686    22717314.236
  21727972.610   -20921028.24349 -16285533.57947  21727972.298    21727978.906
  22442208.552   -13786039.50649 -10461158.30446  22442208.102    22442216.886
 03  3 29  1 30  0.0000000  0  8G 3G14G15G17G 9G23G18G31
  21841229.228   -19949480.68449 -15516943.77047  21841229.012    21841237.331
  20478892.421   -28460109.02049 -21878234.53948  20478892.078    20478898.134
  20793256.437   -27901686.33249 -21481835.70047  20793255.808    20793263.509
  23202566.706   -13275289.43649 -10324855.94445  23202566.177    23202577.372
  23472823.949   -11051074.15949  -8594230.32646  23472823.693    23472833.727
  22728076.897   -14056809.32449 -10930904.93346  22728076.340    22728084.863
  21738365.812   -20866412.02349 -16242975.51547  21738365.473    21738372.039
  22438709.299   -13804428.00249 -10475486.93846  22438708.805    22438717.603
 03  3 29  1 30 30.0000000  0  8G 3G14G15G17G 9G23G18G31
  21847312.744   -19917511.48249 -15492032.71147  21847312.510    21847320.838
  20471487.939   -28499019.66949 -21908554.47648  20471487.584    20471493.635
  20802532.394   -27852940.84449 -21443852.22547  20802531.747    20802539.480
  23219108.316   -13188363.15449 -10257121.29945  23219107.815    23219119.059
  23475587.506   -11036551.14249  -8582913.65845  23475587.349    23475597.338
  22738855.284   -14000168.17349 -10886769.00646  22738854.778    22738863.349
  21748783.444   -20811666.90149 -16200316.99547  21748783.091    21748789.689
  22435319.507   -13822241.20649 -10489367.28746  22435319.042    22435327.804
 03  3 29  1 31  0.0000000  0  8G 3G14G15G17G 9G23G18G31
  21853493.244   -19885032.80949 -15466724.65947  21853493.002    21853501.352
  20464183.935   -28537402.39149 -21938463.04248  20464183.571    20464189.601
  20811886.880   -27803782.79349 -21405547.26747  20811886.231    20811893.952
  23235701.600   -13101165.41749 -10189175.15445  23235701.059    23235712.324
  23478463.770   -11021436.07949  -8571135.68845  23478463.628    23478473.630
  22749641.588   -13943485.65549 -10842600.84646  22749641.121    22749649.704
  21759225.637   -20756793.08649 -16157558.20747  21759225.252    21759231.896
  22432039.312   -13839478.47349 -10502798.85846  22432038.853    22432047.595
 03  3 29  1 31 30.0000000  0  8G 3G14G15G17G 9G23G18G31
  21859770.419   -19852046.02749 -15441020.68747  21859770.196    21859778.523
  20456980.482   -28575256.65949 -21967959.82948  20456980.107    20456986.096
  20821319.840   -27754212.22049 -21366920.86647  20821319.191    20821326.926
  23252346.387   -13013696.70649 -10121017.86345  23252345.935    23252357.205
  23481452.828   -11005728.52549  -8558896.00945  23481452.638    23481462.621
  22760435.802   -13886761.98249 -10798400.62446  22760435.288    22760443.840
  21769692.197   -20701790.87849 -16114699.37247  21769691.846    21769698.486
  22428868.806   -13856139.34149 -10515781.28946  22428868.348    22428877.050
 03  3 29  1 32  0.0000000  0  8G 3G14G15G17G 9G23G18G31
  21866143.891   -19818553.18149 -15414922.37147  21866143.664    21866151.979
  20449877.634   -28612582.25549 -21997044.66248  20449877.255    20449883.239
  20830831.238   -27704229.60749 -21327973.39747  20830830.596    20830838.338
  23269042.552   -12925958.35049 -10052650.43345  23269042.018    23269053.385
  23484554.513   -10989429.05249  -8546195.11346  23484554.361    23484564.288
  22771237.665   -13829997.99049 -10754168.97346  22771237.171    22771245.770
  21780182.955   -20646661.50249 -16071741.44347  21780182.613    21780189.250
  22425807.945   -13872223.99249 -10528314.72546  22425807.486    22425816.156
 03  3 29  1 32 30.0000000  0  8G 3G14G15G17G 9G23G18G31
  21872613.357   -19784556.00549 -15388431.08347  21872613.115    21872621.441
  20442875.451   -28649378.81549 -22025717.26148  20442875.082    20442881.041
  20840420.947   -27653835.30949 -21288705.13147  20840420.307    20840428.068
  23285789.801   -12837951.53449  -9984073.81445  23285789.294    23285800.646
  23487768.841   -10972537.35449  -8533032.76846  23487768.616    23487778.571
  22782047.137   -13773193.72849 -10709905.95346  22782046.677    22782055.282
  21790697.906   -20591405.41349 -16028684.78547  21790697.534    21790704.173
  22422856.790   -13887732.15649 -10540398.96146  22422856.320    22422864.991
 03  3 29  1 33  0.0000000  0  8G 3G14G15G17G 9G23G18G31
  21879178.534   -19750055.82749 -15361547.83547  21879178.300    21879186.623
  20435974.057   -28685645.53749 -22053976.99848  20435973.690    20435979.633
  20850089.013   -27603029.36849 -21249116.10947  20850088.384    20850096.147
  23302587.948   -12749676.86649  -9915288.45845  23302587.454    23302598.863
  23491095.874   -10955053.64849  -8519409.09346  23491095.742    23491105.670
  22792864.393   -13716349.32649 -10665611.64546  22792863.869    22792872.454
  21801236.907   -20536022.96749 -15985529.66747  21801236.518    21801243.173
  22420015.388   -13902663.54949 -10552033.75146  22420014.937    22420023.577
 03  3 29  1 33 30.0000000  0  8G 3G14G15G17G 9G23G18G31
  21885839.029   -19715054.56249 -15334274.13047  21885838.809    21885847.145
  20429173.554   -28721382.22649 -22081823.72448  20429173.188    20429179.115
  20859835.378   -27551811.87949 -21209206.39847  20859834.747    20859842.522
  23319436.976   -12661135.28749  -9846295.15045  23319436.440    23319447.903
  23494535.580   -10936978.07749  -8505324.20945  23494535.412    23494545.317
  22803689.064   -13659465.20549 -10621286.39146  22803688.575    22803697.149
  21811799.715   -20480515.06149 -15942276.77747  21811799.346    21811805.990
  22417283.761   -13917018.10649 -10563219.05346  22417283.288    22417291.938
 03  3 29  1 34  0.0000000  0  8G 3G14G15G17G 9G23G18G31
  21892594.565   -19679553.88049 -15306611.27547  21892594.352    21892602.691
  20422474.048   -28756588.36549 -22109257.03548  20422473.676    20422479.590
  20869660.021   -27500183.10149 -21168976.20647  20869659.405    20869667.162
  23336336.560   -12572328.12549  -9777094.87345  23336336.030    23336347.545
  23498087.883   -10918310.63349  -8490778.13746  23498087.713    23498097.606
  22814521.301   -13602541.64749 -10576930.42046  22814520.826    22814529.429
  21822386.266   -20424882.30149 -15898926.61247  21822385.946    21822392.609
  22414661.936   -13930795.70149 -10573954.78946  22414661.493    22414670.101
 03  3 29  1 34 30.0000000  0  8G 3G14G15G17G 9G23G18G31
  21899444.839   -19643555.63949 -15278560.70747  21899444.620    21899452.959
  20415875.521   -28791263.64649 -22136276.68948  20415875.154    20415881.036
  20879562.854   -27448143.42449 -21128425.83547  20879562.230    20879570.010
  23353286.526   -12483255.74349  -9707687.95245  23353285.976    23353297.474
  23501752.780   -10899051.14949  -8475770.75046  23501752.704    23501762.648
  22825360.999   -13545578.71249 -10532543.74946  22825360.502    22825369.135
  21832996.512   -20369125.02449 -15855479.41447  21832996.181    21833002.854
  22412149.904   -13943996.20349 -10584240.84246  22412149.452    22412158.045
 03  3 29  1 35  0.0000000  0  8G 3G14G15G17G 9G23G18G31
  21906389.358   -19607061.84649 -15250123.98847  21906389.152    21906397.492
  20409378.088   -28825407.64749 -22162882.35948  20409377.722    20409383.595
  20889543.809   -27395693.15649 -21087555.51547  20889543.190    20889550.958
  23370286.752   -12393919.44449  -9638075.37745  23370286.227    23370297.763
  23505530.412   -10879199.78849  -8460302.14346  23505530.260    23505540.163
  22836208.221   -13488576.71649 -10488126.65146  22836207.682    22836216.295
  21843630.377   -20313243.90249 -15811935.71247  21843630.009    21843636.719
  22409747.707   -13956619.50249 -10594077.12546  22409747.265    22409755.856
 03  3 29  1 35 30.0000000  0  8G 3G14G15G17G 9G23G18G31
  21913427.886   -19570074.25349 -15221302.49747  21913427.680    21913436.006
  20402981.819   -28859020.09549 -22189073.83248  20402981.450    20402987.319
  20899602.854   -27342832.65749 -21046365.53347  20899602.207    20899609.977
  23387337.002   -12304320.48849  -9568258.11245  23387336.414    23387347.971
  23509420.536   -10858757.02749  -8444372.70546  23509420.398    23509430.335
  22847062.688   -13431536.16849 -10443679.51346  22847062.148    22847070.798
  21854287.595   -20257239.77549 -15768296.15947  21854287.242    21854293.985
  22407455.343   -13968665.79149 -10603463.80246  22407454.872    22407463.480
 03  3 29  1 36  0.0000000  0  8G 3G14G15G17G 9G23G18G31
  21920560.077   -19532594.32249 -15192097.35947  21920559.872    21920568.176
  20396686.840   -28892100.33149 -22214850.59648  20396686.458    20396692.303
  20909739.984   -27289561.86249 -21004855.84647  20909739.339    20909747.120
  23404437.063   -12214459.46949  -9498236.65645  23404436.475    23404448.097
  23513423.091   -10837722.74749  -8427982.37846  23513423.055    23513432.959
  22857924.554   -13374457.03549 -10399202.30346  22857924.028    22857932.673
  21864968.171   -20201112.76149 -15724560.85547  21864967.858    21864974.658
  22405272.855   -13980134.72849 -10612400.58346  22405272.393    22405280.961
 03  3 29  1 36 30.0000000  0  8G 3G14G15G17G 9G23G18G31
  21927785.612   -19494624.03249 -15162510.12947  21927785.380    21927793.683
  20390493.106   -28924648.42549 -22240212.70048  20390492.726    20390498.561
  20919955.004   -27235881.43749 -20963026.96047  20919954.367    20919962.141
  23421586.742   -12124337.80149  -9428012.07645  23421586.262    23421597.745
  23517538.368   -10816097.52949  -8411131.55746  23517538.238    23517548.080
  22868793.695   -13317339.70249 -10354695.33646  22868793.094    22868801.779
  21875672.056   -20144863.84149 -15680730.56047  21875671.688    21875678.453
  22403200.182   -13991026.55049 -10620887.66646  22403199.698    22403208.234
 03  3 29  1 37  0.0000000  0  8G 3G14G15G17G 9G23G18G31
  21935104.108   -19456165.09049 -15132542.12447  21935103.884    21935112.213
  20384400.733   -28956663.94749 -22265159.82248  20384400.343    20384406.147
  20930247.964   -27181791.63649 -20920879.08647  20930247.321    20930255.095
  23438785.855   -12033956.31349  -9357585.06745  23438785.387    23438796.852
  23521765.935   -10793881.40349  -8393820.25946  23521765.780    23521775.655
  22879669.962   -13260184.41049 -10310158.78046  22879669.394    22879678.072
  21886399.000   -20088493.29449 -15636805.49047  21886398.662    21886405.457
  22401237.372   -14001341.14649 -10628924.98246  22401236.857    22401245.354
 03  3 29  1 37 30.0000000  0  8G 3G14G15G17G 9G23G18G31
  21942515.200   -19417219.41749 -15102194.85247  21942514.993    21942523.313
  20378409.743   -28988146.59949 -22289691.71848  20378409.351    20378415.135
  20940618.849   -27127292.38649 -20878412.15347  20940618.192    20940625.981
  23456034.322   -11943315.76749  -9286956.18445  23456033.756    23456045.299
  23526105.914   -10771074.56749  -8376048.67546  23526105.787    23526115.694
  22890553.475   -13202991.18449 -10265592.66946  22890552.930    22890561.573
  21897149.048   -20032001.60449 -15592786.02347  21897148.759    21897155.508
  22399384.364   -14011078.55349 -10636512.53046  22399383.859    22399392.309
 03  3 29  1 38  0.0000000  0  8G 3G14G15G17G 9G23G18G31
  21950018.577   -19377789.07649 -15071469.91647  21950018.348    21950026.688
  20372520.237   -29019095.96349 -22313808.06448  20372519.838    20372525.625
  20951067.541   -27072384.15449 -20835626.53747  20951066.898    20951074.677
  23473331.796   -11852417.44449  -9216126.43145  23473331.191    23473342.794
  23530558.216   -10747677.31449  -8357817.07146  23530558.093    23530568.031
  22901444.195   -13145760.15149 -10220997.09446  22901443.661    22901452.309
  21907922.125   -19975389.08149 -15548672.40747  21907921.791    21907928.506
  22397641.215   -14020238.74649 -10643650.30746  22397640.696    22397649.147
 03  3 29  1 38 30.0000000  0  8G 3G14G15G17G 9G23G18G31
  21957613.810   -19337875.71749 -15040368.59747  21957613.580    21957621.913
  20366732.288   -29049511.70949 -22337508.60548  20366731.895    20366737.683
  20961594.011   -27017067.34649 -20792522.54547  20961593.371    20961601.158
  23490678.012   -11761262.32549  -9145096.58945  23490677.562    23490689.110
  23535122.837   -10723689.87949  -8339125.51046  23535122.783    23535132.701
  22912342.112   -13088491.47249 -10176372.18946  22912341.566    22912350.250
  21918718.089   -19918656.23349 -15504465.01747  21918717.728    21918724.441
  22396007.890   -14028821.68349 -10650338.26646  22396007.386    22396015.811
 03  3 29  1 39  0.0000000  0  8G 3G14G15G17G 9G23G18G31
  21965300.712   -19297480.96249 -15008892.16247  21965300.479    21965308.765
  20361045.886   -29079393.75049 -22360793.27148  20361045.482    20361051.275
  20972198.163   -26961342.19049 -20749100.36047  20972197.520    20972205.315
  23508072.922   -11669851.58449  -9073867.54945  23508072.610    23508084.191
  23539799.821   -10699112.47049  -8319974.25646  23539799.727    23539809.663
  22923247.084   -13031185.41749 -10131718.14346  22923246.546    22923255.307
  21929536.811   -19861803.80249 -15460164.44747  21929536.438    21929543.127
  22394484.390   -14036827.61149 -10656576.62046  22394483.861    22394492.303
 03  3 29  1 39 30.0000000  0  8G 3G14G15G17G 9G23G18G31
  21973078.705   -19256607.29449 -14977042.54747  21973078.474    21973086.788
  20355461.016   -29108742.23449 -22383662.17948  20355460.618    20355466.384
  20982879.884   -26905209.45349 -20705360.58147  20982879.225    20982887.035
  23525516.364   -11578186.39549  -9002440.25245  23525515.924    23525527.560
  23544588.815   -10673945.69049  -8300363.78946  23544588.690    23544598.772
  22934159.218   -12973842.29449 -10087035.23246  22934158.623    22934167.342
  21940378.119   -19804832.54249 -15415771.28047  21940377.733    21940384.393
  22393070.601   -14044256.86749 -10662365.60746  22393070.090    22393078.529
 03  3 29  1 40  0.0000000  0  8G 3G14G15G17G 9G23G18G31
  21980947.451   -19215256.80549 -14944821.39747  21980947.217    21980955.534
  20349977.786   -29137556.65649 -22406114.94248  20349977.394    20349983.151
  20993639.084   -26848669.54649 -20661303.53547  20993638.427    20993646.242
  23543008.060   -11486267.58849  -8930815.33545  23543007.595    23543019.256
  23549490.005   -10648190.10449  -8280294.44446  23549489.848    23549499.924
  22945078.237   -12916462.22749 -10042323.52846  22945077.723    22945086.363
  21951242.004   -19747742.77849 -15371285.77147  21951241.592    21951248.226
  22391766.542   -14051109.62949 -10667705.40046  22391766.033    22391774.486
 03  3 29  1 40 30.0000000  0  8G 3G14G15G17G 9G23G18G31
  21988906.596   -19173431.11649 -14912229.95847  21988906.367    21988914.702
  20344596.218   -29165836.80749 -22428151.38448  20344595.829    20344601.562
  21004475.790   -26791722.40349 -20616929.15947  21004475.134    21004482.945
  23560547.695   -11394096.32449  -8858993.67745  23560547.252    23560558.879
  23554503.097   -10621845.95849  -8259766.50546  23554502.956    23554512.851
  22956004.393   -12859045.10749  -9997582.93046  22956003.859    22956012.532
  21962128.292   -19690534.81949 -15326708.15947  21962127.925    21962134.577
  22390572.169   -14057385.71249 -10672595.82446  22390571.710    22390580.128
 03  3 29  1 41  0.0000000  0  8G 3G14G15G17G 9G23G18G31
  21996955.808   -19131132.27449 -14879269.82147  21996955.565    21996963.915
  20339316.339   -29193582.67449 -22449771.50648  20339315.945    20339321.660
  21015389.887   -26734368.65549 -20572237.95447  21015389.219    21015397.028
  23578135.215   -11301673.51249  -8786976.01645  23578134.798    23578146.414
  23559628.132   -10594913.83849  -8238780.39545  23559627.910    23559637.762
  22966937.561   -12801591.31349  -9952813.77446  22966936.950    22966945.740
  21973036.997   -19633209.47449 -15282039.09047  21973036.593    21973043.242
  22389487.500   -14063085.65849 -10677037.31846  22389487.031    22389495.412
 03  3 29  1 41 30.0000000  0  8G 3G14G15G17G 9G23G18G31
  22005094.658   -19088362.29949 -14845942.57247  22005094.410    22005102.749
  20334138.154   -29220794.11849 -22470975.19448  20334137.759    20334143.464
  21026381.300   -26676608.46949 -20527230.03347  21026380.650    21026388.437
  23595770.485   -11209000.06049  -8714763.05945  23595770.019    23595781.714
  23564864.775   -10567394.25049  -8217336.54245  23564864.683    23564874.543
  22977877.513   -12744100.94149  -9908016.10746  22977876.947    22977885.816
  21983967.928   -19575766.85349 -15237278.62747  21983967.556    21983974.262
  22388512.376   -14068209.68349 -10681030.03246  22388511.926    22388520.296
 03  3 29  1 42  0.0000000  0  8G 3G14G15G17G 9G23G18G31
  22013322.768   -19045123.45849 -14812249.96847  22013322.504    22013330.838
  20329061.557   -29247471.57649 -22491762.78648  20329061.174    20329066.863
  21037449.833   -26618442.92749 -20481906.25547  21037449.177    21037456.986
  23613453.145   -11116077.75849  -8642356.18645  23613452.577    23613464.435
  23570213.263   -10539288.02449  -8195435.55745  23570213.102    23570222.944
  22988824.469   -12686574.57249  -9863190.38246  22988823.898    22988832.768
  21994921.023   -19518208.08649 -15192427.65247  21994920.663    21994927.319
  22387646.794   -14072758.33549 -10684574.41146  22387646.325    22387654.700
 03  3 29  1 42 30.0000000  0  8G 3G14G15G17G 9G23G18G31
  22021639.696   -19001417.48549 -14778193.36347  22021639.446    22021647.769
  20324086.704   -29273614.40249 -22512133.78848  20324086.318    20324091.988
  21048595.511   -26559872.13749 -20436266.70647  21048594.851    21048602.661
  23631182.810   -11022908.08049  -8569756.55845  23631182.313    23631194.129
  23575673.224   -10510595.32349  -8173077.57246  23575673.151    23575683.002
  22999778.262   -12629012.04549  -9818336.49746  22999777.685    22999786.495
  22005896.220   -19460533.20349 -15147486.21047  22005895.836    22005902.548
  22386890.670   -14076731.55049 -10687670.39446  22386890.209    22386898.541
 03  3 29  1 43  0.0000000  0  8G 3G14G15G17G 9G23G18G31
  22030045.240   -18957246.18949 -14743774.17547  22030044.987    22030053.292
  20319213.657   -29299222.39149 -22532088.03348  20319213.271    20319218.937
  21059818.204   -26500896.52249 -20390311.70647  21059817.532    21059825.355
  23648959.557   -10929491.11249  -8496964.24745  23648958.917    23648970.940
  23581244.824   -10481316.29149  -8150262.72845  23581244.695    23581254.616
  23010739.009   -12571412.98249  -9773454.13446  23010738.467    23010747.287
  22016893.439   -19402742.32049 -15102454.38147  22016893.092    22016899.815
  22386244.070   -14080129.39249 -10690318.03746  22386243.616    22386251.947
 03  3 29  1 43 30.0000000  0  8G 3G14G15G17G 9G23G18G31
  22038538.792   -18912612.32949 -14708994.54947  22038538.527    22038546.829
  20314442.274   -29324296.00749 -22551625.88348  20314441.895    20314447.551
  21071117.831   -26441516.79649 -20344041.81547  21071117.159    21071124.976
  23666783.120   -10835828.31449  -8423980.38145  23666782.616    23666794.603
  23586927.731   -10451452.11749  -8126991.90745  23586927.739    23586937.504
  23021706.601   -12513778.11149  -9728543.87346  23021706.015    23021714.857
  22027912.540   -19344836.59549 -15057333.05747  22027912.174    22027918.911
  22385706.765   -14082952.73149 -10692518.00246  22385706.328    22385714.626
 03  3 29  1 44  0.0000000  0  8G 3G14G15G17G 9G23G18G31
  22047119.970   -18867517.84549 -14673855.99047  22047119.716    22047128.018
  20309772.579   -29348835.18349 -22570747.28248  20309772.197    20309777.853
  21082494.257   -26381733.22749 -20297457.23947  21082493.584    21082501.412
  23684653.256   -10741920.95749  -8350805.92445  23684652.756    23684664.728
  23592721.985   -10421003.24449  -8103265.48645  23592721.869    23592731.714
  23032680.928   -12456107.54749  -9683605.80046  23032680.386    23032689.154
  22038953.478   -19286816.19949 -15012122.37847  22038953.110    22038959.859
  22385278.769   -14085201.84349 -10694270.51646  22385278.284    22385286.589
 03  3 29  1 44 30.0000000  0  8G 3G14G15G17G 9G23G18G31
  22055788.443   -18821964.81849 -14638360.12847  22055788.186    22055796.488
  20305204.594   -29372839.97949 -22589452.28848  20305204.210    20305209.846
  21093947.473   -26321546.41049 -20250558.44847  21093946.794    21093954.623
  23702569.606   -10647770.30049  -8277441.90645  23702569.112    23702581.146
  23598627.278   -10389970.47249  -8079084.07745  23598627.160    23598637.024
  23043662.112   -12398401.45949  -9638640.04946  23043661.525    23043670.243
  22050016.108   -19228681.66549 -14966822.76547  22050015.742    22050022.486
  22384959.918   -14086877.18249 -10695575.94746  22384959.455    22384967.753
 03  3 29  1 45  0.0000000  0  8G 3G14G15G17G 9G23G18G31
  22064543.822   -18775954.89349 -14602508.24047  22064543.584    22064551.860
  20300738.377   -29396309.93949 -22607740.53848  20300737.992    20300743.615
  21105477.367   -26260956.53049 -20203345.58147  21105476.682    21105484.521
  23720532.087   -10553377.54749  -8203889.24645  23720531.558    23720543.618
  23604643.691   -10358353.97849  -8054447.81345  23604643.555    23604653.427
  23054650.000   -12340659.54949  -9593646.38946  23054649.448    23054658.238
  22061100.489   -19170433.08949 -14921434.29347  22061100.128    22061106.813
  22384750.243   -14087978.80149 -10696434.32146  22384749.800    22384758.080
 03  3 29  1 45 30.0000000  0  8G 3G14G15G17G 9G23G18G31
  22073385.666   -18729490.61449 -14566302.30247  22073385.433    22073393.722
  20296373.887   -29419245.37649 -22625612.26848  20296373.503    20296379.104
  21117083.772   -26199964.43249 -20155819.29747  21117083.108    21117090.949
  23738540.383   -10458743.75749  -8130148.74945  23738539.811    23738551.953
  23610770.931   -10326154.54849  -8029357.34245  23610770.763    23610780.759
  23065644.707   -12282881.94549  -9548624.90446  23065644.167    23065652.974
  22072206.421   -19112071.02649 -14875957.38247  22072206.040    22072212.800
  22384649.662   -14088507.34949 -10696846.13846  22384649.180    22384657.470
 03  3 29  1 46  0.0000000  0  8G 3G14G15G17G 9G23G18G31
  22082313.647   -18682573.80649 -14529743.76347  22082313.402    22082321.708
  20292111.119   -29441646.21049 -22643067.43248  20292110.744    20292116.331
  21128766.687   -26138570.45549 -20107979.86447  21128766.020    21128773.851
  23756594.366   -10363869.38749  -8056220.79445  23756593.942    23756606.042
  23617009.030   -10293372.76349  -8003813.07145  23617008.964    23617018.848
  23076646.339   -12225068.54449  -9503575.53546  23076645.771    23076654.551
  22083333.955   -19053595.70149 -14830392.21647  22083333.596    22083340.298
  22384658.085   -14088462.92549 -10696811.48646  22384657.604    22384665.902
 03  3 29  1 46 30.0000000  0  8G 3G14G15G17G 9G23G18G31
  22091327.205   -18635207.30949 -14492834.81447  22091326.943    22091335.229
  20287949.940   -29463513.27749 -22660106.67048  20287949.555    20287955.125
  21140525.843   -26076775.72149 -20059828.14747  21140525.169    21140533.006
  23774693.928   -10268756.08749  -7982106.64145  23774693.512    23774705.630
  23623357.744   -10260010.14149  -7977816.19045  23623357.630    23623367.580
  23087654.449   -12167220.18749  -9458498.91846  23087653.940    23087662.718
  22094482.715   -18995008.35549 -14784739.76747  22094482.388    22094489.150
  22384775.316   -14087846.82749 -10696331.36946  22384774.813    22384783.110
 03  3 29  1 47  0.0000000  0  8G 3G14G15G17G 9G23G18G31
  22100425.929   -18587393.13649 -14455577.03047  22100425.683    22100433.980
  20283890.340   -29484846.42149 -22676729.86648  20283889.955    20283895.531
  21152361.183   -26014580.72149 -20011364.53947  21152360.496    21152368.350
  23792838.536   -10173405.99049  -7907808.00345  23792838.071    23792850.211
  23629816.735   -10226067.40449  -7951367.27345  23629816.598    23629826.671
  23098669.286   -12109336.75149  -9413394.98846  23098668.794    23098677.539
  22105652.844   -18936309.10949 -14739000.11847  22105652.495    22105659.251
  22385001.226   -14086659.34349 -10695406.02446  22385000.727    22385008.995
 03  3 29  1 47 30.0000000  0  8G 3G14G15G17G 9G23G18G31
  22109609.529   -18539133.07849 -14417971.79947  22109609.266    22109617.569
  20279932.411   -29505645.26449 -22692936.72648  20279932.035    20279937.612
  21164272.616   -25951985.65149 -19962589.18647  21164271.959    21164279.814
  23811028.146   -10077819.60649  -7833325.22645  23811027.548    23811039.800
  23636386.144   -10191544.90749  -7924466.58445  23636386.070    23636396.022
  23109690.942   -12051417.87349  -9368263.43146  23109690.434    23109699.131
  22116844.165   -18877498.05349 -14693173.34547  22116843.867    22116850.635
  22385335.888   -14084900.60749 -10694035.55146  22385335.385    22385343.628
 03  3 29  1 48  0.0000000  0  8G 3G14G15G17G 9G23G18G31
  22118877.441   -18490429.79849 -14380021.20547  22118877.180    22118885.492
  20276076.080   -29525910.33049 -22708727.65948  20276075.705    20276081.273
  21176260.068   -25888991.30349 -19913502.71047  21176259.411    21176267.284
  23829262.554    -9981998.02349  -7758659.16145  23829261.945    23829274.191
  23643065.745   -10156443.56449  -7897114.85345  23643065.627    23643075.549
  23120719.262   -11993463.88149  -9323104.52346  23120718.719    23120727.475
  22128056.757   -18818575.70949 -14647259.86447  22128056.405    22128063.197
  22385779.080   -14082571.50649 -10692220.62546  22385778.598    22385786.809
 03  3 29  1 48 30.0000000  0  8G 3G14G15G17G 9G23G18G31
  22128229.347   -18441285.26149 -14341726.77347  22128229.096    22128237.402
  20272321.274   -29545641.85149 -22724102.83948  20272320.894    20272326.443
  21188323.376   -25825598.14449 -19864105.46847  21188322.709    21188330.607
  23847541.387    -9885942.65849  -7683810.93145  23847540.731    23847553.057
  23649855.234   -10120764.17749  -7869312.73345  23649855.067    23649865.133
  23131754.218   -11935474.81849  -9277918.27946  23131753.700    23131762.422
  22139290.421   -18759542.42149 -14601259.92247  22139290.048    22139296.855
  22386330.667   -14079672.61149 -10689961.72146  22386330.186    22386338.414
 03  3 29  1 49  0.0000000  0  8G 3G14G15G17G 9G23G18G31
  22137664.804   -18391701.47249 -14303090.07447  22137664.564    22137672.850
  20268668.007   -29564839.81249 -22739062.26248  20268667.603    20268673.160
  21200462.485   -25761806.85149 -19814397.99447  21200461.826    21200469.724
  23865864.486    -9789654.45849  -7608781.27645  23865863.797    23865876.197
  23656754.608   -10084507.52449  -7841060.76345  23656754.450    23656764.478
  23142795.968   -11877450.55349  -9232704.60146  23142795.466    23142804.060
  22150545.202   -18700398.40049 -14555173.70047  22150544.837    22150551.597
  22386990.612   -14076204.43249 -10687259.21546  22386990.129    22386998.362
 03  3 29  1 49 30.0000000  0  8G 3G14G15G17G 9G23G18G31
  22147183.368   -18341681.17549 -14264113.22047  22147183.124    22147191.399
  20265116.121   -29583504.96949 -22753606.50848  20265115.712    20265121.260
  21212677.144   -25697618.48549 -19764381.11647  21212676.479    21212684.396
  23884231.557    -9693135.49749  -7533571.81245  23884230.941    23884243.284
  23663763.628   -10047674.78049  -7812359.91645  23663763.508    23663773.472
  23153844.317   -11819391.55549  -9187463.85746  23153843.758    23153852.419
  22161820.823   -18641144.68549 -14509001.99947  22161820.461    22161827.210
  22387758.705   -14072167.92049 -10684113.84646  22387758.228    22387766.480
 03  3 29  1 50  0.0000000  0  8G 3G14G15G17G 9G23G18G31
  22156784.630   -18291226.27749 -14224797.72547  22156784.367    22156792.647
  20261665.666   -29601637.11849 -22767735.42748  20261665.271    20261670.800
  21224967.348   -25633033.10549 -19714054.88147  21224966.691    21224974.586
  23902642.384    -9596386.28949  -7458182.91245  23902641.805    23902654.058
  23670882.189   -10010266.54749  -7783210.62345  23670881.980    23670892.033
  23164899.292   -11761297.40449  -9142195.72446  23164898.705    23164907.428
  22173117.395   -18581781.29149 -14462744.84147  22173116.961    22173123.744
  22388634.917   -14067563.35749 -10680525.85746  22388634.391    22388642.668
 03  3 29  1 50 30.0000000  0  8G 3G14G15G17G 9G23G18G31
  22166468.009   -18240339.71849 -14185145.87347  22166467.764    22166476.036
  20258316.540   -29619236.80149 -22781449.43848  20258316.140    20258321.669
  21237332.875   -25568051.90249 -19663420.20847  21237332.221    21237340.143
  23921096.695    -9499408.63949  -7382616.04745  23921096.069    23921108.492
  23678109.953    -9972284.10149  -7753613.90845  23678109.676    23678119.806
  23175960.816   -11703168.60149  -9096900.58846  23175960.247    23175969.048
  22184434.577   -18522308.83149 -14416402.68747  22184434.216    22184441.025
  22389618.986   -14062391.87749 -10676496.09346  22389618.450    22389626.754
 03  3 29  1 51  0.0000000  0  8G 3G14G15G17G 9G23G18G31
  22176233.315   -18189022.89049 -14145158.75947  22176233.053    22176241.343
  20255068.766   -29636303.78349 -22794748.35648  20255068.358    20255073.889
  21249773.689   -25502674.99249 -19612477.19347  21249773.048    21249780.978
  23939594.346    -9402203.08749  -7306871.55145  23939593.774    23939606.092
  23685446.864    -9933728.11449  -7723570.26445  23685446.657    23685456.556
  23187029.079   -11645004.52349  -9051577.96546  23187028.494    23187037.382
  22195772.632   -18462727.18349 -14369975.46047  22195772.237    22195779.023
  22390710.925   -14056653.54149 -10672024.64246  22390710.384    22390718.687
 03  3 29  1 51 30.0000000  0  8G 3G14G15G17G 9G23G18G31
  22186079.850   -18137279.01249 -14104838.86147  22186079.557    22186087.888
  20251922.170   -29652839.10149 -22807632.98748  20251921.766    20251927.286
  21262289.573   -25436903.65549 -19561226.82747  21262288.934    21262296.856
  23958135.088    -9304771.52949  -7230950.96945  23958134.539    23958146.821
  23692892.679    -9894600.04149  -7693080.82845  23692892.493    23692902.321
  23198104.009   -11586805.77449  -9006228.31146  23198103.397    23198112.303
  22207131.269   -18403037.22349 -14323463.81947  22207130.873    22207137.668
  22391910.451   -14050349.89649 -10667112.68546  22391909.914    22391918.214
 03  3 29  1 52  0.0000000  0  8G 3G14G15G17G 9G23G18G31
  22196007.262   -18085109.99749 -14064187.70047  22196007.004    22196015.356
  20248876.839   -29668842.48949 -22820103.13448  20248876.435    20248881.930
  21274880.488   -25370738.14849 -19509669.32947  21274879.837    21274887.753
  23976718.574    -9207114.80449  -7154854.93145  23976718.002    23976730.419
  23700447.199    -9854900.44949  -7662146.09245  23700446.952    23700456.874
  23209185.542   -11528571.99949  -8960851.36146  23209184.925    23209193.824
  22218510.562   -18343238.76949 -14276867.63947  22218510.165    22218517.017
  22393217.470   -14043481.20949 -10661760.44246  22393216.958    22393225.224
 03  3 29  1 52 30.0000000  0  8G 3G14G15G17G 9G23G18G31
  22206015.169   -18032518.15649 -14023207.06147  22206014.906    22206023.266
  20245932.556   -29684314.72749 -22832159.38848  20245932.133    20245937.635
  21287546.209   -25304179.54549 -19457805.51047  21287545.549    21287553.456
  23995344.681    -9109234.30049  -7078584.49145  23995344.189    23995356.418
  23708110.294    -9814630.61049  -7630766.97045  23708110.077    23708120.086
  23220273.729   -11470303.42349  -8915447.30246  23220273.119    23220281.990
  22229910.362   -18283332.34349 -14230187.32347  22229909.954    22229916.806
  22394631.879   -14036048.37549 -10655968.60346  22394631.369    22394639.592
 03  3 29  1 53  0.0000000  0  8G 3G14G15G17G 9G23G18G31
  22216103.106   -17979505.78049 -13981898.74147  22216102.872    22216111.205
  20243089.314   -29699255.87249 -22843801.80848  20243088.891    20243094.385
  21300286.602   -25237228.39249 -19405635.81647  21300285.939    21300293.866
  24014013.190    -9011131.01049  -7002140.47845  24014012.615    24014024.963
  23715881.737    -9773791.43049  -7598944.20945  23715881.457    23715891.397
  23231368.510   -11411999.96449  -8870016.05346  23231367.928    23231376.763
  22241330.618   -18223318.44049 -14183423.25647  22241330.257    22241337.140
  22396153.494   -14028052.20349 -10649737.80746  22396152.976    22396161.186
 03  3 29  1 53 30.0000000  0  8G 3G14G15G17G 9G23G18G31
  22226270.552   -17926075.52949 -13940264.78847  22226270.303    22226278.640
  20240347.025   -29713666.52249 -22855030.86048  20240346.610    20240352.088
  21313101.507   -25169885.74349 -19353161.04947  21313100.837    21313108.784
  24032723.641    -8912807.12649  -6925524.56345  24032723.042    24032735.510
  23723761.178    -9732384.47549  -7566679.02145  23723760.952    23723770.723
  23242469.916   -11353661.89549  -8824557.83946  23242469.303    23242478.127
  22252771.290   -18163197.56649 -14136575.83647  22252770.887    22252777.777
  22397782.113   -14019493.77649 -10643068.89546  22397781.599    22397789.777
 03  3 29  1 54  0.0000000  0  8G 3G14G15G17G 9G23G18G31
  22236517.077   -17872229.77449 -13898307.07047  22236516.820    22236525.158
  20237705.624   -29727547.11849 -22865846.88048  20237705.218    20237710.684
  21325990.783   -25102152.24249 -19300381.72947  21325990.114    21325998.036
  24051475.957    -8814263.60349  -6848737.48445  24051475.250    24051487.627
  23731748.603    -9690410.51149  -7533972.00745  23731748.262    23731758.007
  23253577.921   -11295289.02549  -8779072.49446  23253577.313    23253586.151
  22264232.142   -18102970.16849 -14089645.39746  22264231.773    22264238.637
  22399517.575   -14010373.87549 -10635962.47046  22399517.057    22399525.206
 03  3 29  1 54 30.0000000  0  8G 3G14G15G17G 9G23G18G31
  22246842.216   -17817970.76849 -13856027.34947  22246841.952    22246850.300
  20235165.028   -29740897.84749 -22876250.01748  20235164.617    20235170.081
  21338954.336   -25034028.44149 -19247298.28547  21338953.660    21338961.594
  24070269.843    -8715501.21549  -6771779.86145  24070269.020    24070281.443
  23739843.639    -9647870.54249  -7500823.96845  23739843.458    23739853.058
  23264692.613   -11236881.11149  -8733559.86746  23264691.989    23264700.816
  22275713.460   -18042635.99449 -14042631.76846  22275713.055    22275719.829
  22401359.703   -14000693.08249 -10628418.98446  22401359.242    22401367.357
 03  3 29  1 55  0.0000000  0  8G 3G14G15G17G 9G23G18G31
  22257245.472   -17763301.31149 -13813427.79147  22257245.200    22257253.570
  20232725.144   -29753719.43249 -22886240.83048  20232724.736    20232730.182
  21351992.008   -24965515.13449 -19193911.31947  21351991.344    21351999.274
  24089105.045    -8616521.97349  -6694653.25045  24089104.160    24089116.623
  23748046.141    -9604766.25249  -7467236.17745  23748045.910    23748055.550
  23275813.766   -11178438.46549  -8688020.16346  23275813.220    23275822.173
  22287214.871   -17982195.61349 -13995535.37046  22287214.473    22287221.274
  22403308.385   -13990452.68949 -10620439.44346  22403307.893    22403316.033
 03  3 29  1 55 30.0000000  0  8G 3G14G15G17G 9G23G18G31
  22267726.482   -17708223.19049 -13770509.80247  22267726.204    22267734.595
  20230385.921   -29766012.04749 -22895819.46348  20230385.516    20230390.952
  21365103.698   -24896612.83249 -19140221.24447  21365103.047    21365110.976
  24107981.302    -8517326.91249  -6617358.45945  24107980.393    24107992.970
  23756355.924    -9561098.19349  -7433209.08745  23756355.757    23756365.357
  23286941.726   -11119960.77549  -8642453.14746  23286941.186    23286950.146
  22298736.480   -17921649.19649 -13948356.34746  22298736.106    22298742.895
  22405363.418   -13979653.26349 -10612024.29246  22405362.920    22405371.075
 03  3 29  1 56  0.0000000  0  8G 3G14G15G17G 9G23G18G31
  22278284.790   -17652739.13249 -13727275.49247  22278284.524    22278292.900
  20228147.191   -29777776.45649 -22904986.50948  20228146.785    20228152.205
  21378289.181   -24827322.67649 -19086228.94847  21378288.529    21378296.452
  24126898.332    -8417917.82949  -6539896.89145  24126897.376    24126910.165
  23764772.560    -9516867.85549  -7398743.88445  23764772.550    23764782.050
  23298076.311   -11061448.27149  -8596859.00846  23298075.738    23298084.721
  22310278.072   -17860997.42749 -13901095.23946  22310277.706    22310284.524
  22407524.642   -13968296.00049 -10603174.47046  22407524.114    22407532.274
 03  3 29  1 56 30.0000000  0  8G 3G14G15G17G 9G23G18G31
  22288919.815   -17596851.68449 -13683726.84747  22288919.552    22288927.929
  20226008.908   -29789013.18649 -22913742.37548  20226008.516    20226013.923
  21391548.249   -24757645.98049 -19031935.44947  21391547.590    21391555.509
  24145855.890    -8318295.82349  -6462269.41645  24145855.142    24145867.648
  23773296.096    -9472076.65449  -7363841.59145  23773296.049    23773305.423
  23309217.459   -11002900.97349  -8551237.75746  23309216.915    23309225.903
  22321839.760   -17800240.67149 -13853752.32146  22321839.392    22321846.136
  22409791.755   -13956382.17749 -10593890.96046  22409791.224    22409799.398
 03  3 29  1 57  0.0000000  0  9G 3G25G14G15G17G 9G23G18G31
  22299630.010   -17540569.32849 -13639870.48947  22299629.747    22299638.133
  24527485.776    -3332403.93249  -2586311.48145  24527485.806    24527499.935
  20223969.757   -29799728.81449 -22922092.19248  20223969.357    20223974.759
  21404879.725   -24687588.86349 -18977345.52147  21404879.060    21404887.002
  24164852.559    -8218468.21849  -6384481.73445  24164851.851    24164864.404
  23781924.937    -9426731.63649  -7328507.82445  23781924.836    23781934.354
  23320364.157   -10944324.59549  -8505593.85946  23320363.629    23320372.624
  22333420.173   -17739384.97549 -13806332.30946  22333419.795    22333426.652
  22412163.508   -13943918.50049 -10584178.99946  22412162.982    22412171.137
 03  3 29  1 57 30.0000000  0  9G 3G25G14G15G17G 9G23G18G31
  22310416.530   -17483886.03049 -13595701.71347  22310416.230    22310424.640
  24508818.020    -3430501.88149  -2662751.07745  24508818.119    24508832.163
  20222031.347   -29809915.24949 -22930029.65048  20222030.929    20222036.318
  21418284.979   -24617143.89049 -18922453.36747  21418284.310    21418292.251
  24183889.636    -8118427.47649  -6306527.95045  24183889.043    24183901.525
  23790660.561    -9380825.45449  -7292736.74945  23790660.438    23790670.066
  23331517.978   -10885710.41249  -8459920.48846  23331517.497    23331526.468
  22345021.031   -17678422.04049 -13758828.74646  22345020.645    22345027.578
  22414641.379   -13930897.28349 -10574032.58746  22414640.867    22414649.008
 03  3 29  1 58  0.0000000  0  9G 3G25G14G15G17G 9G23G18G31
  22321278.669   -17426805.19549 -13551223.16847  22321278.370    22321286.779
  24490140.188    -3528652.76249  -2739231.92745  24490140.160    24490154.156
  20220193.358   -29819573.93049 -22937555.87248  20220192.942    20220198.314
  21431763.705   -24546312.84849 -18867260.37847  21431763.039    21431770.998
  24202966.768    -8018176.53249  -6228410.37245  24202966.235    24202978.741
  23799502.567    -9334360.51749  -7256530.26945  23799502.437    23799511.963
  23342678.877   -10827059.57549  -8414218.56146  23342678.360    23342687.351
  22356642.006   -17617353.22549 -13711242.67046  22356641.639    22356648.546
  22417224.875   -13917320.77049 -10563453.46846  22417224.359    22417232.520
 03  3 29  1 58 30.0000000  0  9G 3G25G14G15G17G 9G23G18G31
  22332215.888   -17369329.83349 -13506437.20547  22332215.609    22332224.000
  24471452.655    -3626854.89049  -2815752.70645  24471452.547    24471466.491
  20218455.526   -29828706.17049 -22944671.88348  20218455.105    20218460.467
  21445315.604   -24475097.23549 -18811767.72847  21445314.937    21445322.878
  24222083.611    -7917717.27349  -6150130.50045  24222082.991    24222095.550
  23808450.559    -9287338.93449  -7219890.05745  23808450.373    23808459.961
  23353846.639   -10768372.59149  -8368488.46946  23353846.169    23353855.096
  22368283.001   -17556179.36849 -13663574.75746  22368282.600    22368289.489
  22419913.772   -13903190.53849 -10552442.88446  22419913.277    22419921.422
 03  3 29  1 59  0.0000000  0  9G 3G25G14G15G17G 9G23G18G31
  22343227.620   -17311462.92149 -13461346.13447  22343227.325    22343235.684
  24452755.804    -3725106.11449  -2892311.75245  24452755.740    24452769.309
  20216817.744   -29837312.73249 -22951378.27248  20216817.309    20216822.667
  21458940.489   -24403498.21349 -18755976.32447  21458939.815    21458947.766
  24241239.742    -7817051.35349  -6071689.57145  24241239.040    24241251.826
  23817504.100    -9239762.16449  -7182817.24145  23817503.905    23817513.459
  23365021.309   -10709649.56349  -8322730.29246  23365020.863    23365029.812
  22379943.858   -17494901.10349 -13615825.47546  22379943.497    22379950.388
  22422707.716   -13888508.08449 -10541001.99646  22422707.243    22422715.346
 03  3 29  1 59 30.0000000  0  9G 3G25G14G15G17G 9G23G18G31
  22354313.272   -17253207.56549 -13415952.36247  22354312.971    22354321.323
  24434049.880    -3823404.27849  -2968907.36045  24434050.030    24434063.389
  20215279.727   -29845394.95449 -22957676.08548  20215279.293    20215284.636
  21472637.975   -24331517.48149 -18699887.48047  21472637.292    21472645.235
  24260434.891    -7716180.33349  -5993088.81745  24260434.191    24260446.967
  23826662.897    -9191632.44849  -7145313.51645  23826662.694    23826672.084
  23376202.686   -10650891.22549  -8276944.60446  23376202.182    23376211.231
  22391624.538   -17433519.27649 -13567995.51346  22391624.121    22391630.965
  22425606.407   -13873275.28149 -10529132.27946  22425605.926    22425614.043
 03  3 29  2  0  0.0000000  0  9G 3G25G14G15G17G 9G23G18G31
  22365472.343   -17194566.38849 -13370257.96247  22365472.026    22365480.383
  24415335.719    -3921746.79449  -3045537.50845  24415335.666    24415349.243
  20213841.337   -29852953.54249 -22963565.87448  20213840.909    20213846.248
  21486407.910   -24259156.11149 -18643502.03247  21486407.220    21486415.164
  24279668.714    -7615105.99349  -5914329.62145  24279667.926    24279680.835
  23835926.681    -9142951.08349  -7107379.98445  23835926.491    23835935.925
  23387390.832   -10592097.42749  -8231131.28846  23387390.297    23387399.422
  22403324.784   -17372034.23349 -13520085.12646  22403324.381    22403331.246
  22428609.676   -13857493.15349 -10516834.50746  22428609.157    22428617.288
 03  3 29  2  0 30.0000000  0  8G 3G25G14G15G 9G23G18G31
  22376704.270   -17135542.31349 -13324265.19847  22376703.980    22376712.336
  24396613.555    -4020131.68449  -3122200.69545  24396613.467    24396626.826
  20212502.362   -29859989.85049 -22969048.68648  20212501.936    20212507.270
  21500250.011   -24186415.39649 -18586820.99047  21500249.337    21500257.306
  23845295.016    -9093719.90249  -7069018.01745  23845294.805    23845304.277
  23398585.622   -10533268.68149  -8185290.75146  23398585.067    23398594.146
  22415044.485   -17310446.86949 -13472094.99446  22415044.068    22415050.936
  22431717.081   -13841163.48249 -10504110.07946  22431716.596    22431724.674
 03  3 29  2  1  0.0000000  0  8G 3G25G14G15G 9G23G18G31
  22388008.664   -17076137.34949 -13277975.63847  22388008.374    22388016.758
  24377883.726    -4118555.68649  -3198894.32145  24377883.673    24377897.014
  20211262.762   -29866503.79149 -22974124.45948  20211262.334    20211267.653
  21514164.326   -24113295.40149 -18529844.40547  21514163.644    21514171.632
  23854767.814    -9043939.91949  -7030228.39745  23854767.598    23854777.052
  23409787.243   -10474404.18649  -8139422.34146  23409786.741    23409795.751
  22426783.710   -17248756.71249 -13424024.76646  22426783.321    22426790.183
  22434928.631   -13824286.82149 -10490959.41846  22434928.112    22434936.196
 03  3 29  2  1 30.0000000  0  8G 3G25G14G15G 9G23G18G31
  22399385.004   -17016354.30249 -13231391.46646  22399384.729    22399393.136
  24359147.067    -4217016.39649  -3275616.57745  24359146.933    24359160.235
  20210122.513   -29872495.97049 -22978793.66548  20210122.074    20210127.373
  21528150.578   -24039797.29449 -18472573.18247  21528149.892    21528157.906
  23864344.810    -8993612.39149  -6991012.13145  23864344.598    23864354.206
  23420995.732   -10415503.88849  -8093526.03446  23420995.132    23421004.128
  22438542.556   -17186963.88249 -13375874.54346  22438542.111    22438548.939
  22438243.990   -13806864.41349 -10477383.51146  22438243.467    22438251.562
 03  3 29  2  2  0.0000000  0  8G 3G25G14G15G 9G23G18G31
  22410832.865   -16956195.39249 -13184514.42246  22410832.604    22410841.012
  24340403.827    -4315511.04249  -3352365.26045  24340403.760    24340417.018
  20209081.381   -29877966.96549 -22983056.75048  20209080.934    20209086.229
  21542208.635   -23965921.83849 -18415007.93347  21542207.940    21542215.970
  23874025.775    -8942738.78149  -6951370.34145  23874025.517    23874035.149
  23432211.022   -10356567.57449  -8047601.67846  23432210.378    23432219.365
  22450320.898   -17125068.49349 -13327644.40246  22450320.446    22450327.324
  22441663.012   -13788897.33749 -10463383.18246  22441662.510    22441670.573
 03  3 29  2  2 30.0000000  0  8G 3G25G14G15G 9G23G18G31
  22422351.766   -16895663.30149 -13137346.58246  22422351.499    22422359.919
  24321654.614    -4414037.03749  -3429138.38845  24321654.580    24321667.747
  20208139.278   -29882917.72249 -22986914.45448  20208138.847    20208144.116
  21556338.307   -23891670.02549 -18357149.41247  21556337.618    21556345.634
  23883810.360    -8891320.61049  -6911304.22945  23883810.053    23883819.677
  23443432.954   -10297595.24149  -8001649.24746  23443432.359    23443441.429
  22462118.522   -17063071.25149 -13279334.89046  22462118.129    22462125.056
  22445185.425   -13770386.94349 -10448959.49046  22445184.922    22445192.962
 03  3 29  2  3  0.0000000  0  8G 3G25G14G15G 9G23G18G31
  22433941.154   -16834760.70249 -13089890.03046  22433940.906    22433949.313
  24302899.889    -4512592.01049  -3505934.06945  24302899.973    24302913.016
  20207295.976   -29887349.16349 -22990367.50348  20207295.551    20207300.808
  21570539.428   -23817042.86649 -18298998.42547  21570538.747    21570546.759
  23893698.191    -8839359.60749  -6870815.11945  23893697.887    23893707.558
  23454661.901   -10238586.71049  -7955668.61846  23454661.275    23454670.307
  22473935.644   -17000972.25649 -13230946.09346  22473935.258    22473942.139
  22448810.942   -13751334.63649 -10434113.53146  22448810.442    22448818.475
 03  3 29  2  3 30.0000000  0  8G 3G25G14G15G 9G23G18G31
  22445600.526   -16773490.41949 -13042146.97346  22445600.234    22445608.662
  24284140.185    -4611173.45449  -3582750.39145  24284140.220    24284153.231
  20206551.412   -29891261.81149 -22993416.30148  20206550.996    20206556.226
  21584811.744   -23742041.54349 -18240555.88047  21584811.046    21584819.060
  23903689.021    -8786857.37849  -6829904.28745  23903688.720    23903698.422
  23465897.801   -10179541.88049  -7909659.70246  23465897.197    23465906.176
  22485772.017   -16938771.77849 -13182478.21246  22485771.584    22485778.452
  22452539.380   -13731741.65049 -10418846.26846  22452538.881    22452546.897
 03  3 29  2  4  0.0000000  0  8G 3G25G14G15G 9G23G18G31
  22457329.342   -16711855.18549 -12994119.55246  22457329.055    22457337.479
  24265376.028    -4709778.73349  -3659585.26945  24265375.960    24265388.918
  20205905.301   -29894657.01449 -22996061.88948  20205904.873    20205910.091
  21599155.040   -23666667.32749 -18181822.75947  21599154.317    21599162.340
  23913782.463    -8733815.54549  -6788572.97545  23913782.253    23913792.055
  23477140.631   -10120461.02149  -7863622.71446  23477139.974    23477148.930
  22497627.648   -16876470.30449 -13133931.63146  22497627.227    22497634.100
  22456370.353   -13711609.66449 -10403158.99346  22456369.819    22456377.850
 03  3 29  2  4 30.0000000  0  8G 3G25G14G15G 9G23G18G31
  22469127.066   -16649857.78849 -12945809.91946  22469126.787    22469135.211
  24246607.777    -4808405.55849  -3736436.93145  24246607.524    24246620.512
  20205357.447   -29897535.93849 -22998305.18548  20205357.022    20205362.232
  21613568.989   -23590921.70349 -18122800.23247  21613568.258    21613576.278
  23923978.321    -8680236.29649  -6746822.89945  23923978.065    23923987.811
  23488390.207   -10061344.34649  -7817557.80746  23488389.556    23488398.523
  22509502.436   -16814068.22449 -13085306.66846  22509502.016    22509508.889
  22460303.570   -13690940.46649 -10387053.12546  22460303.036    22460311.030
 03  3 29  2  5  0.0000000  0  9G 3G25G14G15G 9G11G23G18G31
  22480992.983   -16587502.22549 -12897221.20046  22480992.692    22481001.088
  24227835.512    -4907052.55549  -3813304.32045  24227835.379    24227848.183
  20204907.471   -29899900.54849 -23000147.72448  20204907.044    20204912.234
  21628053.174   -23514806.86949 -18063490.01147  21628052.441    21628060.445
  23934275.788    -8626122.52849  -6704656.32745  23934275.576    23934285.276
  24674642.261    -6581677.39849  -5103037.77445  24674642.111    24674653.024
  23499646.341   -10002192.99449  -7771465.88946  23499645.734    23499654.688
  22521395.953   -16751567.10649 -13036604.51546  22521395.543    22521402.473
  22464338.480   -13669736.72549 -10370530.73646  22464337.963    22464345.942
 03  3 29  2  5 30.0000000  0  9G 3G25G14G15G 9G11G23G18G31
  22492926.417   -16524791.68249 -12848355.85746  22492926.121    22492934.520
  24209059.961    -5005717.72749  -3890185.86145  24209059.758    24209072.531
  20204555.099   -29901752.10049 -23001590.47448  20204554.678    20204559.847
  21642607.398   -23438324.18449 -18003893.15347  21642606.675    21642614.679
  23944674.617    -8571476.08349  -6662074.67345  23944674.407    23944684.171
  24655547.642    -6682020.40449  -5181227.07745  24655547.450    24655558.131
  23510908.997    -9943007.21249  -7725347.13146  23510908.417    23510917.319
  22533308.251   -16688967.62049 -12987825.71746  22533307.855    22533314.773
  22468474.808   -13648000.12449 -10353593.11846  22468474.309    22468482.302
 03  3 29  2  6  0.0000000  0  9G 3G25G14G15G 9G11G23G18G31
  22504927.698   -16461724.54449 -12799212.64746  22504927.393    22504935.812
  24190282.020    -5104394.19749  -3967076.21445  24190281.976    24190294.607
  20204300.979   -29903087.37949 -23002630.93948  20204300.554    20204305.721
  21657232.175   -23361470.54849 -17944007.24447  21657231.441    21657239.489
  23955175.279    -8516294.55149  -6619076.08645  23955175.107    23955184.850
  24636464.316    -6782303.26549  -5259369.50045  24636464.061    24636474.682
  23522179.142    -9883782.68249  -7679198.16046  23522178.544    23522187.368
  22545240.096   -16626265.96649 -12938967.30746  22545239.645    22545246.524
  22472713.054   -13625727.84549 -10336238.09546  22472712.555    22472720.548
 03  3 29  2  6 30.0000000  0  9G 3G25G14G15G 9G11G23G18G31
  22516996.093   -16398304.74249 -12749794.64346  22516995.798    22517004.218
  24171502.416    -5203080.32749  -4043974.09945  24171502.428    24171514.869
  20204144.770   -29903908.33149 -23003270.63148  20204144.332    20204149.500
  21671927.117   -23284248.29549 -17883834.10547  21671926.407    21671934.426
  23965777.227    -8460580.76749  -6575662.76245  23965777.088    23965786.765
  24617392.484    -6882525.52149  -5337464.71945  24617392.265    24617402.844
  23533456.372    -9824520.44749  -7633019.83346  23533455.798    23533464.613
  22557191.051   -16563463.28649 -12890030.16746  22557190.602    22557197.526
  22477052.753   -13602922.59949 -10318467.77346  22477052.261    22477060.267
 03  3 29  2  7  0.0000000  0  9G 3G25G14G15G 9G11G23G18G31
  22529130.994   -16334535.49249 -12700104.34946  22529130.687    22529139.121
  24152721.459    -5301773.84249  -4120877.73845  24152721.460    24152733.718
  20204086.141   -29904216.33149 -23003510.61748  20204085.703    20204090.886
  21686691.906   -23206658.73149 -17823374.74047  21686691.216    21686699.245
  23976480.177    -8404336.50849  -6531836.06345  23976479.988    23976489.685
  24598332.683    -6982685.41649  -5415511.34645  24598332.458    24598343.005
  23544740.825    -9765220.62449  -7586812.18946  23544740.286    23544749.002
  22569161.051   -16500560.18749 -12841014.78746  22569160.645    22569167.588
  22481493.527   -13579586.20549 -10300283.56946  22481493.006    22481501.032
 03  3 29  2  7 30.0000000  0  9G 3G25G14G15G 9G11G23G18G31
  22541331.904   -16270419.46949 -12650143.83846  22541331.621    22541340.005
  24133939.262    -5400472.70649  -4197785.57445  24133939.232    24133951.480
  20204124.922   -29904012.41049 -23003351.70548  20204124.476    20204129.638
  21701526.379   -23128703.27849 -17762630.27347  21701525.676    21701533.746
  23987283.592    -8347564.10049  -6487597.82745  23987283.370    23987293.070
  24579285.227    -7082781.23549  -5493508.03345  24579284.954    24579295.220
  23556032.368    -9705883.36249  -7540575.37046  23556031.799    23556040.552
  22581150.267   -16437557.00549 -12791921.40946  22581149.815    22581156.711
  22486035.042   -13555720.42049 -10281686.85846  22486034.502    22486042.527
 03  3 29  2  8  0.0000000  0  9G 3G25G14G15G 9G11G23G18G31
  22553598.175   -16205959.90349 -12599915.63646  22553597.859    22553606.265
  24115156.767    -5499174.28949  -4274695.52745  24115156.616    24115168.753
  20204260.877   -29903297.93549 -23002794.96048  20204260.442    20204265.588
  21716430.170   -23050383.29649 -17701601.75947  21716429.499    21716437.582
  23998187.086    -8290265.47149  -6442949.55545  23998186.811    23998196.583
  24560250.133    -7182811.50549  -5571453.62645  24560249.903    24560260.026
  23567330.970    -9646508.80449  -7494309.48746  23567330.367    23567339.240
  22593158.305   -16374454.34649 -12742750.52046  22593157.852    22593164.765
  22490676.935   -13531327.04849 -10262679.03146  22490676.399    22490684.414
 03  3 29  2  8 30.0000000  0  9G 3G25G14G15G 9G11G23G18G31
  22565929.352   -16141159.30749 -12549421.69846  22565929.012    22565937.390
  24096374.247    -5597875.86549  -4351605.47645  24096374.038    24096385.995
  20204493.824   -29902073.78949 -23001841.06448  20204493.380    20204498.524
  21731403.123   -22971700.01949 -17640290.15347  21731402.463    21731410.547
  24009190.419    -8232442.22549  -6397892.50245  24009190.192    24009200.032
  24541227.858    -7282773.84649  -5649346.28045  24541227.592    24541237.695
  23578636.746    -9587096.67049  -7448014.32446  23578636.070    23578645.026
  22605185.240   -16311252.31649 -12693502.19446  22605184.826    22605191.776
  22495418.939   -13506407.54749 -10243261.23846  22495418.416    22495426.419
 03  3 29  2  9  0.0000000  0  9G 3G25G14G15G 9G11G23G18G31
  22578324.904   -16076020.34349 -12498664.10246  22578324.561    22578332.961
  24077592.138    -5696574.96249  -4428513.51045  24077591.920    24077603.787
  20204823.539   -29900340.91849 -23000490.76448  20204823.112    20204828.250
  21746445.033   -22892654.55649 -17578696.32047  21746444.340    21746452.438
  24020293.237    -8174096.28249  -6352428.11345  24020292.978    24020302.912
  24522218.809    -7382666.78149  -5727184.83745  24522218.522    24522228.546
  23589949.672    -9527646.84749  -7401689.79346  23589949.007    23589957.917
  22617231.099   -16247951.15049 -12644176.61746  22617230.667    22617237.608
  22500260.778   -13480963.61249 -10223434.79046  22500260.224    22500268.248
 03  3 29  2  9 30.0000000  0  9G 3G25G14G15G 9G11G23G18G31
  22590784.330   -16010545.71749 -12447644.94346  22590783.986    22590792.405
  24058811.008    -5795268.49549  -4505417.20745  24058810.843    24058822.662
  20205249.898   -29898100.25249 -22998744.78048  20205249.477    20205254.638
  21761555.647   -22813247.91749 -17516821.06047  21761554.949    21761563.063
  24031495.260    -8115229.33149  -6306557.75245  24031495.013    24031504.929
  24503223.340    -7482487.92849  -5804967.44345  24503223.112    24503232.973
  23601269.832    -9468159.01849  -7355335.66446  23601269.200    23601278.039
  22629295.767   -16184550.86349 -12594773.80746  22629295.285    22629302.312
  22505202.142   -13454996.61449 -10203200.77846  22505201.613    22505209.605
 03  3 29  2 10  0.0000000  0  9G 3G25G14G15G 9G11G23G18G31
  22603307.087   -15944738.32849 -12396366.50046  22603306.776    22603315.174
  24040031.633    -5893954.20649  -4582314.80745  24040031.243    24040042.960
  20205772.667   -29895353.08549 -22996604.11648  20205772.245    20205777.393
  21776734.756   -22733481.38749 -17454665.35847  21776734.051    21776742.158
  24042795.916    -8055843.55449  -6260283.14645  24042795.769    24042805.593
  24484241.993    -7582235.50549  -5882692.70245  24484241.652    24484251.587
  23612597.202    -9408633.19249  -7308951.92046  23612596.570    23612605.449
  22641379.154   -16121051.97449 -12545294.16146  22641378.710    22641385.741
  22510242.704   -13428508.36849 -10182560.59046  22510242.134    22510250.149
 03  3 29  2 10 30.0000000  0  9G 3G25G14G15G 9G11G23G18G31
  22615892.581   -15878601.31349 -12344831.20846  22615892.234    22615900.650
  24021253.990    -5992629.57749  -4659204.36345  24021253.703    24021265.282
  20206391.590   -29892100.54649 -22994069.65148  20206391.166    20206396.312
  21791982.068   -22653356.21049 -17392230.19247  21791981.405    21791989.468
  24054194.947    -7995941.07949  -6213605.89645  24054194.827    24054204.712
  24465274.821    -7681907.80949  -5960359.27145  24465274.423    24465284.427
  23623931.790    -9349069.45649  -7262538.64146  23623931.183    23623940.112
  22653481.388   -16057454.56449 -12495737.75346  22653480.931    22653487.963
  22515382.097   -13401500.69749 -10161515.65746  22515381.526    22515389.566
 03  3 29  2 11  0.0000000  0  9G 3G25G14G15G 9G11G23G18G31
  22628540.352   -15812136.81849 -12293040.73346  22628540.038    22628548.456
  24002478.989    -6091291.20349  -4736083.21445  24002478.780    24002490.232
  20207106.560   -29888343.16549 -22991141.80448  20207106.132    20207111.286
  21807297.552   -22572873.08849 -17329516.11047  21807296.893    21807304.946
  24065692.080    -7935522.92449  -6166526.79545  24065691.958    24065701.778
  24446322.156    -7781502.52849  -6037965.36945  24446322.013    24446332.168
  23635273.790    -9289467.00249  -7216095.20346  23635273.170    23635282.149
  22665602.320   -15993758.66549 -12446104.59846  22665601.870    22665608.873
  22520620.096   -13373974.72349 -10140066.86246  22520619.569    22520627.596
 03  3 29  2 11 30.0000000  0  9G 3G25G14G15G 9G11G23G18G31
  22641249.848   -15745348.03949 -12240997.57346  22641249.549    22641257.991
  23983707.134    -6189936.79549  -4812949.55545  23983706.856    23983718.134
  20207917.332   -29884082.57149 -22987821.83948  20207916.900    20207922.042
  21822680.773   -22492033.62649 -17266524.36547  21822680.123    21822688.191
  24077286.975    -7874591.33349  -6119047.62045  24077286.781    24077296.560
  24427384.831    -7881017.70549  -6115509.48745  24427384.823    24427395.093
  23646623.136    -9229826.18849  -7169621.87246  23646622.454    23646631.511
  22677741.833   -15929964.66449 -12396395.01146  22677741.397    22677748.430
  22525956.338   -13345932.54649 -10118215.81946  22525955.815    22525963.834
 03  3 29  2 12  0.0000000  0  9G 3G25G14G15G 9G11G23G18G31
  22654020.590   -15678237.46749 -12188703.66146  22654020.278    22654028.698
  23964938.720    -6288563.77749  -4889801.41345  23964938.439    23964949.722
  20208823.679   -29879319.51649 -22984110.34748  20208823.253    20208828.374
  21838131.605   -22410839.07849 -17203255.92847  21838130.947    21838139.060
  24088979.264    -7813148.16849  -6071169.78945  24088979.108    24088988.693
  24408463.376    -7980451.09549  -6192989.85845  24408463.233    24408473.443
  23657979.853    -9170146.58449  -7123118.32046  23657979.112    23657988.184
  22689900.088   -15866072.46449 -12346608.89846  22689899.649    22689906.689
  22531390.558   -13317375.59749 -10095963.67246  22531390.043    22531398.048
 03  3 29  2 12 30.0000000  0  9G 3G25G14G15G 9G11G23G18G31
  22666851.993   -15610808.09049 -12136161.33346  22666851.665    22666860.107
  23946174.297    -6387170.10649  -4966637.18745  23946174.009    23946185.261
  20209825.397   -29874055.36149 -22980008.38848  20209824.949    20209830.095
  21853649.773   -22329290.78449 -17139711.84547  21853649.103    21853657.223
  24100768.449    -7751195.65349  -6022895.06745  24100768.325    24100777.902
  24389557.652    -8079801.34049  -6270405.41945  24389557.292    24389567.532
  23669343.836    -9110428.31449  -7076584.64646  23669343.164    23669352.208
  22702076.920   -15802082.42949 -12296746.54446  22702076.520    22702083.491
  22536922.341   -13288305.94049 -10073312.00546  22536921.814    22536929.787
 03  3 29  2 13  0.0000000  0  9G 3G25G14G15G 9G11G23G18G31
  22679743.542   -15543062.65549 -12083372.73646  22679743.200    22679751.617
  23927414.495    -6485752.41649  -5043454.23345  23927414.186    23927425.288
  20210922.265   -29868291.23649 -22975516.84548  20210921.810    20210926.942
  21869235.054   -22247389.89349 -17075893.00547  21869234.364    21869242.485
  24112654.190    -7688735.76949  -5974224.98545  24112654.077    24112663.664
  24370668.074    -8179066.25749  -6347754.51145  24370667.718    24370677.905
  23680715.348    -9050671.10349  -7030020.61646  23680714.572    23680723.679
  22714272.392   -15737994.88349 -12246808.22946  22714271.967    22714278.895
  22542551.375   -13258725.27449 -10050262.13846  22542550.837    22542558.815
 03  3 29  2 13 30.0000000  0  9G 3G25G14G15G 9G11G23G18G31
  22692694.728   -15475003.90749 -12030339.99246  22692694.384    22692702.838
  23908659.565    -6584308.17749  -5120250.61845  23908659.410    23908670.447
  20212114.113   -29862027.97749 -22970636.36848  20212113.675    20212118.803
  21884887.207   -22165137.54949 -17011800.30847  21884886.498    21884894.622
  24124636.153    -7625770.26949  -5925160.92345  24124635.962    24124645.378
  24351795.261    -8278243.48549  -6425035.26545  24351794.963    24351804.939
  23692094.213    -8990874.69549  -6983426.05046  23692093.565    23692102.640
  22726486.366   -15673809.83749 -12196793.92946  22726485.951    22726492.921
  22548277.315   -13228635.12849 -10026815.28546  22548276.773    22548284.758
 03  3 29  2 14  0.0000000  0  9G 3G25G14G15G 9G11G23G18G31
  22705705.012   -15406634.62149 -11977065.27046  22705704.678    22705713.131
  23889910.345    -6682834.64149  -5197024.17445  23889910.199    23889921.218
  20213400.626   -29855267.17949 -22965368.19448  20213400.184    20213405.294
  21900605.997   -22082535.06549 -16947434.77747  21900605.296    21900613.385
  24136714.001    -7562301.04549  -5875704.31345  24136713.741    24136723.206
  24332939.354    -8377331.26849  -6502246.34445  24332939.197    24332949.004
  23703480.618    -8931038.91849  -6936800.80846  23703480.012    23703488.980
  22738718.861   -15609527.27349 -12146703.64946  22738718.503    22738725.564
  22554099.842   -13198037.47149 -10002972.96846  22554099.312    22554107.305
 03  3 29  2 14 30.0000000  0  9G 3G25G14G15G 9G11G23G18G31
  22718773.864   -15337957.36249 -11923550.56946  22718773.570    22718782.031
  23871167.372    -6781328.73249  -5273772.52245  23871167.145    23871178.107
  20214781.741   -29848009.31449 -22959712.70248  20214781.298    20214786.390
  21916391.168   -21999583.47949 -16882797.21647  21916390.458    21916398.580
  24148887.303    -7498329.68749  -5825856.38845  24148886.944    24148896.451
  24314100.979    -8476326.96049  -6579385.64245  24314100.759    24314110.588
  23714874.513    -8871162.96549  -6890144.25346  23714873.965    23714882.983
  22750970.089   -15545147.02449 -12096537.23546  22750969.711    22750976.732
  22560018.745   -13166933.51649  -9978736.13646  22560018.184    22560026.192
 03  3 29  2 15  0.0000000  0  9G 3G25G14G15G 9G11G23G18G31
  22731900.730   -15268975.33649 -11869798.39846  22731900.443    22731908.874
  23852430.812    -6879788.02049  -5350493.76145  23852430.697    23852441.629
  20216257.159   -29840256.00749 -22953671.14948  20216256.697    20216261.791
  21932242.482   -21916284.37149 -16817888.85947  21932241.765    21932249.889
  24161155.640    -7433858.69949  -5775619.19745  24161155.250    24161164.938
  24295280.344    -8575229.12449  -6656452.08445  24295280.128    24295289.819
  23726276.108    -8811247.10149  -6843456.60946  23726275.571    23726284.586
  22763239.816   -15480669.62049 -12046295.12046  22763239.407    22763246.363
  22566033.567   -13135325.63449  -9954106.63346  22566032.991    22566040.996
 03  3 29  2 15 30.0000000  0  9G 3G25G14G15G 9G11G23G18G31
  22745085.119   -15199691.08049 -11815810.71046  22745084.865    22745093.281
  23833701.639    -6978209.81049  -5427185.77545  23833701.432    23833712.212
  20217826.623   -29832008.31249 -22947244.35748  20217826.160    20217831.244
  21948159.735   -21832638.83849 -16752710.56147  21948159.025    21948167.152
  24173518.822    -7368890.05149  -5724994.19745  24173518.392    24173527.978
  24276477.931    -8674035.53449  -6733443.91945  24276477.794    24276487.311
  23737685.415    -8751291.03749  -6796737.63646  23737684.843    23737693.864
  22775528.019   -15416095.01249 -11995977.25446  22775527.660    22775534.514
  22572143.935   -13103215.40149  -9929085.68846  22572143.350    22572151.358
 03  3 29  2 16  0.0000000  0  9G 3G25G14G15G 9G11G23G18G31
  22758326.370   -15130108.08449 -11761590.24146  22758326.069    22758334.524
  23814979.951    -7076591.66849  -5503846.68345  23814979.763    23814990.454
  20219489.810   -29823268.07249 -22940433.76748  20219489.349    20219494.431
  21964142.548   -21748648.68049 -16687263.73247  21964141.851    21964149.998
  24185976.199    -7303426.21349  -5673983.34345  24185975.857    24185985.238
  24257694.174    -8772744.73449  -6810360.01245  24257693.988    24257703.404
  23749102.276    -8691295.20949  -6749987.66346  23749101.709    23749110.737
  22787834.605   -15351423.95249 -11945584.23846  22787834.221    22787841.042
  22578349.420   -13070605.32449  -9903675.25546  22578348.844    22578356.884
 03  3 29  2 16 30.0000000  0  9G 3G25G14G15G 9G11G23G18G31
  22771624.107   -15060228.24049 -11707138.46846  22771623.793    22771632.294
  23796266.478    -7174930.52949  -5580474.11145  23796266.338    23796276.905
  20221246.668   -29814035.70449 -22933239.70448  20221246.213    20221251.292
  21980190.843   -21664314.43649 -16621548.78647  21980190.101    21980198.289
  24198527.423    -7237468.56149  -5622587.67145  24198526.988    24198536.405
  24238929.439    -8871353.76249  -6887198.04445  24238929.139    24238938.529
  23760526.868    -8631258.35849  -6703205.73446  23760526.260    23760535.367
  22800159.596   -15286655.80249 -11895115.56446  22800159.208    22800166.055
  22584649.843   -13037496.45149  -9877876.15546  22584649.273    22584657.284
 03  3 29  2 17  0.0000000  0  9G 3G25G14G15G 9G11G23G18G31
  22784977.690   -14990054.90849 -11652458.00846  22784977.378    22784985.909
  23777561.667    -7273223.83249  -5657066.04545  23777561.487    23777571.994
  20223096.830   -29804312.91949 -22925663.49448  20223096.362    20223101.472
  21996304.256   -21579638.00049 -16555567.19647  21996303.526    21996311.725
  24211172.152    -7171019.67849  -5570809.20945  24211171.744    24211181.245
  24220183.994    -8969860.96449  -6963956.75445  24220183.677    24220193.090
  23771959.315    -8571180.67849  -6656391.99446  23771958.725    23771967.815
  22812502.999   -15221791.00449 -11844571.57846  22812502.603    22812509.466
  22591044.752   -13003891.12549  -9851690.20946  22591044.176    22591052.179
 03  3 29  2 17 30.0000000  0  9G 3G25G14G15G 9G11G23G18G31
  22798386.563   -14919591.10449 -11597551.20646  22798386.186    22798394.796
  23758866.061    -7371468.80049  -5733620.31445  23758865.920    23758876.364
  20225040.115   -29794100.92949 -22917706.08248  20225039.646    20225044.740
  22012482.568   -21494620.60049 -16489319.92847  22012481.836    22012490.043
  24223910.025    -7104081.43849  -5518649.39145  24223909.727    24223918.985
  24201458.257    -9068264.31349  -7040634.51845  24201457.920    24201467.295
  23783399.511    -8511062.05049  -6609546.33546  23783398.916    23783408.033
  22824864.659   -15156829.77949 -11793952.44646  22824864.285    22824871.124
  22597533.821   -12969791.09549  -9825118.77946  22597533.214    22597541.194
 03  3 29  2 18  0.0000000  0  9G 3G25G14G15G 9G11G23G18G31
  22811850.304   -14848838.93049 -11542419.70046  22811849.935    22811858.557
  23740180.285    -7469662.22449  -5810134.42045  23740180.146    23740190.505
  20227076.338   -29783400.44149 -22909368.02548  20227075.867    20227080.953
  22028725.626   -21409263.00249 -16422807.55147  22028724.901    22028733.106
  24236740.701    -7036655.46849  -5466109.56845  24236740.583    24236749.649
  24182752.841    -9166561.12149  -7117229.26145  24182752.539    24182761.810
  23794847.663    -8450901.77549  -6562668.22446  23794847.090    23794856.155
  22837244.850   -15091771.75749 -11743257.89546  22837244.444    22837251.213
  22604116.674   -12935197.96949  -9798163.12246  22604116.106    22604124.073
 03  3 29  2 18 30.0000000  0  9G 3G25G14G15G 9G11G23G18G31
  22825368.178   -14777802.14049 -11487066.42146  22825367.817    22825376.470
  23721504.650    -7567802.18049  -5886606.87345  23721504.475    23721514.860
  20229205.097   -29772213.64749 -22900651.03148  20229204.623    20229209.691
  22045033.001   -21323567.35849 -16356031.78247  22045032.272    22045040.471
  24249663.693    -6968744.69349  -5413191.93345  24249663.487    24249672.526
  24164068.020    -9264750.09249  -7193739.97445  24164067.644    24164076.858
  23806303.706    -8390700.29549  -6515758.00946  23806303.030    23806312.160
  22849643.297   -15026617.80549 -11692488.58346  22849642.901    22849649.584
  22610792.852   -12900114.34049  -9770825.24546  22610792.284    22610800.276
 03  3 29  2 19  0.0000000  0  9G 3G25G14G15G 9G11G23G18G31
  22838939.763   -14706483.15349 -11431493.24046  22838939.401    22838948.074
  23702839.772    -7665885.66949  -5963035.32645  23702839.656    23702849.877
  20231426.229   -29760541.45349 -22891555.79748  20231425.765    20231430.805
  22061404.479   -21237534.95349 -16288993.59047  22061403.718    22061411.937
  24262678.533    -6900351.01349  -5359898.01745  24262678.308    24262687.408
  24145404.295    -9362828.83249  -7270164.79145  24145403.844    24145412.874
  23817767.571    -8330457.01349  -6468815.21646  23817766.953    23817776.140
  22862060.026   -14961367.47849 -11641644.19346  22862059.615    22862066.235
  22617562.064   -12864541.96549  -9743106.53046  22617561.488    22617569.511
 03  3 29  2 19 30.0000000  0  9G 3G25G14G15G 9G11G23G18G31
  22852564.473   -14634885.00149 -11375702.53146  22852564.119    22852572.797
  23684186.272    -7763909.68849  -6039417.44345  23684186.110    23684196.257
  20233739.484   -29748385.11249 -22882083.30848  20233739.014    20233744.055
  22077839.797   -21151166.84049 -16221693.81547  22077839.030    22077847.257
  24275784.887    -6831476.53049  -5306229.42445  24275784.605    24275793.764
  24126761.913    -9460795.12349  -7346501.97945  24126761.361    24126770.414
  23829239.504    -8270171.59249  -6421839.57446  23829238.901    23829248.147
  22874495.078   -14896020.96449 -11590724.84946  22874494.637    22874501.324
  22624423.936   -12828482.71949  -9715008.43546  22624423.368    22624431.382
 03  3 29  2 20  0.0000000  0  9G 3G25G14G15G 9G11G23G18G31
  22866241.760   -14563010.49149 -11319696.47646  22866241.430    22866250.134
  23665544.526    -7861871.43749  -6115751.03045  23665544.345    23665554.483
  20236144.615   -29735746.07749 -22872234.69248  20236144.139    20236149.175
  22094338.775   -21064464.38249 -16154133.49547  22094337.988    22094346.247
  24288982.257    -6762123.36349  -5252187.82245  24288981.908    24288991.129
  24108141.459    -9558646.81949  -7422749.88845  24108140.692    24108149.638
  23840719.568    -8209843.85749  -6374830.97246  23840718.914    23840728.185
  22886948.283   -14830578.46849 -11539730.70946  22886947.876    22886954.675
  22631378.095   -12791938.56949  -9686532.49146  22631377.523    22631385.483
 03  3 29  2 20 30.0000000  0  9G 3G25G14G15G 9G11G23G18G31
  22879971.063   -14490862.61549 -11263477.41846  22879970.736    22879979.442
  23646915.189    -7959768.49949  -6192034.22045  23646914.972    23646925.106
  20238641.312   -29722625.86049 -22862011.13148  20238640.831    20238645.861
  22110900.992   -20977429.43849 -16086314.10247  22110900.222    22110908.453
  24302270.205    -6692294.01949  -5197775.17645  24302269.879    24302279.132
  24089542.854    -9656382.28649  -7498907.19645  24089542.067    24089550.913
  23852207.616    -8149473.89849  -6327789.45946  23852207.021    23852216.222
  22899419.798   -14765040.16249 -11488661.93746  22899419.382    22899426.262
  22638424.075   -12754911.84349  -9657680.51746  22638423.506    22638431.477
 03  3 29  2 21  0.0000000  0  9G 3G25G14G15G 9G11G23G18G31
  22893751.948   -14418443.86749 -11207047.27746  22893751.616    22893760.326
  23628298.687    -8057597.63249  -6268264.48945  23628298.500    23628308.504
  20241229.443   -29709025.05549 -22851413.08848  20241228.949    20241233.990
  22127526.357   -20890062.67749 -16018236.15247  22127525.613    22127533.850
  24315648.463    -6621990.06349  -5142992.69045  24315648.217    24315657.329
  24070966.728    -9753998.65649  -7574971.72945  24070966.018    24070974.956
  23863703.901    -8089060.73549  -6280714.28946  23863703.322    23863712.491
  22911909.605   -14699405.50049 -11437518.05646  22911909.205    22911916.147
  22645561.606   -12717403.92449  -9628453.58346  22645561.024    22645569.026
 03  3 29  2 21 30.0000000  0  9G 3G25G14G15G 9G11G23G18G31
  22907583.783   -14345757.42149 -11150408.54246  22907583.440    22907592.168
  23609695.618    -8155356.61549  -6344440.10345  23609695.418    23609705.387
  20243908.662   -29694945.52549 -22840442.01348  20243908.164    20243913.205
  22144214.505   -20802365.89449 -15949901.03847  22144213.770    22144222.038
  24329116.602    -6551213.91349  -5087842.28445  24329116.343    24329125.572
  24052413.780    -9851493.96449  -7650941.90745  24052413.211    24052422.300
  23875208.448    -8028604.48549  -6233605.54646  23875207.787    23875216.948
  22924417.712   -14633675.03049 -11386299.53646  22924417.296    22924424.326
  22652790.229   -12679417.16949  -9598853.53446  22652789.650    22652797.659
 03  3 29  2 22  0.0000000  0  9G 3G25G14G15G 9G11G23G18G31
  22921466.013   -14272805.74349 -11093563.13846  22921465.709    22921474.466
  23591106.523    -8253042.39449  -6420558.67045  23591106.258    23591116.074
  20246678.752   -29680388.67149 -22829099.00048  20246678.246    20246683.282
  22160965.264   -20714340.19549 -15881309.63547  22160964.524    22160972.834
  24342674.215    -6479967.69449  -5032325.55645  24342673.908    24342682.961
  24033884.066    -9948866.15749  -7726816.14445  24033883.679    24033892.880
  23886721.229    -7968104.50549  -6186462.73545  23886720.558    23886729.680
  22936944.111   -14567848.49949 -11335006.16946  22936943.645    22936950.663
  22660109.625   -12640953.58249  -9568881.93046  22660109.043    22660117.067
 03  3 29  2 22 30.0000000  0  9G 3G25G14G15G 9G11G23G18G31
  22935398.170   -14199592.06849 -11036513.57346  22935397.834    22935406.629
  23572531.727    -8350652.41649  -6496618.20845  23572531.557    23572541.288
  20249539.362   -29665356.07449 -22817385.27548  20249538.856    20249543.877
  22177778.259   -20625987.41449 -15812463.35247  22177777.534    22177785.856
  24356320.539    -6408254.22449  -4976444.76745  24356320.381    24356329.490
  24015378.352   -10046113.32949  -7802592.98345  24015378.110    24015387.278
  23898242.126    -7907561.20749  -6139286.15645  23898241.452    23898250.584
  22949488.616   -14501926.64849 -11283638.51146  22949488.160    22949495.166
  22667519.293   -12602015.60949  -9538540.66546  22667518.723    22667526.736
 03  3 29  2 23  0.0000000  0  8G 3G25G14G15G11G23G18G31
  22949379.613   -14126119.32849 -10979262.15246  22949379.255    22949388.040
  23553971.934    -8448183.84649  -6572616.51545  23553971.795    23553981.457
  20252490.217   -29649849.08849 -22805301.89948  20252489.723    20252494.721
  22194653.267   -20537308.90249 -15743363.26047  22194652.542    22194660.861
  23996897.066   -10143232.99249  -7878270.46645  23996896.734    23996905.921
  23909771.448    -7846973.99349  -6092075.35245  23909770.870    23909779.935
  22962051.336   -14435909.20349 -11232196.36646  22962050.843    22962057.953
  22675018.856   -12562605.16649  -9507831.24746  22675018.262    22675026.285
 03  3 29  2 23 30.0000000  0  8G 3G25G14G15G11G23G18G31
  22963409.755   -14052390.54749 -10921811.20846  22963409.382    22963418.176
  23535427.692    -8545633.88649  -6648551.42446  23535427.573    23535437.104
  20255531.092   -29633869.04349 -22792849.90548  20255530.598    20255535.603
  22211589.990   -20448306.05349 -15674010.43046  22211589.237    22211597.566
  23978440.119   -10240223.24849  -7953847.09645  23978439.832    23978449.157
  23921309.346    -7786342.64149  -6044830.16245  23921308.683    23921317.728
  22974632.147   -14369796.29049 -11180679.83446  22974631.693    22974638.850
  22682607.945   -12522724.43749  -9476755.37846  22682607.368    22682615.388
 03  3 29  2 24  0.0000000  0  8G 3G25G14G15G11G23G18G31
  22977488.140   -13978408.52549 -10864162.93346  22977487.726    22977496.547
  23516899.440    -8642999.83049  -6724420.80446  23516899.260    23516908.735
  20258661.717   -29617417.46849 -22780030.48548  20258661.221    20258666.223
  22228588.109   -20358980.45349 -15604406.10746  22228587.389    22228595.691
  23960008.402   -10337082.01949  -8029321.29045  23960008.112    23960017.388
  23932855.530    -7725666.99449  -5997550.45645  23932854.820    23932863.941
  22987231.253   -14303587.85349 -11129088.86246  22987230.801    22987237.900
  22690286.096   -12482375.52549  -9445314.69046  22690285.522    22690293.543
 03  3 29  2 24 30.0000000  0  8G 3G25G14G15G11G23G18G31
  22991614.078   -13904176.19549 -10806319.61446  22991613.697    22991622.549
  23498387.747    -8740279.02849  -6800222.59046  23498387.485    23498396.878
  20261881.772   -29600495.93349 -22766844.86648  20261881.261    20261886.270
  22245647.332   -20269333.86649 -15534551.66846  22245646.589    22245654.902
  23941602.169   -10433806.96049  -8104691.19145  23941601.845    23941610.946
  23944410.194    -7664946.77149  -5950236.04445  23944409.500    23944418.605
  22999848.554   -14237284.15149 -11077423.65046  22999848.106    22999855.169
  22698052.853   -12441560.79549  -9413511.02946  22698052.315    22698060.308
 03  3 29  2 25  0.0000000  0  8G 3G25G14G15G11G23G18G31
  23005787.098   -13829696.78149 -10748283.77646  23005786.755    23005795.569
  23479893.059    -8837468.39349  -6875954.38846  23479892.789    23479902.118
  20265190.985   -29583105.83549 -22753294.13348  20265190.471    20265195.479
  22262767.368   -20179367.57349 -15464448.10046  22262766.617    22262774.954
  23923221.714   -10530396.02549  -8179955.20245  23923221.379    23923230.468
  23955973.435    -7604181.51949  -5902886.52245  23955972.795    23955981.840
  23012483.892   -14170885.19749 -11025684.22746  23012483.399    23012490.491
  22705907.949   -12400282.18749  -9381345.90446  22705907.397    22705915.379
 03  3 29  2 25 30.0000000  0  8G 3G25G14G15G11G23G18G31
  23020006.636   -13754972.71849 -10690057.28346  23020006.301    23020015.122
  23461415.989    -8934565.12449  -6951614.00646  23461415.790    23461425.024
  20268589.119   -29565248.41649 -22739379.25048  20268588.618    20268593.607
  22279948.078   -20089082.68049 -15394096.28046  22279947.323    22279955.650
  23904867.663   -10626846.68349  -8255111.37046  23904867.265    23904876.369
  23967545.303    -7543370.89649  -5855501.62545  23967544.714    23967553.860
  23025137.332   -14104390.91449 -10973870.51446  23025136.849    23025143.958
  22713850.909   -12358541.77349  -9348820.93446  22713850.329    22713858.333
 03  3 29  2 26  0.0000000  0  8G 3G25G14G15G11G23G18G31
  23034272.167   -13680007.12749 -10631642.61046  23034271.815    23034280.664
  23442957.043    -9031566.75049  -7027199.53346  23442956.769    23442966.030
  20272075.869   -29546925.44849 -22725101.60348  20272075.364    20272080.363
  22297188.991   -19998481.18849 -15323497.75946  22297188.258    22297196.576
  23886540.397   -10723156.95649  -8330158.14946  23886539.952    23886548.978
  23979125.939    -7482514.74349  -5808081.28245  23979125.287    23979134.409
  23037808.871   -14037801.68749 -10921982.80346  23037808.407    23037815.543
  22721881.280   -12316342.10749  -9315938.10446  22721880.679    22721888.694
 03  3 29  2 26 30.0000000  0  8G 3G25G14G15G11G23G18G31
  23048583.104   -13604802.85649 -10573041.93946  23048582.738    23048591.599
  23424516.752    -9128470.44849  -7102708.74946  23424516.485    23424525.669
  20275650.866   -29528138.53649 -22710462.43748  20275650.369    20275655.354
  22314489.922   -19907564.29749 -15252653.47646  22314489.181    22314497.495
  23868240.215   -10819324.85349  -8405093.99646  23868239.692    23868248.625
  23990715.287    -7421612.71149  -5760625.17245  23990714.624    23990723.648
  23050498.513   -13971117.29349 -10870020.96646  23050498.042    23050505.187
  22729998.568   -12273685.39249  -9282699.13946  22729998.000    22730006.024
 03  3 29  2 27  0.0000000  0  8G 3G25G14G15G11G23G18G31
  23062938.926   -13529362.75149 -10514257.49946  23062938.560    23062947.431
  23406095.619    -9225273.17349  -7178139.29446  23406095.428    23406104.556
  20279313.931   -29508888.96149 -22695462.75648  20279313.433    20279318.433
  22331850.626   -19816333.39349 -15181564.50446  22331849.892    22331858.213
  23849967.395   -10915347.95749  -8479917.00846  23849966.952    23849975.857
  24002313.445    -7360664.33649  -5713132.93745  24002312.685    24002321.685
  23063206.183   -13904337.75749 -10817984.98046  23063205.695    23063212.930
  22738202.483   -12230573.56549  -9249105.54146  22738201.930    22738209.940
 03  3 29  2 27 30.0000000  0  8G 3G25G14G15G11G23G18G31
  23077339.074   -13453689.88349 -10455291.69346  23077338.710    23077347.512
  23387694.280    -9321972.68349  -7253489.40246  23387694.026    23387703.146
  20283064.708   -29489178.46549 -22680103.91548  20283064.197    20283069.221
  22349270.693   -19724790.49149 -15110232.42746  22349269.962    22349278.271
  23831722.673   -11011223.96649  -8554625.41746  23831722.162    23831731.011
  24013920.312    -7299669.61549  -5665604.58645  24013919.569    24013928.597
  23075932.010   -13837463.21549 -10765874.95946  23075931.535    23075938.702
  22746492.528   -12187009.09849  -9215159.23446  22746491.971    22746500.027
 03  3 29  2 28  0.0000000  0  8G 3G25G14G15G11G23G18G31
  23091782.899   -13377787.21249 -10396146.81946  23091782.581    23091791.366
  23369313.047    -9418566.03549  -7328756.80846  23369312.782    23369321.899
  20286902.911   -29469008.41749 -22664386.98148  20286902.400    20286907.422
  22366749.896   -19632936.88049 -15038658.23346  22366749.161    22366757.475
  23813506.322   -11106950.81849  -8629217.58446  23813505.784    23813514.533
  24025536.091    -7238628.11349  -5618039.79945  24025535.338    24025544.398
  23088675.872   -13770493.79149 -10713691.00546  23088675.352    23088682.505
  22754868.334   -12142994.22149  -9180861.96746  22754867.763    22754875.830
 03  3 29  2 28 30.0000000  0  8G 3G25G14G15G11G23G18G31
  23106270.032   -13301657.14749 -10336824.75646  23106269.713    23106278.510
  23350952.627    -9515049.72549  -7403938.75446  23350952.382    23350961.514
  20290828.327   -29448380.20049 -22648313.03848  20290827.812    20290832.831
  22384287.919   -19540773.72249 -14966842.83446  22384287.220    22384295.544
  23795318.722   -11202526.07449  -8703691.65745  23795318.185    23795326.944
  24037160.832    -7177539.31249  -5570438.16145  24037160.080    24037169.268
  23101437.858   -13703429.10649 -10661432.82646  23101437.357    23101444.394
  22763329.429   -12098530.93449  -9146215.28546  22763328.815    22763336.919
 03  3 29  2 29  0.0000000  0  8G 3G25G14G15G11G23G18G31
  23120799.654   -13225303.33649 -10277328.33946  23120799.354    23120808.159
  23332613.542    -9611421.53349  -7479033.52646  23332613.298    23332622.428
  20294840.547   -29427295.76549 -22631883.60248  20294840.035    20294845.039
  22401884.570   -19448302.99749 -14894787.76446  22401883.839    22401892.191
  23777160.437   -11297947.84549  -8778046.13645  23777159.965    23777168.670
  24048794.596    -7116403.30949  -5522799.71645  24048793.846    24048803.087
  23114217.973   -13636269.55749 -10609100.72546  23114217.470    23114224.365
  22771875.346   -12053621.94449  -9111221.30646  22771874.749    22771882.868
 03  3 29  2 29 30.0000000  0  8G 3G25G14G15G11G23G18G31
  23135371.496   -13148728.20949 -10217659.47746  23135371.166    23135379.962
  23314296.318    -9707678.53049  -7554038.83346  23314296.069    23314305.160
  20298939.330   -29405756.53149 -22615099.77648  20298938.807    20298943.808
  22419539.398   -19355526.33449 -14822494.30346  22419538.686    22419547.049
  23759031.836   -11393213.58849  -8852279.03245  23759031.365    23759040.014
  24060437.421    -7055219.50749  -5475124.02245  24060436.797    24060445.981
  23127016.001   -13569015.00049 -10556694.59346  23127015.530    23127022.444
  22780505.667   -12008269.28049  -9075881.60746  22780505.055    22780513.180
 03  3 29  2 30  0.0000000  0  8G 3G25G14G15G11G23G18G31
  23149984.746   -13071935.21449 -10157820.83046  23149984.448    23149993.232
  23296001.408    -9803818.19349  -7628952.71746  23296001.175    23296010.271
  20303124.294   -29383764.25249 -22597962.92348  20303123.780    20303128.764
  22437252.127   -19262445.58849 -14749963.89746  22437251.394    22437259.776
  23740933.326   -11488321.48549  -8926388.93745  23740932.775    23740941.487
  24072089.481    -6993987.82649  -5427411.03745  24072088.830    24072097.898
  23139832.164   -13501665.75849 -10504214.67746  23139831.687    23139838.625
  22789219.953   -11962475.73649  -9040198.36946  22789219.341    22789227.463
 03  3 29  2 30 30.0000000  0  8G 3G25G14G15G11G23G18G31
  23164638.869   -12994927.35149 -10097814.77446  23164638.585    23164647.387
  23277729.424    -9899837.65349  -7703772.93746  23277729.124    23277738.239
  20307395.171   -29361320.56949 -22580474.32748  20307394.643    20307399.632
  22455022.377   -19169062.25749 -14677197.71846  22455021.652    22455030.050
  23722865.199   -11583269.09949  -9000373.94245  23722864.633    23722873.312
  24083750.611    -6932707.93549  -5379660.46445  24083750.047    24083759.154
  23152666.417   -13434221.77949 -10451660.94746  23152665.952    23152672.865
  22798017.684   -11916243.51149  -9004173.30546  22798017.101    22798025.181
 03  3 29  2 31  0.0000000  0  8G 3G25G14G15G11G23G18G31
  23179333.417   -12917707.29649 -10037643.36346  23179333.102    23179341.936
  23259480.800    -9995733.93949  -7778497.16946  23259480.527    23259489.604
  20311751.698   -29338426.82249 -22562635.03148  20311751.167    20311756.149
  22472849.993   -19075377.71249 -14604196.80946  22472849.280    22472857.689
  23704828.057   -11678054.02349  -9074232.18245  23704827.550    23704836.076
  24095421.162    -6871379.05749  -5331871.74245  24095420.587    24095429.634
  23165518.768   -13366682.77849 -10399033.16646  23165518.275    23165525.074
  22806898.479   -11869574.70849  -8967808.04046  22806897.863    22806905.966
 03  3 29  2 31 30.0000000  0  8G 3G25G14G15G11G23G18G31
  23194067.748   -12840278.22649  -9977309.09446  23194067.422    23194076.347
  23241256.135   -10091504.70049  -7853123.60046  23241255.844    23241264.946
  20316193.486   -29315085.03349 -22544446.61248  20316192.962    20316197.937
  22490734.584   -18981393.71749 -14530962.58046  22490733.869    22490742.289
  23686822.100   -11772674.59049  -9147962.32945  23686821.736    23686830.139
  24107100.952    -6810001.56749  -5284045.13345  24107100.332    24107109.353
  23178388.982   -13299049.27449 -10346331.75346  23178388.506    23178395.248
  22815861.811   -11822472.14949  -8931104.78746  22815861.198    22815869.332
 03  3 29  2 32  0.0000000  0  8G 3G25G14G15G11G23G18G31
  23208841.349   -12762642.70149  -9916813.95246  23208841.004    23208849.936
  23223055.976   -10187146.71549  -7927649.71746  23223055.653    23223064.692
  20320720.279   -29291296.47649 -22525910.06248  20320719.768    20320724.742
  22508675.953   -18887111.47949 -14457495.94946  22508675.208    22508683.638
  23668848.234   -11867127.90749  -9221562.15645  23668847.779    23668856.105
  24118790.039    -6748574.82249  -5236180.13845  24118789.470    24118798.643
  23191277.268   -13231320.99849 -10293556.46946  23191276.774    23191283.437
  22824907.322   -11774937.86749  -8894065.13646  22824906.676    22824914.854
 03  3 29  2 32 30.0000000  0  8G 3G25G14G15G11G23G18G31
  23223653.562   -12684803.98949  -9856160.48346  23223653.259    23223662.170
  23204880.791   -10282657.49849  -8002073.56546  23204880.446    23204889.437
  20325331.717   -29267063.13049 -22507026.92548  20325331.206    20325336.190
  22526673.724   -18792532.96849 -14383798.44546  22526672.929    22526681.395
  23650906.307   -11961411.92449  -9295030.04345  23650905.888    23650914.221
  24130488.584    -6687098.43849  -5188276.47645  24130488.041    24130497.072
  23204183.440   -13163498.02049 -10240707.39646  23204183.039    23204189.709
  22834034.489   -11726974.39149  -8856691.05046  22834033.867    22834042.008
 03  3 29  2 33  0.0000000  0  8G 3G25G14G15G11G23G18G31
  23238503.993   -12606764.79549  -9795350.77946  23238503.668    23238512.645
  23186731.195   -10378033.64849  -8076392.52346  23186730.911    23186739.799
  20330027.603   -29242385.98449 -22487797.97148  20330027.075    20330032.050
  22544727.557   -18697659.51749 -14309871.11846  22544726.780    22544735.245
  23632997.238   -12055524.03949  -9368363.99945  23632996.857    23633005.156
  24142196.735    -6625572.00649  -5140333.81445  24142196.156    24142205.159
  23217107.818   -13095580.03949 -10187784.29946  23217107.361    23217114.034
  22843242.885   -11678583.95349  -8818984.26046  22843242.282    22843250.425
 03  3 29  2 33 30.0000000  0  8G 3G25G14G15G11G23G18G31
  23253391.997   -12528528.09949  -9734387.19146  23253391.672    23253400.648
  23168607.660   -10473272.96849  -8150604.85346  23168607.338    23168616.206
  20334807.508   -29217267.41849 -22468225.05448  20334806.986    20334811.954
  22562837.157   -18602493.14549 -14235715.54446  22562836.393    22562844.833
  23615121.151   -12149462.34349  -9441562.48145  23615120.802    23615129.101
  24153914.405    -6563995.59249  -5092352.18545  24153913.803    24153922.793
  23230050.106   -13027567.52549 -10134787.53446  23230049.690    23230056.353
  22852532.035   -11629769.28749  -8780946.89746  22852531.462    22852539.611
 03  3 29  2 34  0.0000000  0  8G 3G25G14G15G11G23G18G31
  23268317.030   -12450096.87149  -9673272.02746  23268316.719    23268325.682
  23150510.602   -10568372.90449  -8224708.55546  23150510.335    23150519.138
  20339671.093   -29191708.89149 -22448309.31048  20339670.589    20339675.540
  22581002.198   -18507035.39049 -14161332.92946  22581001.448    22581009.876
  23597278.740   -12243224.43549  -9514623.68045  23597278.464    23597286.602
  24165641.663    -6502368.76749  -5044331.30245  24165641.105    24165650.101
  23243010.410   -12959460.51949 -10081717.14446  23243009.989    23243016.573
  22861901.446   -11580532.79649  -8742580.85146  22861900.895    22861909.001
 03  3 29  2 34 30.0000000  0  8G 3G25G14G15G11G23G18G31
  23283278.462   -12371474.24349  -9612007.69746  23283278.132    23283287.120
  23132440.734   -10663330.12549  -8298701.06346  23132440.495    23132449.209
  20344618.102   -29165712.27449 -22428052.20048  20344617.574    20344622.552
  22599222.400   -18411287.87849 -14086724.52046  22599221.634    22599230.091
  23579470.249   -12336808.36449  -9587546.04445  23579469.893    23579478.081
  24177378.435    -6440691.17049  -4996270.81345  24177377.860    24177386.973
  23255988.729   -12891258.74749 -10028572.89646  23255988.304    23255994.972
  22871350.675   -11530876.90549  -8703887.99146  22871350.104    22871358.260
 03  3 29  2 35  0.0000000  0  8G 3G25G14G15G11G23G18G31
  23298275.823   -12292662.73349  -9550596.20646  23298275.499    23298284.549
  23114398.566   -10758141.72749  -8372580.11046  23114398.375    23114407.014
  20349648.187   -29139278.89049 -22407454.75248  20349647.662    20349652.602
  22617497.437   -18315252.07749 -14011891.47846  22617496.623    22617505.115
  23561696.046   -12430211.52949  -9660327.55745  23561695.758    23561703.881
  24189125.055    -6378962.06249  -4948170.20445  24189124.478    24189133.686
  23268985.217   -12822962.03349  -9975354.66946  23268984.737    23268991.465
  22880879.291   -11480803.83849  -8664870.06646  22880878.727    22880886.911
 03  3 29  2 35 30.0000000  0  8G 3G25G14G15G11G23G18G31
  23313308.519   -12213665.69349  -9489040.13446  23313308.162    23313317.260
  23096384.590   -10852805.34649  -8446343.83846  23096384.406    23096392.974
  20354760.950   -29112411.07649 -22386518.78348  20354760.433    20354765.371
  22635826.897   -18218930.13449 -13936835.44846  22635826.114    22635834.606
  23543956.662   -12523432.11949  -9732966.78946  23543956.309    23543964.411
  24200881.606    -6317181.73249  -4900029.70945  24200880.929    24200889.987
  23281999.634   -12754571.01549  -9922062.95246  23281999.117    23282005.941
  22890486.695   -11430316.70149  -8625529.48346  22890486.156    22890494.332
 03  3 29  2 36  0.0000000  0  8G 3G25G14G15G11G23G18G31
  23328375.930   -12134486.21249  -9427341.90646  23328375.601    23328384.682
  23078399.312   -10947317.99049  -8519989.92446  23078399.087    23078407.708
  20359956.115   -29085110.17349 -22365245.34248  20359955.596    20359960.543
  22654210.586   -18122323.48249 -13861557.58246  22654209.767    22654218.266
  23526252.555   -12616467.27649  -9805461.54946  23526252.184    23526260.205
  24212647.724    -6255349.67349  -4851848.87645  24212647.104    24212656.176
  23295031.935   -12686085.62549  -9868697.70246  23295031.436    23295038.296
  22900172.514   -11379417.75749  -8585868.01346  22900171.941    22900180.103
 03  3 29  2 36 30.0000000  0  8G 3G25G14G15G11G23G18G31
  23343477.556   -12055126.85849  -9365503.52146  23343477.247    23343486.298
  23060443.363   -11041676.78349  -8593516.13046  23060443.098    23060451.660
  20365233.434   -29057377.72549 -22343635.63648  20365232.903    20365237.856
  22672648.102   -18025433.74849 -13786059.12846  22672647.293    22672655.840
  23508584.337   -12709314.60449  -9877809.95246  23508583.876    23508591.810
  24224423.844    -6193465.28649  -4803627.27345  24224423.271    24224432.391
  23308082.268   -12617505.36049  -9815258.53746  23308081.801    23308088.705
  22909936.258   -11328109.21849  -8545887.39146  22909935.662    22909943.855
 03  3 29  2 37  0.0000000  0  8G 3G25G14G15G11G23G18G31
  23358612.727   -11975591.22449  -9303527.76446  23358612.409    23358621.503
  23042517.135   -11135879.20849  -8666920.47746  23042516.878    23042525.411
  20370592.427   -29029215.94149 -22321691.37948  20370591.903    20370596.849
  22691139.097   -17928262.94549 -13710341.66746  22691138.292    22691146.857
  23490951.943   -12801972.56349  -9950010.78746  23490951.493    23490959.402
  24236210.050    -6131528.61649  -4755364.95345  24236209.462    24236218.589
  23321150.614   -12548830.62549  -9761745.74146  23321150.124    23321157.026
  22919777.373   -11276394.13049  -8505589.96746  22919776.779    22919784.966
 03  3 29  2 37 30.0000000  0  8G 3G25G14G15G11G23G18G31
  23373781.099   -11895881.48849  -9241416.35146  23373780.698    23373789.832
  23024621.267   -11229921.98149  -8740200.43246  23024621.017    23024629.469
  20376032.909   -29000625.80849 -22299413.34448  20376032.386    20376037.342
  22709683.370   -17830812.23849 -13634406.09446  22709682.544    22709691.122
  23473356.257   -12894438.12249 -10022061.71246  23473355.794    23473363.603
  24248006.263    -6069538.72749  -4707061.14545  24248005.794    24248014.982
  23334236.998   -12480060.78849  -9708158.85246  23334236.554    23334243.536
  22929695.417   -11224274.43649  -8464977.26546  22929694.823    22929703.029
 03  3 29  2 38  0.0000000  0  8G 3G25G14G15G11G23G18G31
  23388981.923   -11816000.87949  -9179171.78846  23388981.474    23388990.672
  23006756.273   -11323802.61349  -8813354.03446  23006755.995    23006764.463
  20381554.525   -28971609.50949 -22276803.23848  20381553.994    20381558.955
  22728280.512   -17733083.65649 -13558254.00346  22728279.709    22728288.291
  23455797.557   -12986709.22749 -10093961.11646  23455797.080    23455804.959
  24259812.739    -6007495.28949  -4658715.62145  24259812.261    24259821.483
  23347341.533   -12411196.26449  -9654498.18246  23347341.092    23347348.073
  22939689.982   -11171752.79349  -8424051.35346  22939689.374    22939697.599
 03  3 29  2 38 30.0000000  0  8G 3G25G14G15G11G23G18G31
  23404214.681   -11735952.52249  -9116796.51946  23404214.210    23404223.419
  22988922.672   -11417518.32949  -8886379.14446  22988922.380    22988930.844
  20387156.852   -28942169.05549 -22253862.61248  20387156.315    20387161.284
  22746930.176   -17635079.23449 -13481886.96146  22746929.329    22746937.966
  23438276.096   -13078783.49449 -10165707.13946  23438275.699    23438283.671
  24271629.411    -5945398.28949  -4610328.34745  24271628.871    24271638.146
  23360464.071   -12342237.17849  -9600763.81946  23360463.578    23360470.529
  22949760.460   -11118831.92249  -8382814.35946  22949759.912    22949768.151
 03  3 29  2 39  0.0000000  0  8G 3G25G14G15G11G23G18G31
  23419478.660   -11655739.61649  -9054293.02346  23419478.213    23419487.478
  22971120.869   -11511066.80849  -8959273.91146  22971120.604    22971129.043
  20392839.535   -28912306.24449 -22230592.87348  20392838.981    20392843.965
  22765631.972   -17536800.70449 -13405306.33546  22765631.152    22765639.818
  23420792.742   -13170658.94049 -10237298.25146  23420792.303    23420800.131
  24283456.288    -5883247.60149  -4561899.25645  24283455.703    24283465.025
  23373604.468   -12273183.66949  -9546955.88046  23373604.051    23373610.972
  22959906.405   -11065514.79749  -8341268.60146  22959905.818    22959914.104
 03  3 29  2 39 30.0000000  0  8G 3G25G14G15G11G23G18G31
  23434773.595   -11575364.40149  -8991663.05646  23434773.134    23434782.390
  22953351.532   -11604444.76949  -9032035.83046  22953351.305    22953359.679
  20398602.314   -28882022.45649 -22206995.10448  20398601.782    20398606.753
  22784385.727   -17438249.17349 -13328512.98746  22784384.928    22784393.615
  23403347.611   -13262332.91749 -10308732.37146  23403347.150    23403354.971
  24295293.599    -5821042.37049  -4513427.65645  24295293.019    24295302.378
  23386762.953   -12204035.26549  -9493073.99246  23386762.491    23386769.584
  22970127.379   -11011803.43249  -8299415.64046  22970126.772    22970135.091
 03  3 29  2 40  0.0000000  0  8G 3G25G14G15G11G23G18G31
  23450098.736   -11494830.18249  -8928909.18246  23450098.365    23450107.647
  22935615.239   -11697649.10949  -9104662.45446  22935615.014    22935623.375
  20404444.850   -28851319.65549 -22183070.82848  20404444.327    20404449.291
  22803191.048   -17339426.63549 -13251508.46346  22803190.240    22803198.892
  23385941.271   -13353803.00849 -10380007.62446  23385940.870    23385948.652
  24307141.276    -5758782.47149  -4464913.45345  24307140.677    24307150.018
  23399939.438   -12134792.11649  -9439118.27846  23399938.960    23399946.110
  22980422.861   -10957700.52349  -8257257.57346  22980422.225    22980430.567
 03  3 29  2 40 30.0000000  0  8G 3G25G14G15G11G23G18G31
  23465453.563   -11414140.41249  -8866034.11346  23465453.155    23465462.462
  22917912.337   -11790677.76949  -9177152.18046  22917912.150    22917920.472
  20410366.699   -28820200.02149 -22158821.74548  20410366.158    20410371.141
  22822047.479   -17240335.50949 -13174294.64246  22822046.706    22822055.363
  23368574.184   -13445067.42949 -10451122.60946  23368573.733    23368581.458
  24318999.375    -5696467.95849  -4416356.70645  24318998.718    24319007.969
  23413134.009   -12065454.46349  -9385088.93146  23413133.504    23413140.613
  22990792.261   -10903209.19949  -8214796.85146  22990791.606    22990799.913
 03  3 29  2 41  0.0000000  0  8G 3G25G14G15G11G23G18G31
  23480837.525   -11333297.54549  -8803039.73446  23480837.125    23480846.403
  22900243.563   -11883527.42149  -9249502.41646  22900243.312    22900251.663
  20416367.611   -28788664.94849 -22134248.94148  20416367.073    20416372.062
  22840954.790   -17140976.98749 -13096872.45346  22840954.016    22840962.672
  23351246.607   -13536123.39049 -10522075.16446  23351246.179    23351253.921
  24330867.932    -5634098.12849  -4367756.86545  24330867.351    24330876.657
  23426346.534   -11996022.09649  -9330985.79146  23426346.078    23426353.116
  23001235.117   -10848331.69849  -8172035.20346  23001234.477    23001242.759
 03  3 29  2 41 30.0000000  0  8G 3G25G14G15G11G23G18G31
  23496250.005   -11252304.38149  -8739928.24746  23496249.635    23496258.944
  22882609.292   -11976195.61149  -9321711.25546  22882609.030    22882617.377
  20422447.204   -28756716.41849 -22109353.96448  20422446.664    20422451.658
  22859912.727   -17041352.75749 -13019243.24546  22859911.933    22859920.560
  23333959.178   -13626968.57749 -10592863.48646  23333958.746    23333966.519
  24342747.046    -5571672.62649  -4319113.61245  24342746.357    24342755.760
  23439577.084   -11926494.99149  -9276808.82546  23439576.629    23439583.674
  23011751.002   -10793070.64749  -8128974.67446  23011750.357    23011758.653
 03  3 29  2 42  0.0000000  0  8G 3G25G14G15G11G23G18G31
  23511690.632   -11171163.95549  -8676702.01246  23511690.215    23511699.550
  22865010.116   -12068679.19049  -9393776.24346  22865009.874    22865018.166
  20428605.131   -28724356.04549 -22084138.06948  20428604.611    20428609.599
  22878920.809   -16941464.61749 -12941408.36746  22878920.033    22878928.662
  23316712.317   -13717600.82449 -10663485.87846  23316711.847    23316719.603
  24354636.937    -5509190.90949  -4270426.55745  24354636.337    24354645.588
  23452825.668   -11856873.12549  -9222558.01246  23452825.227    23452832.235
  23022339.351   -10737428.57449  -8085617.26346  23022338.736    23022346.988
 03  3 29  2 42 30.0000000  0  8G 3G25G14G15G11G23G18G31
  23527158.542   -11089879.70949  -8613363.71146  23527158.147    23527167.467
  22847446.506   -12160975.90849  -9465695.61146  22847446.272    22847454.555
  20434841.009   -28691586.27849 -22058603.16448  20434840.474    20434845.458
  22897978.748   -16841314.64049 -12863369.45446  22897977.960    22897986.591
  23299506.356   -13808018.11849 -10733940.77846  23299505.937    23299513.564
  24366537.471    -5446653.17249  -4221695.84445  24366536.798    24366546.111
  23466092.286   -11787156.82649  -9168233.60446  23466091.822    23466098.762
  23032999.630   -10681408.56349  -8041965.33246  23032999.037    23033007.313
 03  3 29  2 43  0.0000000  0  8G 3G25G14G15G11G23G18G31
  23542653.326   -11008454.18849  -8549915.31646  23542652.931    23542662.278
  22829919.071   -12253082.61649  -9537466.94546  22829918.807    22829927.059
  20441154.538   -28658408.32049 -22032750.18848  20441154.004    20441158.973
  22917086.177   -16740904.45249 -12785127.79646  22917085.372    22917094.070
  23282342.007   -13898217.20049 -10804225.63546  23282341.511    23282349.137
  24378448.758    -5384058.71749  -4172920.93345  24378448.171    24378457.371
  23479376.994   -11717345.23849  -9113834.96546  23479376.526    23479383.463
  23043731.398   -10625012.89349  -7998020.68946  23043730.767    23043739.014
 03  3 29  2 43 30.0000000  0  8G 3G25G14G15G11G23G18G31
  23558174.396   -10926890.73749  -8486359.45146  23558174.005    23558183.346
  22812428.215   -12344997.11849  -9609088.49446  22812427.935    22812436.144
  20447545.357   -28624824.36849 -22006580.85648  20447544.829    20447549.789
  22936242.704   -16640236.49749 -12706685.28246  22936241.900    22936250.565
  23265219.321   -13988196.56649 -10874339.28446  23265218.914    23265226.401
  24390370.921    -5321407.53749  -4124101.83145  24390370.148    24390379.494
  23492679.694   -11647439.19749  -9059362.70446  23492679.146    23492686.173
  23054534.013   -10568244.86249  -7953785.89146  23054533.409    23054541.691
 03  3 29  2 44  0.0000000  0  8G 3G25G14G15G11G23G18G31
  23573721.298   -10845191.50149  -8422697.77246  23573720.932    23573730.221
  22794974.664   -12436715.49349  -9680557.21446  22794974.408    22794982.571
  20454013.123   -28590835.83249 -21980096.26148  20454012.602    20454017.543
  22955448.101   -16539311.71849 -12628042.65446  22955447.295    22955455.987
  23248139.143   -14077953.30449 -10944279.47546  23248138.699    23248146.143
  24402304.026    -5258698.50149  -4075237.64445  24402303.327    24402312.583
  23506000.471   -11577438.11349  -9004816.41046  23505999.965    23506006.873
  23065407.149   -10511106.35749  -7909262.43046  23065406.521    23065414.840
 03  3 29  2 44 30.0000000  0  8G 3G25G14G15G11G23G18G31
  23589293.346   -10763360.02849  -8358933.06246  23589292.962    23589302.267
  22777558.888   -12528235.60349  -9751871.45546  22777558.635    22777566.714
  20460557.450   -28556445.14049 -21953298.29648  20460556.921    20460561.863
  22974701.991   -16438132.13049 -12549201.45746  22974701.175    22974709.870
  23231101.529   -14167485.33349 -11014044.55046  23231101.233    23231108.584
  24414248.124    -5195931.86349  -4026328.59045  24414247.419    24414256.762
  23519339.252   -11507342.21849  -8950196.23146  23519338.731    23519345.702
  23076350.143   -10453600.56149  -7864452.76546  23076349.546    23076357.803
 03  3 29  2 45  0.0000000  0  8G 3G25G14G15G11G23G18G31
  23604889.988   -10681399.48849  -8295067.77846  23604889.665    23604898.894
  22760181.320   -12619554.77749  -9823029.12246  22760181.045    22760189.080
  20467177.982   -28521654.01149 -21926188.29848  20467177.448    20467182.387
  22994003.991   -16336699.71249 -12470163.25946  22994003.183    22994011.863
  23214107.252   -14256790.68049 -11083632.97746  23214106.868    23214114.210
  24426203.245    -5133107.40649  -3977374.45045  24426202.612    24426211.719
  23532696.065   -11437151.65049  -8895502.27446  23532695.544    23532702.474
  23087362.557   -10395730.20649  -7819359.01946  23087361.952    23087370.225
 03  3 29  2 45 30.0000000  0  8G 3G25G14G15G11G23G18G31
  23620510.706   -10599312.43149  -8231103.89346  23620510.341    23620519.601
  22742842.567   -12710670.04449  -9894027.87946  22742842.318    22742850.284
  20473874.356   -28486464.22349 -21898767.66148  20473873.812    20473878.754
  23013353.782   -16235016.13049 -12390929.34446  23013352.937    23013361.651
  23197156.560   -14345866.35349 -11153042.43946  23197156.204    23197163.574
  24438169.481    -5070224.34749  -3928374.65845  24438168.868    24438177.849
  23546071.028   -11366866.01349  -8840734.24246  23546070.514    23546077.305
  23098443.827   -10337497.76849  -7773983.13346  23098443.251    23098451.507
 03  3 29  2 46  0.0000000  0  8G 3G25G14G15G11G23G18G31
  23636154.938   -10517101.84249  -8167043.76946  23636154.611    23636163.778
  22725543.089   -12801578.68149  -9964865.65346  22725542.874    22725550.826
  20480646.217   -28450877.72049 -21871037.90448  20480645.664    20480650.592
  23032750.896   -16133083.55349 -12311501.41046  23032750.099    23032758.795
  23180250.040   -14434710.35849 -11222271.38946  23180249.668    23180256.912
  24450146.809    -5007282.67849  -3879329.19045  24450146.146    24450155.170
  23559464.016   -11296485.48249  -8785892.26746  23559463.434    23559470.247
  23109593.487   -10278906.17949  -7728327.38846  23109592.872    23109601.169
 03  3 29  2 46 30.0000000  0  8G 3G25G14G15G11G23G18G31
  23651822.037   -10434770.56349  -8102889.58746  23651821.764    23651831.019
  22708283.574   -12892277.63449 -10035540.02846  22708283.313    22708291.229
  20487493.262   -28414896.16249 -21843000.30448  20487492.704    20487497.636
  23052195.206   -16030903.21549 -12231880.40446  23052194.378    23052203.132
  23163388.031   -14523320.15949 -11291317.84046  23163387.671    23163394.857
  24462135.533    -4944281.62049  -3830237.46445  24462134.846    24462143.781
  23572874.995   -11226009.81949  -8730976.16646  23572874.518    23572881.369
  23120810.997   -10219958.02149  -7682393.79446  23120810.366    23120818.655
 03  3 29  2 47  0.0000000  0  8G 3G25G14G15G11G23G18G31
  23667511.577   -10352321.84849  -8038643.90145  23667511.253    23667520.531
  22691064.368   -12982764.72349 -10106049.32046  22691064.133    22691071.967
  20494415.055   -28378521.83149 -21814656.64948  20494414.502    20494419.427
  23071686.173   -15928477.57149 -12152068.24846  23071685.385    23071694.148
  23146571.073   -14611693.64049 -11360180.14846  23146570.642    23146577.742
  24474135.533    -4881221.20249  -3781099.49445  24474134.859    24474143.842
  23586304.143   -11155439.40149  -8675986.23046  23586303.582    23586310.409
  23132095.761   -10160656.37049  -7636184.74646  23132095.153    23132103.424
 03  3 29  2 47 30.0000000  0  8G 3G25G14G15G11G23G18G31
  23683222.967   -10269758.40949  -7974308.81245  23683222.616    23683231.901
  22673886.038   -13073036.84949 -10176391.12846  22673885.766    22673893.610
  20501411.262   -28341756.31149 -21786008.17448  20501410.709    20501415.636
  23091223.511   -15825808.36349 -12072066.31546  23091222.709    23091231.514
  23129799.571   -14699828.22749 -11428856.30646  23129799.104    23129806.199
  24486146.921    -4818100.87749  -3731914.80445  24486146.313    24486155.176
  23599751.259   -11084773.97349  -8620922.25546  23599750.732    23599757.581
  23143447.335   -10101003.68449  -7589702.16146  23143446.715    23143454.994
 03  3 29  2 48  0.0000000  0  8G 3G25G14G15G11G23G18G31
  23698955.582   -10187083.14649  -7909886.59245  23698955.225    23698964.513
  22656749.110   -13163091.44549 -10246563.40846  22656748.849    22656756.649
  20508481.535   -28304601.74249 -21757056.53948  20508480.964    20508485.887
  23110806.864   -15722897.32149 -11991875.92846  23110806.032    23110814.864
  23113073.842   -14787721.60549 -11497344.52446  23113073.432    23113080.351
  24498169.850    -4754920.31949  -3682683.19745  24498169.201    24498178.214
  23613216.605   -11014013.41949  -8565784.16446  23613216.061    23613222.873
  23154865.147   -10041002.84149  -7542948.28346  23154864.521    23154872.824
 03  3 29  2 48 30.0000000  0  8G 3G25G14G15G11G23G18G31
  23714708.881   -10104299.11049  -7845379.62445  23714708.509    23714717.859
  22639654.164   -13252925.56049 -10316563.89546  22639653.884    22639661.625
  20515625.512   -28267059.87549 -21727803.12148  20515624.938    20515629.858
  23130435.878   -15619746.39549 -11911498.63146  23130435.073    23130443.862
  23096394.550   -14875371.13049 -11565642.70346  23096394.120    23096401.168
  24510204.284    -4691679.14149  -3633404.36545  24510203.589    24510212.661
  23626699.998   -10943157.77249  -8510571.97846  23626699.416    23626706.240
  23166348.643    -9980656.57349  -7495925.26246  23166348.021    23166356.324
 03  3 29  2 49  0.0000000  0  8G 3G25G14G15G11G23G18G31
  23730482.435   -10021409.20949  -7780790.15245  23730481.910    23730491.309
  22622601.636   -13342536.61249 -10386390.56346  22622601.359    22622609.084
  20522842.820   -28229132.51649 -21698249.31548  20522842.252    20522847.166
  23150110.163   -15516357.41049 -11830935.82846  23150109.343    23150118.159
  23079762.042   -14962774.72949 -11633749.27046  23079761.683    23079768.686
  24522250.380    -4628376.65649  -3584077.76145  24522249.661    24522258.769
  23640201.407   -10872206.92849  -8455285.63245  23640200.899    23640207.702
  23177897.389    -9919967.45649  -7448635.05446  23177896.766    23177905.056
 03  3 29  2 49 30.0000000  0  8G 3G25G14G15G11G23G18G31
  23746275.407    -9938416.79549  -7716120.80245  23746274.945    23746284.373
  22605592.057   -13431922.16949 -10456041.52546  22605591.745    22605599.435
  20530132.989   -28190822.26849 -21668397.15148  20530132.415    20530137.335
  23169829.359   -15412732.58249 -11750189.26346  23169828.522    23169837.342
  23063176.836   -15049930.30349 -11701662.58346  23063176.416    23063183.417
  24534307.937    -4565013.35549  -3534703.77945  24534307.342    24534316.391
  23653720.990   -10801161.32249  -8399925.41545  23653720.460    23653727.208
  23189510.759    -9858938.94049  -7401080.40746  23189510.106    23189518.455
 03  3 29  2 50  0.0000000  0  8G 3G25G14G15G11G23G18G31
  23762087.446    -9855324.11849  -7651373.33245  23762086.989    23762096.448
  22588626.065   -13521078.46949 -10525513.83646  22588625.790    22588633.458
  20537495.784   -28152130.35749 -21638247.58448  20537495.218    20537500.131
  23189593.120   -15308873.29749 -11669259.99346  23189592.319    23189601.140
  23046639.258   -15136835.12649 -11769380.48646  23046638.844    23046645.837
  24546377.508    -4501588.05049  -3485281.47745  24546376.787    24546385.945
  23667258.731   -10730020.07949  -8344490.66745  23667258.208    23667264.919
  23201188.262    -9797573.28249  -7353263.03846  23201187.632    23201195.989
 03  3 29  2 50 30.0000000  0  8G 3G25G14G15G11G23G18G31
  23777917.928    -9772134.19049  -7586550.07145  23777917.591    23777927.063
  22571704.153   -13610003.23749 -10594805.73946  22571703.865    22571711.502
  20544930.795   -28113058.96949 -21607802.33048  20544930.241    20544935.134
  23209401.125   -15204781.58549 -11588149.61846  23209400.336    23209409.153
  23030149.802   -15223486.96049 -11836901.26746  23030149.400    23030156.421
  24558458.769    -4438100.78749  -3435810.88745  24558457.953    24558467.019
  23680814.534   -10658783.69949  -8288981.84845  23680813.963    23680820.693
  23212929.373    -9735873.40549  -7305185.23546  23212928.814    23212937.088
 03  3 29  2 51  0.0000000  0  8G 3G25G14G15G11G23G18G31
  23793766.418    -9688850.42149  -7521653.69045  23793765.989    23793775.507
  22554826.769   -13698694.02449 -10663915.32746  22554826.469    22554834.052
  20552437.634   -28073610.24049 -21577063.03248  20552437.064    20552441.965
  23229252.940   -15100459.66049 -11506859.84246  23229252.123    23229261.012
  23013709.099   -15309883.58949 -11904223.18846  23013708.591    23013715.583
  24570551.867    -4374551.29949  -3386291.83545  24570551.002    24570560.323
  23694388.361   -10587452.28749  -8233398.92845  23694387.816    23694394.661
  23224733.501    -9673842.42849  -7256849.42446  23224732.922    23224741.194
 03  3 29  2 51 30.0000000  0  8G 3G25G14G15G11G23G18G31
  23809632.227    -9605475.19949  -7456686.04345  23809631.885    23809641.349
  22537994.494   -13787147.75149 -10732840.18146  22537994.211    22538001.775
  20560016.016   -28033785.47749 -21546030.72748  20560015.448    20560020.342
  23249148.271   -14995909.01349 -11425391.84946  23249147.470    23249156.402
  22997317.366   -15396021.99149 -11971343.90646  22997316.890    22997323.833
  24582656.997    -4310938.68649  -3336723.58645  24582656.131    24582665.313
  23707980.548   -10516024.95349  -8177741.25745  23707980.016    23707986.791
  23236600.244    -9611482.49449  -7208257.29746  23236599.616    23236607.975
 03  3 29  2 52  0.0000000  0  8G 3G25G14G15G11G23G18G31
  23825514.768    -9522011.95649  -7391649.82145  23825514.449    23825523.933
  22521207.707   -13875362.30549 -10801578.66746  22521207.433    22521214.970
  20567665.441   -27993587.31149 -21514707.45148  20567664.872    20567669.761
  23269086.745   -14891132.01449 -11343747.47346  23269085.906    23269094.876
  22980975.111   -15481900.39349 -12038262.02446  22980974.692    22980981.612
  24594773.976    -4247263.23349  -3287106.36745  24594773.172    24594782.431
  23721590.820   -10444502.61149  -8122009.59445  23721590.244    23721597.031
  23248528.890    -9548797.21349  -7159411.64246  23248528.229    23248536.608
 03  3 29  2 52 30.0000000  0  8G 3G25G14G15G11G23G18G31
  23841413.574    -9438463.26149  -7326547.00345  23841413.303    23841422.787
  22504467.070   -13963334.58449 -10870128.37446  22504466.802    22504474.301
  20575385.616   -27953017.52449 -21483094.60448  20575385.037    20575389.926
  23289067.915   -14786130.31949 -11261928.01746  23289067.064    23289075.971
  22964682.904   -15567516.34649 -12104975.64546  22964682.421    22964689.322
  24606903.037    -4183524.31849  -3237439.71345  24606902.265    24606911.492
  23735219.136   -10372885.05349  -8066203.70645  23735218.650    23735225.312
  23260518.946    -9485789.07549  -7110314.41046  23260518.269    23260526.690
 03  3 29  2 53  0.0000000  0  8G 3G25G14G15G11G23G18G31
  23857328.163    -9354831.84149  -7261379.73145  23857327.855    23857337.355
  22487773.072   -14051061.67049 -10938487.01446  22487772.789    22487780.257
  20583176.142   -27912077.74249 -21451193.44848  20583175.584    20583180.478
  23309091.549   -14680905.68449 -11179934.81846  23309090.722    23309099.598
  22948441.127   -15652867.15349 -12171482.66746  22948440.616    22948447.449
  24619044.429    -4119721.34649  -3187723.14045  24619043.711    24619052.823
  23748865.856   -10301171.81149  -8010323.29345  23748865.353    23748871.783
  23272569.962    -9422460.74549  -7060967.68346  23272569.275    23272577.713
 03  3 29  2 53 30.0000000  0  8G 3G25G14G15G11G23G18G31
  23873257.853    -9271121.03249  -7196150.59645  23873257.488    23873267.105
  22471126.213   -14138541.08949 -11006652.66346  22471125.913    22471133.363
  20591036.626   -27870770.48649 -21419005.93748  20591036.052    20591040.951
  23329157.188   -14575460.39349 -11097769.69046  23329156.361    23329165.164
  22932250.065   -15737951.10649 -12237781.74246  22932249.564    22932256.395
  24631197.797    -4055854.62749  -3137956.87145  24631197.156    24631206.351
  23762530.370   -10229363.49649  -7954368.75945  23762529.863    23762536.533
  23284681.223    -9358815.54149  -7011374.03346  23284680.551    23284689.015
 03  3 29  2 54  0.0000000  0  8G 3G25G14G15G11G23G18G31
  23889202.176    -9187333.36449  -7130861.56045  23889201.790    23889211.373
  22454526.982   -14225770.00149 -11074623.12447  22454526.685    22454534.122
  20598966.744   -27829097.30549 -21386533.30048  20598966.173    20598971.062
  23349264.460   -14469795.92949 -11015433.77646  23349263.672    23349272.476
  22916110.388   -15822765.02949 -12303870.41046  22916109.937    22916116.744
  24643363.693    -3991923.02249  -3088140.07845  24643363.025    24643372.235
  23776213.323   -10157459.17649  -7898339.44245  23776212.870    23776219.395
  23296852.367    -9294855.81349  -6961535.30746  23296851.696    23296860.268
 03  3 29  2 54 30.0000000  0  8G 3G25G14G15G11G23G18G31
  23905160.462    -9103472.19149  -7065515.25645  23905160.082    23905169.696
  22437975.895   -14312746.07249 -11142396.56047  22437975.613    22437983.016
  20606966.075   -27787060.38349 -21353777.22448  20606965.525    20606970.395
  23369412.961   -14363914.98049 -10932929.18146  23369412.132    23369420.966
  22900022.448   -15907307.12649 -12369747.26946  22900022.005    22900028.825
  24655541.769    -3927926.71849  -3038272.85845  24655541.134    24655550.395
  23789914.388   -10085459.71949  -7842236.00645  23789913.895    23789920.538
  23309082.686    -9230584.95749  -6911454.15046  23309082.038    23309090.617
 03  3 29  2 55  0.0000000  0  8G 3G25G14G15G11G23G18G31
  23921132.277    -9019540.02949  -7000113.63445  23921131.835    23921141.493
  22421473.480   -14399466.06449 -11209970.45547  22421473.228    22421480.631
  20615034.272   -27744661.53349 -21320739.12948  20615033.699    20615038.579
  23389602.398   -14257818.75849 -10850256.84646  23389601.596    23389610.451
  22883986.829   -15991574.62649 -12435410.15446  22883986.326    22883993.117
  24667732.266    -3863865.05149  -2988354.67245  24667731.505    24667740.975
  23803633.622   -10013364.65349  -7786058.05045  23803633.168    23803639.804
  23321371.757    -9166005.54549  -6861132.55746  23321371.121    23321379.719
 03  3 29  2 55 30.0000000  0  8G 3G25G14G15G11G23G18G31
  23937116.977    -8935539.93649  -6934659.08145  23937116.579    23937126.233
  22405020.330   -14485927.55249 -11277342.91247  22405020.028    22405027.421
  20623170.938   -27701902.97649 -21287420.73948  20623170.366    20623175.248
  23409832.442   -14151509.59649 -10767418.57146  23409831.641    23409840.429
  22868003.784   -16075565.48749 -12500857.47946  22868003.321    22868010.019
  24679935.182    -3799737.82549  -2938385.45545  24679934.627    24679943.892
  23817371.029    -9941173.87249  -7729805.52645  23817370.637    23817377.354
  23333718.958    -9101120.73549  -6810572.98446  23333718.273    23333726.896
 03  3 29  2 56  0.0000000  0  8G 3G25G14G15G11G23G18G31
  23953114.106    -8851474.84149  -6869153.87445  23953113.694    23953123.409
  22388616.895   -14572127.58849 -11344511.64147  22388616.624    22388624.002
  20631375.661   -27658786.62449 -21253823.55548  20631375.086    20631379.983
  23430102.587   -14044989.47549 -10684415.92146  23430101.818    23430110.604
  22852073.905   -16159277.07149 -12566087.17746  22852073.489    22852080.181
  24692150.768    -3735544.65949  -2888364.81845  24692150.210    24692159.482
  23831126.761    -9868887.37849  -7673478.43645  23831126.364    23831133.039
  23346123.774    -9035933.16749  -6759777.50546  23346123.105    23346131.697
 03  3 29  2 56 30.0000000  0  8G 3G25G14G15G11G23G18G31
  23969123.145    -8767347.60249  -6803600.25445  23969122.632    23969132.345
  22372263.681   -14658063.89649 -11411474.87647  22372263.385    22372270.737
  20639648.086   -27615314.54249 -21219949.17548  20639647.509    20639652.401
  23450412.468   -13938260.47849 -10601250.50545  23450411.678    23450420.471
  22836197.614   -16242707.32349 -12631097.66846  22836197.150    22836203.786
  24704378.827    -3671285.47149  -2838292.74845  24704378.115    24704387.713
  23844900.689    -9796505.42349  -7617076.93345  23844900.179    23844906.925
  23358585.533    -8970446.09649  -6708748.65846  23358584.879    23358593.473
 03  3 29  2 57  0.0000000  0  8G 3G25G14G15G11G23G18G31
  23985143.282    -8683161.12549  -6738000.45345  23985142.841    23985152.478
  22355961.191   -14743733.47149 -11478230.26747  22355960.891    22355968.230
  20647987.914   -27571488.39749 -21185798.90848  20647987.326    20647992.211
  23470761.785   -13831324.19249 -10517923.55045  23470761.020    23470769.770
  22820375.336   -16325853.53649 -12695886.82346  22820374.904    22820381.439
  24716619.490    -3606959.44349  -2788168.62245  24716618.891    24716628.471
  23858692.782    -9724027.68349  -7560600.81345  23858692.251    23858699.057
  23371103.862    -8904662.02249  -6657488.36846  23371103.172    23371111.783
 03  3 29  2 57 30.0000000  0  8G 3G25G14G15G11G23G18G31
  24001174.239    -8598917.94049  -6672356.48545  24001173.833    24001183.501
  22339709.925   -14829133.85349 -11544775.89547  22339709.631    22339716.943
  20656394.745   -27527310.13449 -21151374.25648  20656394.146    20656399.038
  23491150.146   -13724182.70049 -10434436.72045  23491149.306    23491158.112
  22804607.557   -16408713.35449 -12760452.80646  22804607.109    22804613.653
  24728873.246    -3542566.27249  -2737992.15945  24728872.618    24728882.038
  23872503.143    -9651453.91749  -7504049.85245  23872502.621    23872509.429
  23383678.128    -8838583.73949  -6605998.82346  23383677.447    23383686.111
 03  3 29  2 58  0.0000000  0  8G 3G25G14G15G11G23G18G31
  24017215.359    -8514621.51449  -6606671.02045  24017214.958    24017224.585
  22323510.332   -14914262.69149 -11611109.92647  22323510.056    22323517.317
  20664868.011   -27482782.55149 -21116677.41348  20664867.430    20664872.313
  23511577.067   -13616838.44649 -10350791.88645  23511576.274    23511585.134
  22788894.664   -16491284.83349 -12824794.10946  22788894.187    22788900.700
  24741139.702    -3478106.16549  -2687763.53345  24741138.997    24741148.438
  23886331.652    -9578784.68949  -7447424.51145  23886331.137    23886337.838
  23396307.750    -8772214.83149  -6554282.81446  23396307.053    23396315.722
 03  3 29  2 58 30.0000000  0  8G 3G25G14G15G11G23G18G31
  24033266.199    -8430274.45649  -6540946.11245  24033265.656    24033275.349
  22307363.095   -14999116.62949 -11677229.76047  22307362.804    22307370.021
  20673407.505   -27437907.15449 -21081709.54948  20673406.918    20673411.792
  23532042.278   -13509292.99049 -10266990.27045  23532041.547    23532050.352
  22773237.156   -16573565.06049 -12888908.46646  22773236.687    22773243.171
  24753418.817    -3413578.25349  -2637482.08645  24753418.255    24753427.561
  23900178.399    -9506019.49649  -7390724.39345  23900177.901    23900184.751
  23408992.130    -8705557.88649  -6502342.37146  23408991.443    23409000.121
 03  3 29  2 59  0.0000000  0  8G 3G25G14G15G11G23G18G31
  24049326.135    -8345879.39649  -6475183.79245  24049325.578    24049335.281
  22291268.657   -15083692.92749 -11743133.24747  22291268.356    22291275.545
  20682012.855   -27392685.58849 -21046471.95148  20682012.271    20682017.142
  23552545.483   -13401548.12649 -10183033.26945  23552544.763    23552553.601
  22757635.523   -16655551.65749 -12952794.03146  22757635.087    22757641.525
  24765711.095    -3348981.81749  -2587147.21945  24765710.635    24765719.965
  23914043.504    -9433158.22649  -7333949.41345  23914042.972    23914049.792
  23421730.822    -8638615.32849  -6450179.36446  23421730.203    23421738.839
 03  3 29  2 59 30.0000000  0  8G 3G25G14G15G11G23G18G31
  24065394.501    -8261439.42349  -6409386.47545  24065394.004    24065403.729
  22275227.536   -15167989.14649 -11808818.49947  22275227.241    22275234.393
  20690683.656   -27347120.11449 -21010966.37148  20690683.068    20690687.921
  23573086.141   -13293606.20149 -10098922.73245  23573085.412    23573094.324
  22742090.110   -16737242.78349 -13016449.35646  22742089.679    22742096.119
  24778016.480    -3284317.19649  -2536759.24245  24778015.867    24778025.319
  23927926.887    -9360201.09549  -7277099.73245  23927926.312    23927933.072
  23434523.284    -8571390.69549  -6397796.54346  23434522.627    23434531.293
 03  3 29  3  0  0.0000000  0  8G 3G25G14G15G11G23G18G31
  24081470.952    -8176957.51149  -6343556.48645  24081470.475    24081480.235
  22259240.132   -15252002.87749 -11874283.62747  22259239.849    22259246.954
  20699419.477   -27301212.98649 -20975194.56948  20699418.900    20699423.732
  23593663.970   -13185469.24149 -10014660.20545  23593663.147    23593672.093
  22726601.492   -16818635.69849 -13079872.30346  22726601.052    22726607.430
  24790334.862    -3219583.93749  -2486317.75245  24790334.259    24790343.554
  23941828.423    -9287147.99149  -7220175.26945  23941827.838    23941834.722
  23447368.865    -8503886.87949  -6345196.19346  23447368.185    23447376.850
 03  3 29  3  0 30.0000000  0  7G 3G25G14G15G11G18G31
  24097554.848    -8092436.44949  -6277695.98045  24097554.320    24097564.109
  22243307.034   -15335731.49649 -11939526.58847  22243306.729    22243313.826
  20708219.924   -27254966.03549 -20939157.97148  20708219.358    20708224.189
  23614278.500   -13077139.34449  -9930247.35245  23614277.656    23614286.632
  22711170.091   -16899728.05849 -13143061.05946  22711169.665    22711175.975
  23955748.189    -9213998.98849  -7163176.09045  23955747.581    23955754.541
  23460267.005    -8436106.82349  -6292380.58346  23460266.276    23460275.001
 03  3 29  3  1  0.0000000  0  7G 3G25G14G15G11G18G31
  24113645.708    -8007878.75449  -6211806.93245  24113645.160    24113654.966
  22227428.762   -15419171.87249 -12004544.94147  22227428.432    22227435.536
  20717084.741   -27208381.05449 -20902857.97548  20717084.181    20717089.011
  23634929.441   -12968617.97649  -9845685.30345  23634928.580    23634937.604
  22695796.360   -16980517.13049 -13206013.49346  22695795.957    22695802.204
  23969686.325    -9140753.76549  -7106101.91845  23969685.752    23969692.691
  23473217.212    -8368053.08649  -6239351.71446  23473216.491    23473225.256
 03  3 29  3  1 30.0000000  0  7G 3G25G14G15G11G18G31
  24129742.966    -7923287.36349  -6145891.62945  24129742.466    24129752.112
  22211605.758   -15502321.97849 -12069337.11247  22211605.426    22211612.488
  20726013.451   -27161460.21349 -20866296.27148  20726012.890    20726017.707
  23655616.399   -12859907.46449  -9760975.86945  23655615.538    23655624.667
  22680480.686   -17061001.09849 -13268728.17946  22680480.280    22680486.494
  23983642.794    -9067412.39949  -7048952.84845  23983642.140    23983649.124
  23486218.888    -8299728.90049  -6186112.11646  23486218.150    23486226.941
 03  3 29  3  2  0.0000000  0  7G 3G25G14G15G11G18G31
  24145846.114    -7838664.95649  -6079952.15745  24145845.599    24145855.356
  22195838.532   -15585178.80349 -12133900.76447  22195838.221    22195845.232
  20735005.731   -27114205.30249 -20829474.25948  20735005.165    20735010.007
  23676338.965   -12751009.70949  -9676120.50245  23676338.142    23676347.264
  22665223.599   -17141177.26749 -13331203.02746  22665223.202    22665229.403
  23997617.515    -8993974.67049  -6991728.69145  23997616.985    23997623.861
  23499271.471    -8231137.06349  -6132663.94846  23499270.714    23499279.519
 03  3 29  3  2 30.0000000  0  7G 3G25G14G15G11G18G31
  24161954.567    -7754014.85149  -6013991.10145  24161954.047    24161963.803
  22180127.548   -15667739.99449 -12198234.06247  22180127.258    22180134.230
  20744061.101   -27066618.98449 -20792394.00748  20744060.536    20744065.379
  23697096.746   -12641927.21749  -9591121.21845  23697095.912    23697105.068
  22650025.418   -17221043.75949 -13393436.56946  22650025.004    22650031.234
  24011610.429    -8920441.27249  -6934429.97845  24011609.919    24011616.942
  23512374.370    -8162281.06749  -6079009.95046  23512373.633    23512382.413
 03  3 29  3  3  0.0000000  0  7G 3G25G14G15G11G18G31
  24178067.767    -7669339.62649  -5948010.46645  24178067.203    24178077.035
  22164473.450   -15750002.59649 -12262334.69147  22164473.144    22164480.078
  20753179.252   -27018702.69049 -20755056.62648  20753178.683    20753183.513
  23717889.348   -12532661.55649  -9505979.19345  23717888.557    23717897.731
  22634886.776   -17300597.64849 -13455426.51846  22634886.334    22634892.558
  24025621.786    -8846811.46349  -6877056.16745  24025621.219    24025628.265
  23525527.074    -8093163.27449  -6025151.94846  23525526.337    23525535.089
 03  3 29  3  3 30.0000000  0  7G 3G25G14G15G11G18G31
  24194185.157    -7584642.21249  -5882012.55145  24194184.604    24194194.452
  22148876.580   -15831964.25449 -12326200.81747  22148876.272    22148883.212
  20762359.777   -26970458.69649 -20717463.89848  20762359.208    20762364.047
  23738716.362   -12423214.94449  -9420696.15245  23738715.549    23738724.765
  22619807.999   -17379836.72149 -13517171.17546  22619807.573    22619813.743
  24039651.407    -8773085.35249  -6819607.30145  24039650.836    24039657.926
  23538728.953    -8023787.02249  -5971092.55546  23538728.238    23538736.921
 03  3 29  3  4  0.0000000  0  7G 3G25G14G15G11G18G31
  24210306.332    -7499925.18249  -5815999.35145  24210305.854    24210315.588
  22133337.567   -15913621.82849 -12389830.00847  22133337.260    22133344.154
  20771602.397   -26921888.52349 -20679617.00248  20771601.799    20771606.622
  23759577.463   -12313589.10849  -9335273.48045  23759576.687    23759585.923
  22604789.631   -17458758.34149 -13578668.45546  22604789.201    22604795.437
  24053699.477    -8699262.55249  -6762083.09545  24053698.911    24053705.882
  23551979.554    -7954154.70549  -5916833.63946  23551978.875    23551987.532
 03  3 29  3  4 30.0000000  0  7G 3G25G14G15G11G18G31
  24226430.570    -7415191.83549  -5749973.44245  24226430.082    24226439.907
  22117856.764   -15994973.57249 -12453220.86747  22117856.447    22117863.337
  20780906.532   -26872994.82949 -20641518.01248  20780905.948    20780910.775
  23780472.259   -12203786.68849  -9249713.18845  23780471.443    23780480.672
  22589832.004   -17537360.81149 -13639917.05046  22589831.575    22589837.784
  24067765.751    -8625343.59449  -6704483.96145  24067765.253    24067772.303
  23565278.217    -7884269.93349  -5862377.98146  23565277.528    23565286.180
 03  3 29  3  5  0.0000000  0  7G 3G25G14G15G11G18G31
  24242557.378    -7330444.89449  -5683936.92545  24242556.947    24242566.808
  22102434.698   -16076016.72849 -12516371.28347  22102434.383    22102441.217
  20790271.840   -26823779.63549 -20603168.51048  20790271.275    20790276.111
  23801400.239   -12093809.32549  -9164016.59245  23801399.424    23801408.712
  22574935.622   -17615641.48049 -13700914.89246  22574935.178    22574941.365
  24081850.364    -8551328.40549  -6646809.85645  24081849.793    24081856.954
  23578624.318    -7814135.79149  -5807728.01746  23578623.638    23578632.286
 03  3 29  3  5 30.0000000  0  7G 3G25G14G15G11G18G31
  24258686.337    -7245686.86749  -5617891.78345  24258685.811    24258695.796
  22087071.857   -16156748.58549 -12579279.12847  22087071.539    22087078.326
  20799698.011   -26774244.85749 -20564569.98748  20799697.419    20799702.258
  23822361.170   -11983659.23249  -9078185.41045  23822360.323    23822369.589
  22560100.924   -17693597.93249 -13761660.09046  22560100.497    22560106.648
  24095953.479    -8477216.74749  -6589060.57145  24095952.849    24095960.007
  23592017.350    -7743754.91549  -5752885.79946  23592016.696    23592025.302
 03  3 29  3  6  0.0000000  0  7G 3G25G14G15G11G18G31
  24274816.842    -7160920.66949  -5551840.27745  24274816.334    24274826.229
  22071768.698   -16237166.81749 -12641942.59047  22071768.383    22071775.140
  20809184.551   -26724392.65749 -20525724.12348  20809183.982    20809188.810
  23843354.507   -11873338.70049  -8992221.41245  23843353.670    23843362.953
  22545328.340   -17771228.06849 -13822151.02446  22545327.894    22545334.090
  24110074.785    -8403008.85449  -6531236.27245  24110074.143    24110081.348
  23605456.727    -7673130.72649  -5697853.98446  23605456.112    23605464.674
 03  3 29  3  6 30.0000000  0  7G 3G25G14G15G11G18G31
  24290948.345    -7076149.16249  -5485784.62345  24290947.887    24290957.763
  22056525.893   -16317268.06749 -12704359.06547  22056525.565    22056532.298
  20818731.204   -26674224.63549 -20486632.16548  20818730.623    20818735.444
  23864380.046   -11762849.30949  -8906125.83445  23864379.205    23864388.415
  22530618.309   -17848529.29349 -13882385.64846  22530617.868    22530624.020
  24124214.560    -8328704.45349  -6473336.82745  24124213.914    24124221.109
  23618941.927    -7602265.66749  -5642634.47246  23618941.307    23618949.862
 03  3 29  3  7  0.0000000  0  7G 3G25G14G15G11G18G31
  24307080.406    -6991375.09449  -5419726.97945  24307079.879    24307089.773
  22041343.720   -16397050.43049 -12766527.04747  22041343.386    22041350.097
  20828337.526   -26623743.03749 -20447295.86048  20828336.962    20828341.766
  23885437.085   -11652193.38149  -8819900.49045  23885436.367    23885445.621
  22515971.341   -17925499.29549 -13942362.18546  22515970.928    22515977.029
  24138372.459    -8254303.54949  -6415362.13345  24138371.903    24138379.221
  23632472.359    -7531162.97249  -5587229.80346  23632471.740    23632480.306
 03  3 29  3  7 30.0000000  0  7G 3G25G14G15G11G18G31
  24323212.440    -6906601.04349  -5353669.35845  24323211.941    24323221.870
  22026222.831   -16476511.00049 -12828444.28147  22026222.484    22026229.185
  20838003.156   -26572949.68949 -20407716.63548  20838002.591    20838007.413
  23906525.792   -11541372.51349  -8733546.62745  23906524.897    23906534.076
  22501387.887   -18002135.52549 -14002078.64446  22501387.484    22501393.568
  24152548.933    -8179805.85049  -6357312.03045  24152548.388    24152555.632
  23646047.448    -7459825.44349  -5531642.13646  23646046.802    23646055.443
 03  3 29  3  8  0.0000000  0  7G 3G25G14G15G11G18G31
  24339343.872    -6821829.88749  -5287613.98645  24339343.373    24339353.394
  22011163.553   -16555647.51749 -12890109.01547  22011163.239    22011169.916
  20847727.748   -26521846.82949 -20367896.23148  20847727.149    20847731.974
  23927645.155   -11430389.17749  -8647066.16045  23927644.307    23927653.560
  22486868.342   -18078435.93249 -14061533.43446  22486867.936    22486873.952
  24166743.800    -8105211.57849  -6299186.67645  24166743.162    24166750.442
  23659666.537    -7388256.34149  -5475874.03246  23659665.934    23659674.572
 03  3 29  3  8 30.0000000  0  7G 3G25G14G15G11G18G31
  24355474.259    -6737064.30549  -5221562.94745  24355473.816    24355483.871
  21996166.458   -16634457.23349 -12951519.10147  21996166.161    21996172.827
  20857510.754   -26470436.55849 -20327836.29048  20857510.186    20857515.013
  23948795.149   -11319245.33249  -8560460.62545  23948794.275    23948803.549
  22472413.146   -18154398.17049 -14120724.70946  22472412.723    22472418.758
  24180956.978    -8030520.79149  -6240986.12745  24180956.192    24180963.547
  23673329.306    -7316458.41849  -5419927.63446  23673328.616    23673337.291
 03  3 29  3  9  0.0000000  0  7G 3G25G14G15G11G18G31
  24371603.068    -6652307.65949  -5155518.89045  24371602.481    24371612.508
  21981231.923   -16712938.35349 -13012673.12947  21981231.620    21981238.259
  20867351.880   -26418721.20349 -20287538.61348  20867351.323    20867356.148
  23969975.283   -11207943.55649  -8473732.02445  23969974.352    23969983.654
  22458022.712   -18230020.23449 -14179650.92146  22458022.285    22458028.264
  24195188.530    -7955733.96549  -6182710.73745  24195187.711    24195195.067
  23687034.838    -7244435.33849  -5363805.77946  23687034.188    23687042.804
 03  3 29  3  9 30.0000000  0  7G 3G25G14G15G11G18G31
  24387729.709    -6567561.84349  -5089483.25645  24387729.006    24387739.132
  21966360.579   -16791087.54949 -13073568.51647  21966360.275    21966366.881
  20877250.847   -26366701.78249 -20247004.00648  20877250.280    20877255.092
  23991185.038   -11096485.04349  -8386881.27145  23991184.219    23991193.511
  22443697.584   -18305298.61549 -14238309.33446  22443697.182    22443703.172
  24209438.400    -7880849.83249  -6124359.52845  24209437.705    24209444.986
  23700782.851    -7172189.12749  -5307510.06146  23700782.230    23700790.857
 03  3 29  3 10  0.0000000  0  7G 3G25G14G15G11G18G31
  24403853.635    -6482829.97049  -5023458.51145  24403853.044    24403863.145
  21951552.808   -16868902.60749 -13134203.53947  21951552.487    21951559.080
  20887207.180   -26314380.87049 -20206234.47048  20887206.628    20887211.438
  24012424.359   -10984872.42049  -8299910.46445  24012423.455    24012432.670
  22429438.148   -18380232.18449 -14296699.06246  22429437.783    22429443.715
  24223706.751    -7805869.11849  -6065933.03345  24223706.138    24223713.545
  23714572.620    -7099723.35849  -5251043.26146  23714572.013    23714580.641
 03  3 29  3 10 30.0000000  0  7G 3G25G14G15G11G18G31
  24419974.361    -6398115.13749  -4957447.02545  24419973.844    24419983.936
  21936809.036   -16946381.13649 -13194576.33047  21936808.733    21936815.299
  20897220.445   -26261760.84249 -20165231.85048  20897219.866    20897224.692
  24033692.448   -10873107.92149  -8212821.27645  24033691.541    24033700.744
  22415244.852   -18454818.39849 -14354818.12846  22415244.419    22415250.338
  24237993.602    -7730792.04949  -6007431.49945  24237993.075    24238000.152
  23728403.600    -7027041.16849  -5194407.80946  23728402.969    23728411.623
 03  3 29  3 11  0.0000000  0  7G 3G25G14G15G11G18G31
  24436091.375    -6313419.74949  -4891450.69845  24436090.987    24436100.937
  21922129.828   -17023520.53049 -13254684.87247  21922129.516    21922136.049
  20907290.277   -26208843.61949 -20123997.65948  20907289.675    20907294.492
  24054988.979   -10761193.77349  -8125615.51145  24054988.089    24054997.431
  22401118.031   -18529054.78349 -14412664.58946  22401117.649    22401123.514
  24252298.569    -7655618.34049  -5948854.61245  24252298.083    24252305.349
  23742275.243    -6954145.47149  -5137606.03046  23742274.586    23742283.208
 03  3 29  3 11 30.0000000  0  7G 3G25G14G15G11G18G31
  24452204.324    -6228746.01749  -4825471.26245  24452203.981    24452213.911
  21907515.687   -17100317.99249 -13314526.96347  21907515.363    21907521.885
  20917416.412   -26155630.37949 -20082532.80148  20917415.804    20917420.630
  24076313.810   -10649131.25849  -8038294.14045  24076312.885    24076322.203
  22387058.392   -18602938.65049 -14470236.37346  22387057.952    22387063.819
  24266622.262    -7580347.37449  -5890201.97745  24266621.757    24266628.781
  23756186.956    -6881038.78649  -5080639.80546  23756186.314    23756194.975
 03  3 29  3 12  0.0000000  0  7G 3G25G14G15G11G18G31
  24468312.520    -6144097.61049  -4759511.56445  24468312.180    24468322.144
  21892966.925   -17176771.91249 -13374101.36747  21892966.595    21892973.094
  20927598.282   -26102124.24649 -20040839.71348  20927597.706    20927602.531
  24097666.357   -10536923.31749  -7950859.45445  24097665.364    24097674.767
  22373066.085   -18676468.24749 -14527532.10246  22373065.669    22373071.521
  24280964.287    -7504980.24849  -5831474.38345  24280963.589    24280970.776
  23770138.122    -6807725.00649  -5023512.22145  23770137.476    23770146.077
 03  3 29  3 12 30.0000000  0  7G 3G25G14G15G11G18G31
  24484415.309    -6059477.15349  -4693573.63145  24484414.963    24484424.964
  21878484.171   -17252879.03449 -13433405.54347  21878483.851    21878490.310
  20937835.617   -26048326.76449 -19998919.60148  20937835.018    20937839.840
  24119046.172   -10424571.75149  -7863312.84945  24119045.182    24119054.633
  22359141.732   -18749641.15149 -14584549.88946  22359141.309    22359147.112
  24295324.622    -7429516.17649  -5772671.26245  24295324.107    24295331.143
  23784128.280    -6734206.64949  -4966225.23945  23784127.581    23784136.174
 03  3 29  3 13  0.0000000  0  7G 3G25G14G15G11G18G31
  24500512.398    -5974886.80949  -4627659.16645  24500511.969    24500522.065
  21864067.799   -17328637.22349 -13492437.81047  21864067.481    21864073.924
  20948128.076   -25994239.79349 -19956773.91348  20948127.433    20948132.262
  24140452.947   -10312078.57149  -7775655.92145  24140451.973    24140461.429
  22345285.640   -18822454.93049 -14641287.83647  22345285.231    22345291.026
  24309703.473    -7353955.28749  -5713792.69645  24309702.783    24309710.025
  23798156.678    -6660486.68749  -4908781.13745  23798156.000    23798164.675
 03  3 29  3 13 30.0000000  0  7G 3G25G14G15G11G18G31
  24516603.244    -5890329.39749  -4561770.37045  24516602.709    24516612.882
  21849718.319   -17404044.00749 -13551196.27147  21849717.975    21849724.385
  20958475.206   -25939865.39449 -19914404.25748  20958474.550    20958479.383
  24161886.329   -10199445.57449  -7687890.01545  24161885.414    24161894.866
  22331498.439   -18894906.99649 -14697743.93247  22331498.046    22331503.767
  24324100.749    -7278297.36549  -5654838.52045  24324100.127    24324107.389
  23812222.934    -6586568.02749  -4851182.23445  23812222.261    23812230.937
 03  3 29  3 14  0.0000000  0  7G 3G25G14G15G11G18G31
  24532687.172    -5805808.18049  -4495909.77945  24532686.634    24532696.910
  21835436.059   -17479097.38249 -13609679.35347  21835435.723    21835442.097
  20968876.469   -25885206.28249 -19871812.74348  20968875.829    20968880.662
  24183345.805   -10086675.66149  -7600017.43945  24183344.988    24183354.399
  22317780.278   -18966996.07849 -14753917.18547  22317779.883    22317785.613
  24338516.371    -7202543.03749  -5595809.23945  24338515.766    24338523.092
  23826326.282    -6512454.39949  -4793431.38845  23826325.678    23826334.324
 03  3 29  3 14 30.0000000  0  7G 3G25G14G15G11G18G31
  24548763.796    -5721325.11349  -4430078.90845  24548763.265    24548773.567
  21821221.762   -17553793.81549 -13667884.28347  21821221.423    21821227.771
  20979331.757   -25830263.43849 -19829000.14248  20979331.111    20979335.946
  24204831.005    -9973770.27049  -7512039.28945  24204830.255    24204839.561
  22304131.827   -19038718.87849 -14809805.01947  22304131.441    22304137.141
  24352950.568    -7126691.64349  -5536704.27945  24352949.903    24352957.195
  23840466.428    -6438147.92149  -4735530.28345  23840465.739    23840474.385
 03  3 29  3 15  0.0000000  0  7G 3G25G14G15G11G18G31
  24564832.495    -5636883.69649  -4364280.49245  24564831.961    24564842.381
  21807075.580   -17628132.18649 -13725810.21647  21807075.226    21807081.566
  20989840.432   -25775039.79949 -19785968.73648  20989839.806    20989844.632
  24226341.595    -9860732.00149  -7423957.58245  24226340.754    24226350.090
  22290553.380   -19110073.92449 -14865406.29447  22290552.961    22290558.672
  24367403.095    -7050743.74749  -5477524.16245  24367402.418    24367409.649
  23854642.511    -6363652.49949  -4677481.92745  23854641.785    23854650.415
 03  3 29  3 15 30.0000000  0  7G 3G25G14G15G11G18G31
  24580892.927    -5552485.81049  -4298515.99945  24580892.442    24580902.757
  21792998.169   -17702109.08149 -13783454.47947  21792997.822    21793004.152
  21000402.352   -25719536.68549 -19742719.55848  21000401.714    21000406.523
  24247877.157    -9747562.18649  -7335773.36545  24247876.364    24247885.707
  22277045.442   -19181058.27249 -14920718.73047  22277045.033    22277050.728
  24381873.948    -6974698.64149  -5418268.30645  24381873.320    24381880.664
  23868854.033    -6288970.36049  -4619288.10845  23868853.306    23868861.967
 03  3 29  3 16  0.0000000  0  7G 3G25G14G15G11G18G31
  24596944.481    -5468134.56749  -4232787.84445  24596944.020    24596954.337
  21778989.993   -17775722.30449 -13840815.35747  21778989.639    21778995.956
  21011016.954   -25663756.32449 -19699254.33748  21011016.336    21011021.156
  24269437.248    -9634263.37349  -7247488.63845  24269436.429    24269445.828
  22263608.400   -19251669.99049 -14975740.79047  22263607.985    22263613.680
  24396363.252    -6898556.77849  -5358937.03145  24396362.719    24396370.090
  23883100.479    -6214104.89849  -4560951.41345  23883099.684    23883108.445
 03  3 29  3 16 30.0000000  0  7G 3G25G14G15G11G18G31
  24612986.706    -5383832.49149  -4167098.00745  24612986.284    24612996.579
  21765051.377   -17848969.93849 -13897891.36247  21765051.009    21765057.324
  21021683.996   -25607700.56849 -19655574.53348  21021683.411    21021688.231
  24291021.559    -9520837.82649  -7159105.16745  24291020.666    24291030.064
  22250242.817   -19321906.43849 -15030470.43547  22250242.408    22250248.079
  24410871.088    -6822317.83949  -5299530.09645  24410870.535    24410877.894
  23897381.280    -6139058.96849  -4502474.09945  23897380.497    23897389.263
 03  3 29  3 17  0.0000000  0  7G 3G25G14G15G11G18G31
  24629019.046    -5299582.40949  -4101448.67945  24629018.615    24629028.887
  21751182.711   -17921849.97749 -13954680.93447  21751182.320    21751188.621
  21032402.950   -25551372.06149 -19611682.19148  21032402.351    21032407.171
  24312629.380    -9407287.74649  -7070624.63645  24312628.547    24312637.979
  22236948.949   -19391765.94049 -15084906.34947  22236948.541    22236954.234
  24425397.397    -6745982.29649  -5240047.89945  24425396.800    24425404.207
  23911695.757    -6063836.05549  -4443858.90045  23911694.998    23911703.762
 03  3 29  3 17 30.0000000  0  7G 3G25G14G15G11G18G31
  24645041.038    -5215386.49449  -4035841.57145  24645040.553    24645050.873
  21737384.573   -17994359.34349 -14011181.66247  21737384.192    21737390.471
  21043173.598   -25494771.88549 -19567578.16148  21043173.014    21043177.823
  24334260.689    -9293614.79849  -6982048.39245  24334259.832    24334269.324
  22223727.341   -19461245.76749 -15139046.42347  22223726.914    22223732.620
  24439942.087    -6669549.75549  -5180490.14745  24439941.441    24439948.722
  23926043.445    -5988438.59249  -4385107.67445  23926042.686    23926051.455
 03  3 29  3 18  0.0000000  0  7G 3G25G14G15G11G18G31
  24661052.179    -5131248.09049  -3970279.27245  24661051.579    24661061.920
  21723657.370   -18066495.86849 -14067391.87247  21723657.005    21723663.274
  21053995.416   -25437902.86749 -19523264.64148  21053994.823    21053999.618
  24355914.735    -9179821.87949  -6893378.63945  24355913.982    24355923.435
  22210578.352   -19530344.22649 -15192889.31747  22210577.887    22210583.584
  24454505.055    -6593020.71749  -5120857.17145  24454504.439    24454511.801
  23940423.606    -5912870.34649  -4326223.37445  23940422.940    23940431.666
 03  3 29  3 18 30.0000000  0  7G 3G25G14G15G11G18G31
  24677051.795    -5047169.13949  -3904763.28645  24677051.213    24677061.651
  21710001.625   -18138257.01349 -14123309.58047  21710001.279    21710007.512
  21064868.098   -25380766.58449 -19478742.86048  21064867.486    21064872.293
  24377591.426    -9065910.51849  -6804616.62445  24377590.596    24377600.142
  22197502.412   -19599058.35149 -15246432.73747  22197501.939    22197507.631
  24469086.475    -6516394.73549  -5061148.66445  24469085.934    24469093.463
  23954835.919    -5837133.49249  -4267207.69745  23954835.232    23954843.948
 03  3 29  3 19  0.0000000  0  7G 3G25G14G15G11G18G31
  24693039.755    -4963152.53049  -3839295.90045  24693039.234    24693049.532
  21696417.755   -18209640.31549 -14178932.87647  21696417.433    21696423.634
  21075791.332   -25323364.73249 -19434014.14648  21075790.714    21075795.512
  24399290.221    -8951882.60749  -6715763.78345  24399289.343    24399298.986
  22184500.070   -19667386.05549 -15299675.05247  22184499.620    22184505.265
  24483686.326    -6439671.53049  -5001364.39845  24483685.887    24483693.399
  23969279.695    -5761231.30049  -4208063.17545  23969279.003    23969287.683
 03  3 29  3 19 30.0000000  0  7G 3G25G14G15G11G18G31
  24709015.263    -4879201.09149  -3773879.28745  24709014.655    24709025.086
  21682906.202   -18280643.88249 -14234260.26447  21682905.867    21682912.050
  21086764.640   -25265699.61849 -19389080.29248  21086763.997    21086768.815
  24421010.806    -8837740.76549  -6626822.13145  24421009.817    24421019.545
  22171571.634   -19735325.34149 -15352614.69947  22171571.141    22171576.784
  24498304.692    -6362851.61149  -4941504.78245  24498304.276    24498311.778
  23983754.232    -5685167.02849  -4148792.37845  23983753.592    23983762.317
 03  3 29  3 20  0.0000000  0  7G 3G25G14G15G11G18G31
  24724977.852    -4795317.44249  -3708515.50645  24724977.215    24724987.829
  21669467.271   -18351265.63949 -14289290.13947  21669466.920    21669473.087
  21097787.660   -25207773.19249 -19343942.81848  21097787.036    21097791.857
  24442752.543    -8723487.14049  -6537793.40545  24442751.505    24442761.395
  22158717.464   -19802874.19449 -15405250.11747  22158716.980    22158722.596
  24512941.617    -6285934.72049  -4881569.55245  24512941.133    24512948.549
  23998259.111    -5608943.65149  -4089397.59245  23998258.461    23998267.228
 03  3 29  3 20 30.0000000  0  7G 3G25G14G15G11G18G31
  24740927.043    -4711504.53349  -3643206.84345  24740926.383    24740936.904
  21656101.415   -18421503.43049 -14344020.81647  21656101.083    21656107.234
  21108859.908   -25149587.97949 -19298603.68748  21108859.301    21108864.112
  24464515.145    -8609124.36949  -6448679.63645  24464514.169    24464523.999
  22145937.969   -19870030.70549 -15457579.80547  22145937.487    22145943.078
  24527596.840    -6208921.41949  -4821559.25945  24527596.248    24527603.683
  24012793.588    -5532564.58549  -4029881.49045  24012792.960    24012801.721
 03  3 29  3 21  0.0000000  0  7G 3G25G14G15G11G18G31
  24756862.411    -4627763.64849  -3577954.31945  24756861.831    24756872.280
  21642809.318   -18491353.77649 -14398449.59947  21642808.975    21642815.081
  21119981.272   -25091144.73349 -19253063.49648  21119980.662    21119985.466
  24486298.302    -8494653.16949  -6359481.35745  24486297.380    24486307.085
  22133233.806   -19936791.46849 -15509601.12747  22133233.312    22133238.882
  24542270.722    -6131810.59549  -4761472.97245  24542270.189    24542277.470
  24027357.313    -5456031.69249  -3970245.52145  24027356.648    24027365.470
 03  3 29  3 21 30.0000000  0  7G 3G25G14G15G11G18G31
  24772783.384    -4544098.84749  -3512761.06645  24772782.719    24772793.430
  21629591.126   -18560815.71049 -14452575.72147  21629590.776    21629596.856
  21131151.114   -25032446.95649 -19207324.97448  21131150.509    21131155.307
  24508101.462    -8380076.98549  -6270201.29245  24508100.596    24508110.022
  22120605.113   -20003155.40249 -15561313.22247  22120604.604    22120610.188
  24556962.528    -6054603.49649  -4701311.65945  24556962.138    24556969.555
  24041949.488    -5379349.31149  -3910493.07545  24041948.825    24041957.741
 03  3 29  3 22  0.0000000  0  6G25G14G15G11G18G31
  21616447.776   -18629884.18549 -14506395.24947  21616447.425    21616453.501
  21142369.547   -24973493.68049 -19161387.35648  21142368.933    21142373.733
  24529924.778    -8265395.15149  -6180838.88045  24529923.678    24529933.378
  22108052.872   -20069117.72849 -15612712.37147  22108052.384    22108057.927
  24571673.326    -5977297.61749  -4641073.37445  24571672.763    24571680.452
  24056570.090    -5302517.75149  -3850624.37745  24056569.454    24056578.388
 03  3 29  3 22 30.0000000  0  6G25G14G15G11G18G31
  21603379.519   -18698558.01449 -14559907.26947  21603379.152    21603385.207
  21153636.052   -24914287.73849 -19115252.85948  21153635.443    21153640.238
  24551767.499    -8150610.91349  -6091396.68845  24551766.285    24551776.174
  22095577.224   -20134677.45549 -15663797.80647  22095576.731    22095582.264
  24586402.871    -5899893.80549  -4580758.77145  24586402.277    24586409.787
  24071218.310    -5225540.88649  -3790642.45645  24071217.653    24071226.614
 03  3 29  3 23  0.0000000  0  6G25G14G15G11G18G31
  21590386.295   -18766837.58849 -14613112.06947  21590385.937    21590391.981
  21164949.780   -24854833.77849 -19068925.10347  21164949.151    21164953.956
  24573628.843    -8035728.93949  -6001878.32345  24573627.711    24573637.591
  22083178.176   -20199834.58949 -15714569.53047  22083177.694    22083183.220
  24601150.442    -5822394.36049  -4520369.66745  24601149.918    24601157.632
  24085893.165    -5148424.36449  -3730551.70745  24085892.533    24085901.455
 03  3 29  3 23 30.0000000  0  5G25G14G15G11G31
  21577468.116   -18834722.78949 -14666009.56947  21577467.760    21577473.779
  21176309.898   -24795135.89449 -19022407.27247  21176309.286    21176314.068
  24595508.006    -7920753.58449  -5912287.19945  24595507.054    24595516.795
  22070855.669   -20264589.51149 -15765027.83747  22070855.195    22070860.694
  24100593.602    -5071173.43249  -3670356.23345  24100592.907    24100601.929
 03  3 29  3 24  0.0000000  0  5G25G14G15G11G31
  21564625.803   -18902209.34949 -14718596.44447  21564625.461    21564631.448
  21187716.506   -24735193.74949 -18975699.11047  21187715.890    21187720.702
  24617404.992    -7805684.53649  -5822623.07045  24617404.085    24617413.720
  22058610.644   -20328937.23649 -15815168.84547  22058610.162    22058615.673
  24115319.456    -4993788.64949  -3610056.45345  24115318.762    24115327.851
 03  3 29  3 24 30.0000000  0  5G25G14G15G11G31
  21551860.256   -18969292.62049 -14770869.06247  21551859.918    21551865.879
  21199169.658   -24675006.88249 -18928800.25247  21199169.041    21199173.853
  24639319.882    -7690521.50549  -5732885.72345  24639318.934    24639328.661
  22046443.885   -20392873.54249 -15864989.27247  22046443.405    22046448.951
  24130070.653    -4916270.65949  -3549652.88945  24130069.980    24130079.068
 03  3 29  3 25  0.0000000  0  5G25G14G15G11G31
  21539171.826   -19035970.44049 -14822825.74747  21539171.482    21539177.434
  21210668.994   -24614577.73649 -18881712.61047  21210668.340    21210673.178
  24661251.955    -7575267.28149  -5643077.32245  24661251.151    24661260.861
  22034355.762   -20456396.77349 -15914487.82947  22034355.283    22034360.792
  24144846.575    -4838622.93649  -3489148.21045  24144845.891    24144854.978
 03  3 29  3 25 30.0000000  0  5G25G14G15G11G31
  21526560.900   -19102241.14849 -14874465.20147  21526560.562    21526566.513
  21222213.973   -24553908.36549 -18834437.77547  21222213.347    21222218.150
  24683201.239    -7459924.22449  -5553199.71445  24683200.426    24683209.986
  22022346.593   -20519505.05849 -15963663.04447  22022346.127    22022351.617
  24159646.533    -4760848.66749  -3428544.94545  24159645.885    24159654.902
 03  3 29  3 26  0.0000000  0  4G25G14G11G31
  21514027.142   -19168106.21049 -14925788.57247  21514026.799    21514032.732
  21233803.633   -24493004.25549 -18786980.03047  21233803.024    21233807.835
  22010416.166   -20582199.61949 -16012515.88947  22010415.696    22010421.142
  24174469.410    -4682954.33049  -3367848.11045  24174468.763    24174477.770
 03  3 29  3 26 30.0000000  0  4G25G14G11G31
  21501571.894   -19233558.76549 -14976790.50647  21501571.542    21501577.490
  21245438.470   -24431862.82849 -18739337.36547  21245437.859    21245442.657
  21998565.766   -20644473.56149 -16061040.97647  21998565.300    21998570.724
  24189315.374    -4604938.37649  -3307056.51245  24189314.666    24189323.628
 03  3 29  3 27  0.0000000  0  4G25G14G11G31
  21489195.478   -19298597.13949 -15027469.70347  21489195.120    21489201.043
  21257118.045   -24370486.30449 -18691511.50547  21257117.424    21257122.199
  21986795.738   -20706325.22149 -16109237.01847  21986795.288    21986800.658
  24204183.933    -4526804.13649  -3246172.73345  24204183.212    24204192.164
 03  3 29  3 27 30.0000000  0  4G25G14G11G31
  21476898.162   -19363219.62749 -15077824.82947  21476897.813    21476903.719
  21268841.853   -24308877.33049 -18643504.51747  21268841.248    21268846.019
  21975106.232   -20767753.67449 -16157103.28747  21975105.781    21975111.158
  24219074.155    -4448555.52149  -3185199.83645  24219073.374    24219082.360
 03  3 29  3 28  0.0000000  0  4G25G14G11G31
  21464680.314   -19427424.64249 -15127854.65047  21464679.951    21464685.853
  21280609.538   -24247037.77149 -18595317.85247  21280608.931    21280613.690
  21963497.735   -20828756.51349 -16204637.91147  21963497.277    21963502.626
  24233985.652    -4370195.35949  -3124140.02945  24233984.872    24233993.847
 03  3 29  3 28 30.0000000  0  4G25G14G11G31
  21452542.195   -19491210.54149 -15177557.89147  21452541.844    21452547.726
  21292420.581   -24184970.51849 -18546953.75947  21292419.924    21292424.689
  21951970.458   -20889332.47249 -16251839.90047  21951970.007    21951975.342
  24248917.556    -4291727.57549  -3062996.34945  24248916.814    24248925.826
 03  3 29  3 29  0.0000000  0  4G25G14G11G31
  21440484.438   -19554574.23349 -15226932.14347  21440484.072    21440489.957
  21304274.767   -24122676.50749 -18498412.97647  21304274.098    21304278.875
  21940524.986   -20949478.72449 -16298707.05647  21940524.521    21940529.834
  24263869.618    -4213154.11249  -3001770.33245  24263868.843    24263877.946
 03  3 29  3 29 30.0000000  0  4G25G14G11G31
  21428507.154   -19617515.07249 -15275976.89647  21428506.813    21428512.682
  21316171.563   -24060158.40349 -18449697.57547  21316170.882    21316175.656
  21929161.523   -21009193.96249 -16345238.35747  21929161.058    21929166.354
  24278841.024    -4134478.95149  -2940465.06545  24278840.259    24278849.380
 03  3 29  3 30  0.0000000  0  4G25G14G11G31
  21416610.747   -19680030.80949 -15324690.40147  21416610.389    21416616.257
  21328110.599   -23997418.49049 -18400809.32647  21328109.917    21328114.686
  21917880.434   -21068476.19449 -16391432.25847  21917879.977    21917885.253
  24293831.241    -4055705.14049  -2879082.93045  24293830.511    24293839.593
 03  3 29  3 30 30.0000000  0  4G25G14G11G31
  21404795.802   -19742118.68149 -15373070.50847  21404795.439    21404801.285
  21340091.578   -23934457.96949 -18351749.18547  21340090.892    21340095.692
  21906682.254   -21127322.88849 -16437286.77747  21906681.780    21906687.044
  24308839.798    -3976835.07149  -2817625.79345  24308838.981    24308848.100
 03  3 29  3 31  0.0000000  0  4G25G14G11G31
  21393062.646   -19803776.59649 -15421115.57847  21393062.291    21393068.117
  21352114.257   -23871278.29849 -18302518.27547  21352113.580    21352118.390
  21895567.356   -21185731.89149 -16482800.24547  21895566.875    21895572.120
  24323866.031    -3897871.37549  -2756095.68645  24323865.288    24323874.545
 03  3 29  3 31 30.0000000  0  4G25G14G11G31
  21381411.571   -19865003.31149 -15468824.65147  21381411.207    21381416.995
  21364178.096   -23807882.20049 -18253118.71647  21364177.448    21364182.246
  21884536.068   -21243701.51449 -16527971.33247  21884535.582    21884540.805
  24338909.413    -3818817.84049  -2694495.59045  24338908.743    24338917.935
 03  3 29  3 32  0.0000000  0  4G25G14G11G31
  21369842.870   -19925796.96849 -15516196.27947  21369842.506    21369848.260
  21376282.799   -23744271.70049 -18203552.09347  21376282.128    21376286.932
  21873588.670   -21301230.18949 -16572798.82947  21873588.190    21873593.417
  24353969.409    -3739677.48749  -2632827.83845  24353968.678    24353977.903
 03  3 29  3 32 30.0000000  0  4G25G14G11G31
  21358356.900   -19986155.97949 -15563229.21547  21358356.528    21358362.271
  21388427.812   -23680449.00749 -18153820.13247  21388427.180    21388431.994
  21862725.536   -21358316.27949 -16617281.45547  21862725.040    21862730.227
  24369045.218    -3660453.68449  -2571095.06345  24369044.471    24369053.787
 03  3 29  3 33  0.0000000  0  4G25G14G11G31
  21346954.307   -20046076.83349 -15609920.73847  21346953.931    21346959.633
  21400613.113   -23616414.79549 -18103923.35147  21400612.474    21400617.272
  21851947.244   -21414956.37549 -16661416.55547  21851946.762    21851951.926
  24384136.613    -3581148.11749  -2509298.58845  24384135.814    24384145.131
 03  3 29  3 33 30.0000000  0  4G25G14G11G31
  21335635.115   -20105559.34249 -15656270.69047  21335634.747    21335640.433
  21412838.081   -23552172.28249 -18053864.26047  21412837.431    21412842.221
  21841253.914   -21471149.97149 -16705203.73147  21841253.445    21841258.607
  24399242.717    -3501765.14449  -2447441.78145  24399242.006    24399251.268
 03  3 29  3 34  0.0000000  0  4G25G14G11G31
  21324399.869   -20164600.76949 -15702276.94547  21324399.516    21324405.176
  21425102.488   -23487722.25449 -18003643.46447  21425101.881    21425106.680
  21830646.094   -21526894.19449 -16748640.73347  21830645.609    21830650.799
  24414363.140    -3422306.93049  -2385526.34945  24414362.488    24414371.695
 03  3 29  3 34 30.0000000  0  4G25G14G11G31
  21313248.845   -20223199.56849 -15747938.29647  21313248.485    21313254.130
  21437405.928   -23423067.22049 -17953262.92447  21437405.313    21437410.152
  21820124.088   -21582187.51149 -16791726.38547  21820123.613    21820128.784
  24429497.274    -3342776.91449  -2323554.96345  24429496.641    24429505.776
 03  3 29  3 35  0.0000000  0  4G25G14G11G31
  21302182.505   -20281353.27149 -15793252.81747  21302182.146    21302187.797
  21449748.078   -23358208.80449 -17902723.90847  21449747.459    21449752.279
  21809688.301   -21637027.77249 -16834459.00547  21809687.818    21809692.980
  24444644.618    -3263177.55149  -2261529.54045  24444643.886    24444653.147
 03  3 29  3 35 30.0000000  0  4G25G14G11G31
  21291201.086   -20339060.76149 -15838219.63647  21291200.729    21291206.381
  21462128.483   -23293149.46149 -17852028.31947  21462127.848    21462132.686
  21799338.985   -21691413.57349 -16876837.50347  21799338.502    21799343.628
  24459804.442    -3183512.41949  -2199452.86545  24459803.700    24459812.951
 03  3 29  3 36  0.0000000  0  4G25G14G11G31
  21280305.087   -20396319.27349 -15882836.60847  21280304.732    21280310.375
  21474546.938   -23227890.00649 -17801176.80347  21474546.301    21474551.124
  21789076.679   -21745342.22349 -16918859.77947  21789076.196    21789081.301
  24474976.419    -3103783.55049  -2137326.52645  24474975.667    24474984.994
 03  3 29  3 36 30.0000000  0  4G25G14G11G31
  21269494.867   -20453127.15049 -15927102.43647  21269494.505    21269500.140
  21487003.060   -23162432.53849 -17750170.99647  21487002.448    21487007.274
  21778901.649   -21798812.23449 -16960524.66847  21778901.170    21778906.273
  24490159.896    -3023994.41249  -2075153.23845  24490159.056    24490168.362
 03  3 29  3 37  0.0000000  0  4G25G14G11G31
  21258770.720   -20509482.74649 -15971015.83447  21258770.360    21258775.987
  21499496.567   -23096779.02949 -17699012.42347  21499495.879    21499500.732
  21768814.283   -21851821.62049 -17001830.63547  21768813.774    21768818.884
  24505354.199    -2944147.87249  -2012935.20245  24505353.427    24505362.769
 03  3 29  3 37 30.0000000  0  4G25G14G11G31
  21248133.042   -20565383.96549 -16014575.17048  21248132.674    21248138.299
  21512027.054   -23030930.80749 -17647702.12547  21512026.404    21512031.242
  21758815.006   -21904367.96049 -17042775.77747  21758814.486    21758819.574
  24520558.871    -2864246.19849  -1950674.21445  24520558.181    24520567.668
 03  3 29  3 38  0.0000000  0  4G25G14G11G31
  21237582.096   -20620829.30349 -16057779.28248  21237581.738    21237587.327
  21524594.122   -22964890.38249 -17596242.06647  21524593.494    21524598.319
  21748904.112   -21956449.84249 -17083359.01047  21748903.597    21748908.681
  24535773.454    -2784293.03649  -1888373.10745  24535772.818    24535782.382
 03  3 29  3 38 30.0000000  0  4G25G14G11G31
  21227118.267   -20675816.93149 -16100626.73348  21227117.912    21227123.504
  21537197.543   -22898659.12149 -17544633.30247  21537196.859    21537201.653
  21739081.921   -22008065.58349 -17123579.01647  21739081.407    21739086.495
  24550997.422    -2704291.14749  -1826034.03745  24550996.788    24551006.228
 03  3 29  3 39  0.0000000  0  4G25G14G11G31
  21216741.718   -20730345.74949 -16143116.66448  21216741.356    21216746.922
  21549836.777   -22832239.58849 -17492877.82747  21549836.109    21549840.879
  21729348.693   -22059213.83849 -17163434.74647  21729348.185    21729353.253
  24566229.909    -2624244.17449  -1763659.82645  24566229.283    24566238.684
 03  3 29  3 39 30.0000000  0  4G25G14G11G31
  21206452.915   -20784413.62349 -16185247.43048  21206452.549    21206458.096
  21562511.608   -22765632.89149 -17440976.51747  21562510.944    21562515.714
  21719704.912   -22109891.96449 -17202924.14847  21719704.402    21719709.458
  24581470.601    -2544153.95649  -1701251.91545  24581469.992    24581479.337
 03  3 29  3 40  0.0000000  0  4G25G14G11G31
  21196251.966   -20838019.68149 -16227018.33248  21196251.610    21196257.165
  21575221.519   -22698841.69049 -17388931.43447  21575220.895    21575225.685
  21710150.760   -22160099.09249 -17242046.53547  21710150.276    21710155.315
  24596718.736    -2464024.60149  -1638813.51445  24596718.187    24596727.579
 03  3 29  3 40 30.0000000  0  4G25G14G11G31
  21186139.597   -20891160.45249 -16268426.67648  21186139.241    21186144.785
  21587966.482   -22631866.35649 -17336742.87247  21587965.872    21587970.679
  21700686.839   -22209832.09749 -17280799.48747  21700686.358    21700691.379
  24611974.007    -2383857.56949  -1576345.75845  24611973.535    24611982.927
